     2.11           OBSERVATION DATA    G (GPS)             RINEX VERSION / TYPE
teqc 2010Oct21 OPUS Account 20111026 16:45:22UTC            PGM / RUN BY / DATE
L 1523                                                      MARKER NAME
1191                                                        MARKER NUMBER
CSMIDDLETON NGS                                             OBSERVER / AGENCY
0220390627 TRIMBLE R7 NP 2.32 / SP 0.00                     REC # / TYPE / VERS
60124849 TRM41249.00 NONE                                   ANT # / TYPE
  -750718.4397 -5513028.6212  3108026.4572                  APPROX POSITION XYZ
        2.0010        0.0000        0.0000                  ANTENNA: DELTA H/E/N
     1     1                                                WAVELENGTH FACT L1/2
     5    L1    L2    C1    P1    P2                        # / TYPES OF OBSERV
  2011     8     2    15     7    0.0000000     GPS         TIME OF FIRST OBS
                                                            END OF HEADER
 11  8  2 15  7  0.0000000  0  8G03G06G13G20G23G31G32G16
   -186457.08257   -118472.88354  22842284.4144                   22842284.5314
   -148259.28157    -94699.43754  22974340.6094                   22974339.5314
   -183152.71157   -117036.03954  23056551.8134                   23056550.5204
      5615.93857      3467.19156  21097351.5314                   21097349.3794
   -151162.76258    -98546.64156  21145160.0314                   21145155.7544
     57762.06357     36705.38754  24003889.4064                   24003888.6454
     50441.74257     31821.78156  21517398.7974                   21517397.2504
    -46594.62157    -30395.35956  20137188.8284                   20137186.0394
 11  8  2 15  7 15.0000000  0  8G03G06G13G20G23G31G32G16
   -246375.75047   -165162.71545  22830882.6724                   22830882.5664
   -195945.28547   -131857.35544  22965265.8204                   22965265.5704
   -242093.41446   -162963.84844  23045335.7274                   23045334.6884
      7257.52048      4746.32446  21097663.8594                   21097661.5434
   -199794.76248   -136441.69946  21135905.5004                   21135901.3554
     75932.04746     50863.78944  24007348.0554                   24007346.3134
     66273.46147     44158.15246  21520411.7034                   21520410.6024
    -61914.77348    -42333.15646  20134273.8134                   20134270.6724
 11  8  2 15  7 30.0000000  0  8G03G06G13G20G23G31G32G16
   -306307.73847   -211862.95744  22819478.0314                   22819477.1454
   -243616.38347   -169003.68044  22956194.1954                   22956193.5434
   -301076.17646   -208924.44544  23034111.4534                   23034110.1374
      8984.73047      6092.15246  21097992.4384                   21097990.0394
   -248423.31248   -174334.10246  21126652.1094                   21126647.5394
     94043.14847     64976.27744  24010793.8754                   24010792.5824
     82158.42647     56535.98846  21523434.6804                   21523432.9924
    -77128.41047    -54187.96546  20131378.5554                   20131375.5044
 11  8  2 15  7 45.0000000  0  8G03G06G13G20G23G31G32G16
   -366237.19147   -258561.22744  22808073.9224                   22808073.0904
   -291256.57447   -206125.92244  22947128.6954                   22947128.0004
   -360085.23446   -254905.53944  23022882.5004                   23022880.8874
     10813.15247      7516.85946  21098340.6414                   21098338.1294
   -297032.57048   -212211.46946  21117401.5554                   21117397.6374
    112110.93846     79055.02744  24014232.2274                   24014230.9144
     98112.03547     68967.31645  21526470.3914                   21526469.1054
    -92219.92247    -65947.61346  20128507.0944                   20128503.8594
 11  8  2 15  8  0.0000000  0  8G03G06G13G20G23G31G32G16
   -426155.29347   -305250.63744  22796671.6644                   22796670.9774
   -338856.80947   -243216.99244  22938070.1644                   22938069.9064
   -419111.91846   -300900.32843  23011650.3674                   23011648.8674
     12751.01248      9026.85546  21098709.2274                   21098707.1254
   -345613.63348   -250066.84446  21108157.2114                   21108153.1094
    130144.00846     93106.73844  24017663.7504                   24017661.9304
    114142.69947     81458.70345  21529521.1954                   21529519.9184
   -107180.75847    -77605.41046  20125659.7504                   20125656.9924
 11  8  2 15  8 15.0000000  0  8G03G06G13G20G23G31G32G16
   -486057.16847   -351927.39144  22785272.4694                   22785272.0744
   -386412.75047   -280273.57444  22929021.3204                   22929020.1884
   -478151.61346   -346905.26243  23000414.8284                   23000413.5634
     14802.40247     10625.31646  21099099.9924                   21099097.5594
   -394161.90648   -287896.66846  21098918.8134                   21098914.4734
    148146.71146    107134.78944  24021090.1024                   24021088.1644
    130254.40647     94013.23846  21532587.1644                   21532586.2704
   -122006.82847    -89158.19546  20122838.7974                   20122835.6564
 11  8  2 15  8 30.0000000  0  8G03G06G13G20G23G31G32G16
   -545942.21947   -398591.04344  22773876.8594                   22773876.7384
   -433923.71546   -317295.09444  22919980.1414                   22919979.7274
   -537204.02047   -392920.10244  22989177.9224                   22989176.2234
     16967.05147     12312.03946  21099511.6804                   21099509.7934
   -442676.93048   -325700.58246  21089686.5394                   21089682.3284
    166119.07046    121139.20344  24024509.4614                   24024508.2034
    146447.02347    106630.82846  21535668.0164                   21535666.7704
   -136698.00447   -100605.87146  20120042.9844                   20120039.9734
 11  8  2 15  8 45.0000000  0  8G03G06G13G20G23G31G32G16
   -605807.85947   -445239.55544  22762484.1254                   22762484.2384
   -481387.04346   -354279.48444  22910947.8204                   22910947.3594
   -596266.73047   -438942.98844  22977938.8364                   22977936.7344
     19247.19547     14088.74646  21099945.4384                   21099943.2074
   -491156.27748   -363476.70346  21080461.1884                   21080456.5084
    184063.36347    135121.71144  24027924.1414                   24027922.9224
    162722.37147    119312.89146  21538765.6954                   21538764.5354
   -151252.01647   -111946.66046  20117273.3204                   20117270.3094
 11  8  2 15  9  0.0000000  0  8G03G06G13G20G23G31G32G16
   -665653.37547   -491872.39844  22751096.2664                   22751096.2274
   -528802.00847   -391226.18744  22901924.7424                   22901924.5354
   -655339.14847   -484973.43044  22966697.0634                   22966695.7234
     21643.09447     15955.66846  21100401.6724                   21100398.9494
   -539599.45348   -401224.62946  21071242.7814                   21071238.7854
    201980.01647    149082.72344  24031333.6954                   24031331.9414
    179080.75047    132059.64546  21541878.1884                   21541876.8524
   -165668.85947   -123180.57446  20114529.9924                   20114526.9024
 11  8  2 15  9 15.0000000  0  8G03G06G13G20G23G31G32G16
   -725478.48847   -538489.33244  22739712.0314                   22739711.6054
   -576168.62946   -428135.22744  22892911.6884                   22892911.1484
   -714421.51647   -531011.60944  22955455.4064                   22955453.0234
     24154.21548     17912.35946  21100879.5084                   21100877.1174
   -588006.40648   -438944.33246  21062031.2814                   21062027.2544
    219868.60247    163021.86344  24034738.8524                   24034735.7814
    195521.62547    144870.68045  21545006.9694                   21545005.6644
   -179948.93447   -134307.90646  20111812.5084                   20111809.3794
 11  8  2 15  9 30.0000000  0  8G03G06G13G20G23G31G32G16
   -785282.60547   -585089.91444  22728331.3594                   22728331.0594
   -623485.99646   -465005.89144  22883907.6024                   22883906.5704
   -773513.06647   -577056.96944  22944210.0864                   22944208.5394
     26780.65647     19958.91446  21101379.2274                   21101377.0984
   -636376.29748   -476635.15646  21052826.8364                   21052822.5274
    237729.75046    176939.62144  24038137.1724                   24038134.8794
    212044.99647    157746.01245  21548151.1024                   21548150.2034
   -194091.80948   -145328.33646  20109121.3594                   20109118.6214
 11  8  2 15  9 45.0000000  0  8G03G06G13G20G23G31G32G16
   -845063.52047   -631672.42244  22716956.0704                   22716955.0634
   -670752.27746   -501836.75844  22874913.0164                   22874911.8714
   -832611.96547   -623108.05544  22932964.1954                   22932961.9144
     29523.89548     22096.48046  21101901.2584                   21101898.7934
   -684707.18748   -514295.59046  21043630.0164                   21043625.3954
    255564.87946    190837.09444  24041530.7584                   24041529.1764
    228652.29347    170686.73446  21551311.3444                   21551310.8284
   -208096.12948   -156240.79346  20106456.1954                   20106453.4694
 11  8  2 15 10  0.0000000  0  8G03G06G13G20G23G31G32G16
   -904823.56647   -678238.67244  22705583.1644                   22705582.9104
   -717969.67646   -538629.51644  22865928.4144                   22865926.8524
   -891720.85947   -669166.92244  22921715.7584                   22921714.2154
     32380.93048     24322.72746  21102445.0004                   21102442.5124
   -733001.50848   -551927.53146  21034439.5314                   21034435.2854
    273371.26647    204712.17244  24044919.3594                   24044917.3164
    245340.52047    183690.50846  21554487.3984                   21554486.6524
   -221964.40248   -167047.24246  20103817.2114                   20103814.2624
 11  8  2 15 10 15.0000000  0  8G03G06G13G20G23G31G32G16
   -964562.08646   -724788.12944  22694215.6334                   22694215.0594
   -765137.35247   -575383.52344  22856952.0164                   22856951.2544
   -950839.01247   -715233.00044  22910466.1024                   22910464.1994
     35351.82048     26637.68046  21103010.2114                   21103007.7974
   -781258.61748   -589530.47346  21025256.5704                   21025252.6374
    291149.19547    218565.05944  24048302.5394                   24048300.5314
    262109.99247    196757.60245  21557678.3204                   21557677.2664
   -235696.30148   -177747.43446  20101203.9614                   20101201.1764
 11  8  2 15 10 30.0000000  0  8G03G06G13G20G23G31G32G16
  -1024275.11747   -771317.73444  22682852.8284                   22682852.2704
   -812251.78547   -612096.06644  22847986.3834                   22847985.4064
  -1009962.96947   -761303.59044  22899215.3444                   22899213.2854
     38439.93448     29043.98446  21103597.9304                   21103595.8054
   -829474.88748   -627101.59046  21016081.3444                   21016077.5314
    308902.16847    232398.53544  24051680.4694                   24051678.6994
    278963.61747    209890.27046  21560885.3284                   21560884.1994
   -249288.70347   -188338.91846  20098617.4534                   20098614.6294
 11  8  2 15 10 45.0000000  0  8G03G06G13G20G23G31G32G16
  -1083964.64147   -817829.02044  22671494.7274                   22671493.3594
   -859314.95746   -648768.65244  22839030.2194                   22839029.7894
  -1069095.00847   -807380.48044  22887962.6954                   22887961.4964
     41642.72347     31539.64146  21104207.6254                   21104204.9804
   -877652.50448   -664642.58246  21006913.4224                   21006909.5434
    326627.73847    246210.60944  24055054.0234                   24055052.1804
    295898.78947    223086.48046  21564108.2734                   21564106.7114
   -262744.05947   -198823.61347  20096057.2344                   20096054.4494
 11  8  2 15 11  0.0000000  0  8G03G06G13G20G23G31G32G16
  -1143630.50047   -864321.89544  22660140.1724                   22660139.5474
   -906326.62546   -685401.10544  22830084.7424                   22830084.1174
  -1128234.98447   -853463.57844  22876708.3754                   22876706.4694
     44959.42648     34124.05946  21104838.7424                   21104835.9844
   -925791.46948   -702153.46946  20997752.5704                   20997748.6884
    344325.77346    260001.28544  24058421.3984                   24058419.5234
    312914.96948    236345.81345  21567346.1804                   21567345.4414
   -276062.68048   -209201.77046  20093522.7114                   20093519.8594
 11  8  2 15 11 15.0000000  0  8G03G06G13G20G23G31G32G16
  -1203271.62947   -910795.47744  22648790.9304                   22648790.0554
   -953285.75446   -721992.64144  22821148.3444                   22821147.5904
  -1187381.90647   -899552.09044  22865453.6024                   22865451.2114
     48390.79748     36797.84046  21105491.7274                   21105489.3524
   -973890.60248   -739633.31246  20988599.7034                   20988595.6564
    361997.00046    273771.03544  24061784.3364                   24061782.2074
    330012.65247    249668.65245  21570599.9694                   21570598.7664
   -289244.00448   -219472.93746  20091014.6884                   20091011.5234
 11  8  2 15 11 30.0000000  0  8G03G06G13G20G23G31G32G16
  -1262887.44947   -957249.34844  22637446.0394                   22637445.0864
  -1000191.85247   -758542.82444  22812222.4774                   22812221.8164
  -1246535.52347   -945645.78944  22854196.7814                   22854195.4694
     51936.78148     39560.91846  21106166.3914                   21106164.2704
  -1021949.51248   -777081.80946  20979454.7194                   20979450.7464
    379641.48846    287519.96144  24065142.5554                   24065139.4614
    347191.73047    263054.91445  21573868.9304                   21573867.7464
   -302287.93048   -229637.04346  20088531.8594                   20088529.0744
 11  8  2 15 11 45.0000000  0  8G03G06G13G20G23G31G32G16
  -1322477.77347  -1003683.35544  22626106.2344                   22626105.8634
  -1047044.53947   -795051.41844  22803306.5314                   22803305.7624
  -1305695.87147   -991744.74244  22842938.9144                   22842937.4064
     55596.75048     42412.82046  21106863.0634                   21106860.2504
  -1069968.31648   -814499.06646  20970317.2114                   20970313.0044
    397259.12547    301247.96944  24068494.3834                   24068492.9224
    364451.57447    276504.11345  21577153.3674                   21577152.0864
   -315194.78148   -239694.33646  20086076.0554                   20086072.9654
 11  8  2 15 12  0.0000000  0  8G03G06G13G20G23G31G32G16
  -1382040.84447  -1050096.10944  22614771.7734                   22614771.0514
  -1093842.46147   -831517.30544  22794401.3524                   22794400.7034
  -1364861.43047  -1037847.77744  22831680.1254                   22831678.2854
     59371.82448     45354.41046  21107581.3834                   21107578.9844
  -1117945.32448   -851883.75046  20961187.4534                   20961183.2544
    414851.09047    314955.96144  24071842.2194                   24071840.6374
    381793.47348    290017.25845  21580453.6884                   21580452.3954
   -327963.28948   -249643.83646  20083646.4454                   20083643.3284
 11  8  2 15 12 15.0000000  0  8G03G06G13G20G23G31G32G16
  -1441579.74647  -1096490.03144  22603441.8284                   22603441.4454
  -1140588.71547   -867942.95344  22785505.8674                   22785505.4614
  -1424035.66847  -1083957.55144  22820419.8364                   22820418.3284
     63258.18448     48382.72346  21108320.7974                   21108318.5864
  -1165883.68048   -889238.31246  20952064.9614                   20952060.8634
    432413.68446    328641.08644  24075184.4694                   24075182.3594
    399213.49648    303591.27745  21583768.3834                   21583767.4414
   -340597.12548   -259488.39146  20081242.2034                   20081239.0004
 11  8  2 15 12 30.0000000  0  8G03G06G13G20G23G31G32G16
  -1501092.30147  -1142863.44144  22592117.3524                   22592116.8444
  -1187281.19947   -904326.69944  22776620.7424                   22776619.8014
  -1483216.60947  -1130072.54344  22809157.5944                   22809156.3054
     67257.47748     51499.03946  21109082.0314                   21109079.8554
  -1213781.45748   -926561.25846  20942950.1334                   20942946.0904
    449948.87547    342304.84844  24078521.7894                   24078519.1254
    416713.08647    317227.28946  21587098.2664                   21587097.3484
   -353094.61348   -269226.69546  20078863.8444                   20078861.4224
 11  8  2 15 12 45.0000000  0  8G03G06G13G20G23G31G32G16
  -1560578.37147  -1189216.20744  22580797.5784                   22580796.8444
  -1233919.62147   -940668.30944  22767745.8364                   22767744.8014
  -1542404.08647  -1176192.64544  22797894.2194                   22797893.0704
     71369.23447     54702.98046  21109864.0004                   21109861.9184
  -1261638.76248   -963852.66846  20933843.1024                   20933839.0004
    467456.31347    355946.98444  24081853.6804                   24081851.0514
    434291.58247    330924.78545  21590443.8054                   21590442.6604
   -365456.45348   -278859.31246  20076511.6094                   20076508.6724
 11  8  2 15 13  0.0000000  0  8G03G06G13G20G23G31G32G16
  -1620039.09047  -1235549.20744  22569482.4304                   22569482.1844
  -1280505.28147   -976968.81644  22758880.8444                   22758879.8984
  -1601599.56647  -1222318.96944  22786629.5704                   22786628.4264
     75591.68048     57993.17246  21110667.8674                   21110665.7854
  -1309456.66448  -1001113.37546  20924743.8914                   20924739.7154
    484934.48046    369566.27043  24085178.6254                   24085176.8524
    451947.43048    344682.57045  21593803.4694                   21593802.1134
   -377684.23448   -288387.46146  20074184.7344                   20074182.0864
 11  8  2 15 13 15.0000000  0  8G03G06G13G20G23G31G32G16
  -1679472.19147  -1281860.70344  22558172.6174                   22558172.0004
  -1327035.93447  -1013226.45744  22750025.7894                   22750025.4264
  -1660800.99247  -1268449.93444  22775364.6564                   22775362.8834
     79926.42648     61370.86746  21111492.7584                   21111490.5044
  -1357232.99648  -1038341.68446  20915652.4614                   20915648.2544
    502385.19146    383164.22344  24088499.7424                   24088497.2424
    469682.19548    358501.84045  21597178.2894                   21597176.8284
   -389775.98448   -297809.61346  20071883.9224                   20071880.8554
 11  8  2 15 13 30.0000000  0  8G03G06G13G20G23G31G32G16
  -1738878.22347  -1328151.09444  22546868.4534                   22546867.4414
  -1373512.26647  -1049441.76644  22741181.7664                   22741180.9414
  -1720009.10547  -1314586.10244  22764097.1334                   22764096.1024
     84372.25448     64835.14146  21112338.7584                   21112335.9884
  -1404968.48448  -1075538.15646  20906568.4224                   20906564.5314
    519807.66046    396740.15244  24091814.9614                   24091813.6374
    487494.53147    372381.55145  21600567.6564                   21600566.6724
   -401732.89548   -307126.68446  20069608.3834                   20069605.7854
 11  8  2 15 13 45.0000000  0  8G03G06G13G20G23G31G32G16
  -1798256.53147  -1374419.90244  22535568.7894                   22535568.0274
  -1419933.40247  -1085614.09044  22732348.6724                   22732347.6954
  -1779223.44947  -1360727.13344  22752828.9064                   22752827.6454
     88929.12148     68385.91846  21113205.9614                   21113203.7034
  -1452662.78148  -1112702.55146  20897493.0164                   20897488.2584
    537201.95746    410294.10544  24095125.3364                   24095123.1024
    505384.36748    386321.64845  21603972.1414                   21603971.0864
   -413554.86348   -316338.62947  20067359.0784                   20067355.9774
 11  8  2 15 14  0.0000000  0  8G03G06G13G20G23G31G32G16
  -1857606.23847  -1420666.40644  22524274.9844                   22524274.0234
  -1466298.50846  -1121742.73044  22723524.9144                   22723525.2544
  -1838443.12147  -1406872.30144  22741560.2584                   22741558.3094
     93597.51248     72023.60246  21114094.3204                   21114092.1414
  -1500314.76248  -1149833.97346  20888424.6254                   20888420.2424
    554568.77746    423826.65244  24098429.8284                   24098428.0354
    523352.20748    400322.53545  21607391.3914                   21607390.4774
   -425241.21948   -325444.89146  20065135.0554                   20065132.2934
 11  8  2 15 14 15.0000000  0  8G03G06G13G20G23G31G32G16
  -1916929.05147  -1466891.95344  22512985.5634                   22512985.6764
  -1512609.65247  -1157829.32044  22714712.4694                   22714711.9064
  -1897670.34447  -1453023.36744  22730289.8364                   22730287.5514
     98374.84848     75746.17246  21115003.6884                   21115001.3094
  -1547926.49648  -1186934.02046  20879364.7344                   20879360.4264
    571905.84447    437336.03544  24101729.0394                   24101727.3984
    541395.43448    414382.16445  21610825.2114                   21610824.0274
   -436794.37548   -334447.35547  20062936.5234                   20062933.4964
 11  8  2 15 14 30.0000000  0  8G03G06G13G20G23G31G32G16
   -400798.64147   -285491.61344  22801496.1954                   22801495.3284
     16558.72747     33730.45744  23005703.6484                   23005703.0744
   -381479.02747   -271575.57444  23018811.2814                   23018809.5434
   1678682.58248   1307154.77746  21415725.9064                   21415723.6024
    -20072.64548      3601.44546  21170105.5784                   21170101.5904
   2164633.93046   1678422.82444  24404814.8284                   24404813.5394
   2134934.39547   1656100.80545  21914065.3204                   21914064.6884
   1127208.07048    884255.84046  20360556.5634                   20360553.1094
 11  8  2 15 14 45.0000000  0  8G03G06G13G20G23G31G32G16
   -460062.56247   -331671.28544  22790218.5864                   22790218.1804
    -29639.30547     -2268.01244  22996912.6024                   22996911.9734
   -440716.82847   -317734.87544  23007538.1644                   23007536.4064
   1683680.93048   1311049.57046  21416677.1094                   21416674.8554
    -67599.23048    -33432.26646  21161061.5944                   21161057.2974
   2181915.15246   1691888.66844  24408103.3284                   24408101.8094
   2153131.30947   1670280.18045  21917528.2814                   21917527.1484
   1115924.52048    875463.44946  20358409.5164                   20358406.3594
 11  8  2 15 15  0.0000000  0  8G03G06G13G20G23G31G32G16
   -519298.44947   -377829.10544  22778946.5004                   22778945.4694
    -75782.12947    -38223.45744  22988131.6724                   22988130.4224
   -499961.46947   -363899.52744  22996265.1884                   22996263.2274
   1688787.55948   1315028.72746  21417649.2424                   21417647.1094
   -115084.73048    -70433.95346  21152025.3674                   21152021.0274
   2199166.57046   1705331.30144  24411386.4694                   24411384.7584
   2171402.74648   1684517.62945  21921005.2504                   21921003.9024
   1104773.62948    866774.43446  20356287.3134                   20356284.3204
 11  8  2 15 15 15.0000000  0  8G03G06G13G20G23G31G32G16
   -578505.37147   -423964.35544  22767679.6024                   22767678.7304
   -121868.92247    -74135.23044  22979362.0474                   22979360.8984
   -559212.31647   -410069.00844  22984989.7504                   22984987.7344
   1694002.67647   1319092.43046  21418641.3754                   21418639.3954
   -162528.25048   -107402.92646  21142997.0314                   21142992.5354
   2216388.68446   1718751.07844  24414664.3674                   24414662.3594
   2189748.85247   1698813.27345  21924496.7194                   21924494.9144
   1093755.78148    858189.08246  20354190.3594                   20354187.3054
 11  8  2 15 15 30.0000000  0  8G03G06G13G20G23G31G32G16
   -637681.60947   -470075.70344  22756418.7344                   22756418.0514
   -167898.08247   -110002.10944  22970603.0234                   22970602.2894
   -618467.90647   -456242.19144  22973713.8674                   22973711.7464
   1699327.27048   1323241.43846  21419654.5314                   21419652.4614
   -209928.13748   -144337.91046  21133977.2114                   21133972.8014
   2233582.75046   1732149.03144  24417935.8984                   24417933.9884
   2208170.73047   1713167.95745  21928001.7664                   21928000.3674
   1082872.21148    849708.37146  20352119.4694                   20352116.7114
 11  8  2 15 15 45.0000000  0  8G03G06G13G20G23G31G32G16
   -696824.40247   -516160.98045  22745164.0554                   22745163.5594
   -213866.84447   -145821.89844  22961854.7344                   22961854.5004
   -677725.79747   -502417.16444  22962437.1804                   22962435.0514
   1704763.39848   1327477.35946  21420688.9614                   21420687.2034
   -257282.12948   -181237.12146  21124965.8984                   21124961.9224
   2250751.03547   1745526.89844  24421202.7734                   24421200.7504
   2226670.29347   1727583.17645  21931522.0704                   21931520.5274
   1072125.00048    841333.91046  20350074.4534                   20350071.1604
 11  8  2 15 16  0.0000000  0  8G03G06G13G20G23G31G32G16
   -755934.90647   -562221.10944  22733916.2114                   22733915.1214
   -259776.49247   -181595.64544  22953118.5474                   22953117.9414
   -736986.91047   -548594.64544  22951160.3754                   22951158.3134
   1710309.54348   1331799.01246  21421744.3594                   21421742.2664
   -304591.33648   -218101.43446  21115963.5554                   21115959.2154
   2267892.27347   1758883.67644  24424464.3754                   24424463.0274
   2245245.87948   1742057.62545  21935056.6644                   21935055.8284
   1061512.72748    833064.59447  20348055.2274                   20348052.1134
 11  8  2 15 16 15.0000000  0  8G03G06G13G20G23G31G32G16
   -815012.46147   -608255.56245  22722674.0314                   22722673.2464
   -305626.41047   -217322.82844  22944393.9534                   22944392.6914
   -796251.07047   -594774.52744  22939882.6484                   22939880.7734
   1715965.41448   1336206.15646  21422820.6884                   21422818.4534
   -351855.29348   -254930.49246  21106969.3364                   21106964.7034
   2285006.56346   1772219.45744  24427721.1724                   24427719.8554
   2263897.42648   1756591.26245  21938606.4384                   21938605.1254
   1051035.27748    824900.34046  20346060.9534                   20346058.5394
 11  8  2 15 16 30.0000000  0  8G03G06G13G20G23G31G32G16
   -874056.97347   -654264.27344  22711438.0704                   22711437.4064
   -351416.37947   -253003.31644  22935679.9534                   22935679.2664
   -855518.37947   -640956.84444  22928604.7894                   22928602.3134
   1721730.35548   1340698.29346  21423917.7734                   21423915.6644
   -399074.06648   -291724.34046  21097983.8364                   21097979.4924
   2302093.50446   1785533.91444  24430972.7504                   24430971.6564
   2282624.25047   1771183.56645  21942169.8444                   21942169.0744
   1040692.15648    816840.75446  20344092.7194                   20344089.8484
 11  8  2 15 16 45.0000000  0  8G03G06G13G20G23G31G32G16
   -933075.28147   -700252.54745  22700207.5004                   22700206.5474
   -397153.43047   -288642.55144  22926976.7114                   22926976.1374
   -914795.86347   -687147.09044  22917324.5704                   22917322.3134
   1727597.14548   1345269.79346  21425034.4304                   21425031.9694
   -446254.63748   -328488.42646  21089006.0944                   21089001.4964
   2319145.91046   1798821.48044  24434217.8984                   24434216.3364
   2301418.81348   1785828.64545  21945746.7034                   21945745.5434
   1030476.10548    808880.18446  20342148.8674                   20342145.7384
 11  8  2 15 17  0.0000000  0  8G03G06G13G20G23G31G32G16
   -992079.50847   -746229.85945  22688978.6484                   22688978.0824
   -442849.80547   -324250.10244  22918280.8364                   22918280.1684
   -974095.87947   -733354.88344  22906040.0164                   22906037.9144
   1733553.05148   1349910.73046  21426167.7894                   21426165.5314
   -493409.10548   -365232.16446  21080032.3284                   21080027.9224
   2336151.23846   1812072.34444  24437454.1954                   24437452.3554
   2320268.21148   1800516.46545  21949333.4454                   21949332.1954
   1020374.36748    801008.68846  20340226.5634                   20340223.4654
 11  8  2 15 17 15.0000000  0  8G03G06G13G20G23G31G32G16
  -1051050.75847   -792181.48444  22677757.2114                   22677756.7074
   -488486.53947   -359811.18444  22909596.7034                   22909595.8484
  -1033399.63347   -779565.59044  22894754.7504                   22894752.7544
   1739616.10948   1354635.16846  21427321.1334                   21427319.1844
   -540518.60548   -401940.86746  21071068.1174                   21071063.5594
   2353128.08646   1825301.01644  24440684.3204                   24440683.3404
   2339190.85947   1815261.35545  21952934.4304                   21952932.8714
   1010405.37548    793240.63346  20338329.7584                   20338326.5514
 11  8  2 15 17 30.0000000  0  8G03G06G13G20G23G31G32G16
  -1109985.72747   -838104.83645  22666542.3984                   22666541.4144
   -534060.50047   -395323.33644  22900924.3674                   22900923.7274
  -1092704.03947   -825776.81244  22883469.3204                   22883467.5904
   1745788.87948   1359445.09046  21428496.0084                   21428494.0984
   -587580.15648   -438612.19546  21062112.5704                   21062108.2034
   2370079.07846   1838509.55944  24443910.5944                   24443908.6684
   2358189.21548   1830065.23445  21956550.1724                   21956548.6374
   1000571.94148    785578.21146  20336458.3524                   20336454.9184
 11  8  2 15 17 45.0000000  0  8G03G06G13G20G23G31G32G16
  -1168880.67247   -883996.98844  22655334.7504                   22655333.9924
   -579567.85247   -430783.60944  22892264.3674                   22892263.7344
  -1152005.61747   -871985.81644  22872184.6484                   22872183.1294
   1752074.46548   1364342.92646  21429692.2034                   21429689.8094
   -634590.11748   -475243.33646  21053167.0084                   21053162.2384
   2387007.65247   1851700.59444  24447131.9774                   24447130.3404
   2377266.40647   1844930.54745  21960180.2194                   21960179.0354
    990877.03548    778023.73047  20334613.6564                   20334610.3324
 11  8  2 15 18  0.0000000  0  8G03G06G13G20G23G31G32G16
  -1227747.98447   -929867.61745  22644132.5314                   22644131.6024
   -625021.23847   -466201.82044  22883614.5704                   22883614.3244
  -1211316.89147   -918202.39844  22860898.1804                   22860896.4774
   1758459.78547   1369318.47746  21430907.0554                   21430905.0084
   -681561.02748   -511844.04746  21044228.2424                   21044224.0124
   2403900.95346   1864864.16444  24450346.4454                   24450344.7704
   2396409.23048   1859847.00045  21963822.8594                   21963821.2504
    981307.65647    770567.06346  20332792.3754                   20332789.6454
 11  8  2 15 18 15.0000000  0  8G03G06G13G20G23G31G32G16
  -1286577.23447   -975708.58245  22632938.1334                   22632936.9694
   -670410.09047   -501569.75044  22874977.8754                   22874977.2774
  -1270627.73047   -964418.62144  22849611.8984                   22849610.3984
   1764954.74648   1374379.46546  21432143.2344                   21432140.8444
   -728482.56648   -548406.28546  21035299.7344                   21035295.4494
   2420769.17646   1878008.19144  24453556.7194                   24453554.8794
   2415627.31348   1874822.10945  21967479.8914                   21967477.9654
    971873.73848    763215.95746  20330997.3594                   20330994.3284
 11  8  2 15 18 30.0000000  0  8G03G06G13G20G23G31G32G16
  -1345370.01247  -1021521.13745  22621750.2894                   22621748.9614
   -715736.25447   -536888.81644  22866352.3754                   22866351.9494
  -1329940.03147  -1010635.99244  22838324.6954                   22838322.9454
   1771556.98048   1379524.03946  21433399.5704                   21433397.1914
   -775356.56248   -584931.46946  21026379.6644                   21026375.4064
   2437610.04746   1891130.91844  24456760.6644                   24456759.4534
   2434918.46547   1889854.14845  21971151.0004                   21971149.7344
    962573.09848    755968.69546  20329227.5944                   20329224.2814
 11  8  2 15 18 45.0000000  0  8G03G06G13G20G23G31G32G16
  -1404126.96147  -1067305.77745  22610568.9224                   22610568.3674
   -761000.35247   -572159.52344  22857738.3204                   22857738.1724
  -1389254.43047  -1056854.99644  22827037.9694                   22827035.9454
   1778265.18048   1384751.18046  21434676.2894                   21434673.9534
   -822183.47748   -621419.96946  21017468.9064                   21017464.7424
   2454422.79746   1904231.73444  24459960.3364                   24459959.2974
   2454281.46548   1904942.16845  21974835.7424                   21974834.0314
    953404.67248    748824.46946  20327482.5864                   20327479.3484
 11  8  2 15 19  0.0000000  0  8G03G06G13G20G23G31G32G16
  -1462843.47347  -1113058.89845  22599395.3834                   22599394.6334
   -806197.91447   -607378.39144  22849138.2344                   22849137.4224
  -1448566.60947  -1103072.24244  22815750.5394                   22815749.1134
   1785083.20348   1390063.90646  21435973.9064                   21435971.4224
   -868959.19948   -657868.59046  21008567.8054                   21008563.4454
   2471211.46546   1917313.75044  24463155.4614                   24463154.0784
   2473720.07047   1920089.10945  21978534.3984                   21978533.4614
    944372.39148    741786.33246  20325764.0784                   20325760.8054
 11  8  2 15 19 15.0000000  0  8G03G06G13G20G23G31G32G16
  -1521524.86747  -1158784.66445  22588228.9844                   22588227.8914
   -851334.10247   -642549.43444  22840548.8674                   22840548.0904
  -1507881.82447  -1149291.89844  22804463.8594                   22804462.1024
   1792005.40248   1395457.80146  21437291.0164                   21437288.8554
   -915688.85948   -694281.30946  20999675.5634                   20999671.1524
   2487970.50046   1930372.70344  24466344.3444                   24466343.4774
   2493228.54347   1935290.47745  21982246.7034                   21982245.6684
    935470.57848    734849.84846  20324069.9614                   20324067.1294
 11  8  2 15 19 30.0000000  0  8G03G06G13G20G23G31G32G16
  -1580169.61747  -1204481.85244  22577069.1804                   22577068.6524
   -896407.37547   -677671.46144  22831972.0394                   22831970.6914
  -1567198.84447  -1195512.93444  22793175.8134                   22793174.6334
   1799032.49248   1400933.43446  21438628.3134                   21438625.8134
   -962371.03948   -730657.03546  20990791.9614                   20990787.2774
   2504701.03547   1943409.44144  24469528.5944                   24469526.7114
   2512807.57047   1950546.82045  21985972.6804                   21985971.7034
    926700.07448    728015.69146  20322401.2424                   20322398.1644
 11  8  2 15 19 45.0000000  0  8G03G06G13G20G23G31G32G16
  -1638775.19547  -1250148.54745  22565917.1024                   22565916.3244
   -941415.36347   -712742.62144  22823407.1644                   22823405.9264
  -1626515.52047  -1241733.70344  22781888.2974                   22781887.2194
   1806166.09848   1406492.06346  21439985.4454                   21439983.6134
  -1009003.56648   -766994.07046  20981918.2584                   20981913.8714
   2521405.00846   1956425.48444  24472707.2894                   24472705.7234
   2532458.76648   1965859.41445  21989712.2194                   21989711.0084
    918062.73848    721285.30147  20320757.5314                   20320754.6604
 11  8  2 15 20  0.0000000  0  8G03G06G13G20G23G31G32G16
  -1697344.78147  -1295787.19945  22554771.5004                   22554771.0744
   -986361.73847   -747765.76644  22814854.0704                   22814853.3444
  -1685835.12947  -1287956.75844  22770600.2734                   22770599.1094
   1813402.40648   1412130.71546  21441362.5784                   21441360.4414
  -1055589.84448   -803295.06246  20973053.2344                   20973048.7624
   2538078.90246   1969418.07844  24475880.0314                   24475878.5234
   2552178.26648   1981225.23045  21993465.0314                   21993463.6254
    909554.81648    714655.74646  20319138.3594                   20319135.5234
 11  8  2 15 20 15.0000000  0  8G03G06G13G20G23G31G32G16
  -1755877.20347  -1341396.86345  22543633.1954                   22543632.5944
  -1031244.70347   -782739.50444  22806313.4454                   22806312.3094
  -1745156.59047  -1334181.27044  22759312.5704                   22759309.9694
   1820742.08648   1417849.91446  21442759.1414                   21442757.1994
  -1102128.57448   -839559.01246  20964197.1334                   20964192.6604
   2554723.62546   1982387.96544  24479046.7504                   24479045.8954
   2571966.78148   1996644.82045  21997230.4534                   21997229.3674
    901177.10548    708127.66046  20317544.2034                   20317541.1094
 11  8  2 15 20 30.0000000  0  8G03G06G13G20G23G31G32G16
  -1814368.69547  -1386974.64844  22532502.2894                   22532501.5984
  -1076061.20747   -817661.45344  22797784.6564                   22797783.9534
  -1804476.48847  -1380404.55144  22748023.8674                   22748021.8364
   1828188.13748   1423652.01246  21444176.0474                   21444174.3834
  -1148616.15248   -875783.09846  20955350.7114                   20955346.5314
   2571342.33647   1995337.56344  24482209.0084                   24482208.3204
   2591827.17247   2012120.41845  22001009.7734                   22001008.6094
    892932.67248    701703.42646  20315975.3914                   20315972.2344
 11  8  2 15 20 45.0000000  0  8G03G06G13G20G23G31G32G16
  -1872821.35247  -1432522.17245  22521379.4694                   22521378.2464
  -1120812.93747   -852532.93044  22789268.5554                   22789268.1844
  -1863797.23847  -1426628.49644  22736735.4844                   22736733.8364
   1835737.55948   1429534.64846  21445612.7584                   21445610.7154
  -1195054.96548   -911969.18446  20946513.9224                   20946509.7234
   2587932.49646   2008264.93444  24485366.4384                   24485365.2584
   2611756.53548   2027649.75845  22004802.0084                   22004801.4694
    884818.66048    695380.82046  20314431.2194                   20314428.1764
 11  8  2 15 21  0.0000000  0  8G03G06G13G20G23G31G32G16
  -1931233.26647  -1478037.94945  22510263.6484                   22510262.8834
  -1165498.46147   -887352.82044  22780765.4844                   22780764.4144
  -1923116.95347  -1472851.64844  22725447.1644                   22725445.3094
   1843391.84448   1435499.00446  21447070.0004                   21447067.6024
  -1241443.00448   -948115.70746  20937686.5784                   20937682.0514
   2604495.66446   2021171.25844  24488518.6644                   24488517.0354
   2631756.27048   2043233.93045  22008607.9064                   22008607.1174
    876836.72748    689161.12946  20312912.5634                   20312909.0744
 11  8  2 15 21 15.0000000  0  8G03G06G13G20G23G31G32G16
  -1989611.35947  -1523527.38345  22499154.8524                   22499154.5004
  -1210124.44947   -922126.31244  22772273.4534                   22772272.6254
  -1982442.79747  -1519079.55944  22714158.0314                   22714156.3284
   1851143.21548   1441538.99646  21448544.5634                   21448542.6024
  -1287787.47748   -984228.29346  20928867.6094                   20928862.9844
   2621024.40646   2034050.75844  24491664.1414                   24491662.6884
   2651818.56348   2058866.84845  22012425.7424                   22012424.7304
    868979.02348    683038.24246  20311417.2114                   20311414.0044
 11  8  2 15 21 30.0000000  0  8G03G06G13G20G23G31G32G16
  -2047955.62947  -1568990.44145  22488052.6414                   22488051.6804
  -1254690.93047   -956853.43444  22763792.5704                   22763791.9104
  -2041774.81247  -1565312.28944  22702866.9534                   22702865.5314
   1858991.03948   1447654.16846  21450038.1644                   21450035.8634
  -1334088.46948  -1020306.99646  20920056.3594                   20920051.9454
   2637518.47746   2046903.24244  24494803.2894                   24494801.5084
   2671942.87548   2074548.10245  22016255.2664                   22016254.2074
    861245.14848    677011.84046  20309945.1094                   20309942.3444
 11  8  2 15 21 45.0000000  0  8G03G06G13G20G23G31G32G16
  -2106258.44547  -1614421.20745  22476957.5864                   22476957.0474
  -1299190.45347   -991528.38744  22755325.0554                   22755323.8404
  -2101105.47747  -1611543.97344  22691577.0314                   22691575.0474
   1866942.45348   1453850.05146  21451551.3524                   21451549.2234
  -1380338.35548  -1056345.87146  20911255.3984                   20911250.9384
   2653985.30946   2059734.48844  24497936.5394                   24497934.8444
   2692136.23048   2090283.16045  22020098.0944                   22020096.9414
    853642.34448    671087.57846  20308498.5634                   20308495.7234
 11  8  2 15 22  0.0000000  0  8G03G06G13G20G23G31G32G16
  -2164518.72347  -1659818.82045  22465870.8754                   22465870.2664
  -1343621.73447  -1026150.16444  22746869.5634                   22746869.0514
  -2160434.03147  -1657774.01244  22680287.2664                   22680285.3674
   1874997.71148   1460126.85246  21453084.1644                   21453081.9844
  -1426536.21948  -1092344.20346  20902464.2894                   20902460.0044
   2670425.37946   2072544.87944  24501064.8364                   24501063.5984
   2712398.84448   2106072.17245  22023953.7734                   22023952.9574
    846170.93848    665265.69946  20307076.9454                   20307073.6604
 11  8  2 15 22 15.0000000  0  8G03G06G13G20G23G31G32G16
  -2222738.85947  -1705185.15245  22454792.1724                   22454791.3954
  -1387987.57047  -1060720.92644  22738426.8364                   22738426.1054
  -2219763.05147  -1704004.40244  22668997.5004                   22668995.2664
   1883153.77748   1466482.21146  21454636.2814                   21454634.4574
  -1472684.66048  -1128304.02346  20893682.8524                   20893678.1724
   2686835.96146   2085332.32844  24504188.2344                   24504186.1094
   2732727.66048   2121912.78145  22027822.2734                   22027821.3954
    838828.00848    659543.94147  20305679.7814                   20305676.3794
 11  8  2 15 22 30.0000000  0  8G03G06G13G20G23G31G32G16
  -2280914.96147  -1750517.18045  22443721.3674                   22443721.1374
  -1432284.08247  -1095237.71144  22729997.6724                   22729996.7704
  -2279088.77347  -1750232.24244  22657707.9614                   22657706.0594
   1891413.89148   1472918.62946  21456208.2344                   21456206.0354
  -1518779.87148  -1164222.38746  20884911.0164                   20884906.5124
   2703220.53146   2098099.48844  24507305.9534                   24507304.6174
   2753125.82048   2137807.40245  22031704.1174                   22031702.8094
    831616.88748    653924.87146  20304307.4844                   20304303.7704
 11  8  2 15 22 45.0000000  0  8G03G06G13G20G23G31G32G16
  -2339051.82447  -1795818.62945  22432659.0004                   22432658.0274
  -1476516.07047  -1129704.18744  22721580.3524                   22721579.6484
  -2338416.27047  -1796461.45344  22646418.2734                   22646416.2704
   1899772.39148   1479431.71946  21457798.4144                   21457795.9384
  -1564826.81648  -1200103.12146  20876148.5474                   20876144.2974
   2719573.89146   2110842.33644  24510417.7974                   24510416.5664
   2773587.75448   2153751.73445  22035597.8364                   22035596.9694
    824531.99648    648404.17246  20302958.8834                   20302956.0084
 11  8  2 15 23  0.0000000  0  8G03G06G13G20G23G31G32G16
  -2397144.17247  -1841085.39545  22421603.9454                   22421603.4844
  -1520678.54747  -1164116.52044  22713177.0944                   22713176.3324
  -2397740.55947  -1842688.16444  22635129.5634                   22635127.0234
   1908233.80548   1486025.00846  21459408.8054                   21459406.7384
  -1610820.28548  -1235942.18746  20867396.5864                   20867391.8634
   2735900.70746   2123564.50444  24513524.7664                   24513522.8404
   2794118.00847   2169749.30545  22039504.8444                   22039503.8914
    817577.94548    642985.42646  20301635.9304                   20301632.6134
 11  8  2 15 23 15.0000000  0  8G03G06G13G20G23G31G32G16
  -2455193.11347  -1886318.32845  22410557.7504                   22410556.8404
  -1564772.34047  -1198475.31244  22704786.0784                   22704785.7894
  -2457062.84847  -1888913.32444  22623840.5784                   22623838.5354
   1916796.34848   1492697.09446  21461037.9614                   21461036.4264
  -1656761.79348  -1271740.77046  20858654.0234                   20858649.2504
   2752199.53146   2136264.83244  24516625.9614                   24516623.8914
   2814714.67248   2185798.62545  22043424.0864                   22043423.1174
    810753.19548    637667.43446  20300336.9144                   20300334.0084
 11  8  2 15 23 30.0000000  0  8G03G06G13G20G23G31G32G16
  -2513197.45747  -1931516.50845  22399519.5394                   22399518.9104
  -1608796.53147  -1232779.88344  22696408.3594                   22696408.1684
  -2516382.03947  -1935136.07044  22612552.5314                   22612550.6484
   1925460.83248   1499448.60946  21462687.0474                   21462685.2274
  -1702649.97748  -1307497.79746  20849921.7504                   20849917.4184
   2768471.32046   2148944.12144  24519722.7114                   24519720.6954
   2835378.48048   2201900.25845  22047356.3754                   22047355.5234
    804058.46148    632450.75446  20299063.2974                   20299060.1724
 11  8  2 15 23 45.0000000  0  8G03G06G13G20G23G31G32G16
  -2571162.53147  -1976684.10245  22388489.3364                   22388488.3984
  -1652756.63347  -1267034.50444  22688043.1484                   22688042.0234
  -2575703.88347  -1981360.88344  22601263.6564                   22601261.8484
   1934220.96548   1506274.66046  21464353.7344                   21464351.9024
  -1748490.30548  -1343217.53546  20841198.6334                   20841194.1604
   2784710.21146   2161597.76644  24522812.9144                   24522811.3484
   2856103.18448   2218049.34045  22051300.3594                   22051299.5084
    797487.69548    627330.67246  20297812.7424                   20297809.6684
 11  8  2 15 24  0.0000000  0  8G03G06G13G20G23G31G32G16
  -2629082.43047  -2021816.48445  22377467.8204                   22377466.5354
  -1696646.37547  -1301234.31244  22679690.8444                   22679690.0004
  -2635022.27347  -2027582.98844  22589976.1174                   22589973.7774
   1943082.10548   1513179.42246  21466040.2584                   21466038.3524
  -1794276.96148  -1378895.44546  20832485.9304                   20832481.3014
   2800921.82446   2174230.16444  24525897.4844                   24525896.3874
   2876894.22347   2234250.11345  22055256.3754                   22055255.6844
    791046.33248    622311.42646  20296586.9144                   20296583.9414
 11  8  2 15 24 15.0000000  0  8G03G06G13G20G23G31G32G16
  -2686956.01647  -2066912.77745  22366454.4774                   22366453.6454
  -1740465.02747  -1335378.71944  22671353.0084                   22671351.7464
  -2694336.58247  -2073801.92644  22578689.1884                   22578686.7974
   1952044.59448   1520163.15646  21467745.8524                   21467743.8164
  -1840009.03548  -1414530.83646  20823783.0474                   20823778.8984
   2817106.79346   2186841.77344  24528978.3134                   24528976.7234
   2897751.78148   2250502.71945  22059225.7504                   22059224.5554
    784734.67248    617393.23846  20295385.9384                   20295382.9844
 11  8  2 15 24 30.0000000  0  8G03G06G13G20G23G31G32G16
  -2744785.69947  -2111974.86745  22355449.9454                   22355449.2114
  -1784215.05947  -1369469.64845  22663027.4844                   22663026.8134
  -2753649.09847  -2120019.46944  22567401.8444                   22567400.2704
   1961105.41848   1527223.51646  21469469.7274                   21469468.2194
  -1885688.86748  -1450125.52046  20815090.6334                   20815086.4884
   2833262.41846   2199430.52744  24532052.4844                   24532050.7974
   2918672.82048   2266804.79745  22063206.7274                   22063205.7194
    778549.91448    612573.93846  20294208.9614                   20294206.0084
 11  8  2 15 24 45.0000000  0  8G03G06G13G20G23G31G32G16
  -2802570.41047  -2157001.91045  22344453.9614                   22344453.1024
  -1827895.42247  -1403506.29744  22654715.3524                   22654714.1914
  -2812959.10547  -2166235.04344  22556115.9454                   22556113.7234
   1970264.99248   1534360.81646  21471213.3834                   21471211.1024
  -1931315.66448  -1485678.86346  20806408.1024                   20806403.5594
   2849389.35646   2211996.95144  24535121.2974                   24535119.6454
   2939657.78148   2283156.67645  22067200.2274                   22067199.0704
    772492.55148    607853.90646  20293056.4774                   20293053.5004
 11  8  2 15 25  0.0000000  0  8G03G06G13G20G23G31G32G16
  -2860309.02047  -2201993.03545  22333466.4614                   22333465.8914
  -1871505.13347  -1437487.88744  22646416.7814                   22646415.9454
  -2872265.76247  -2212448.02045  22544829.9454                   22544828.1414
   1979523.54348   1541575.25046  21472974.7114                   21472972.7704
  -1976888.53148  -1521190.18746  20797736.0004                   20797731.2854
   2865488.33646   2224541.58243  24538184.0234                   24538183.0234
   2960706.91048   2299558.56345  22071205.8674                   22071204.8444
    766562.93448    603233.42246  20291927.8984                   20291924.8404
 11  8  2 15 25 15.0000000  0  8G03G06G13G20G23G31G32G16
  -2917999.47747  -2246946.61745  22322488.0004                   22322487.5314
  -1915042.21547  -1471412.89845  22638131.8284                   22638131.1724
  -2931567.13347  -2258656.85944  22533545.0314                   22533543.6214
   1988882.42248   1548867.85246  21474756.0554                   21474753.5784
  -2022405.42248  -1556657.89546  20789074.2194                   20789069.7274
   2881560.83646   2237065.55143  24541242.8134                   24541241.0434
   2981821.56347   2316011.50045  22075223.5704                   22075222.8594
    760762.55148    598713.63346  20290824.3984                   20290820.9774
 11  8  2 15 25 30.0000000  0  8G03G06G13G20G23G31G32G16
  -2975643.95347  -2291864.38345  22311518.9614                   22311518.6484
  -1958508.76647  -1505282.93444  22629860.9614                   22629859.5514
  -2990865.43047  -2304863.33645  22522261.2034                   22522259.4494
   1998338.95748   1556236.55946  21476555.2424                   21476553.1214
  -2067868.61748  -1592083.75846  20780422.9064                   20780418.7934
   2897604.42246   2249567.00043  24544296.2034                   24544294.3164
   3002998.94948   2332513.32845  22079253.8914                   22079252.9924
    755088.70748    594292.44546  20289744.5704                   20289741.3204
 11  8  2 15 25 45.0000000  0  8G03G06G13G20G23G31G32G16
  -3033242.35947  -2336746.25045  22300558.6174                   22300557.6604
  -2001904.39147  -1539097.71944  22621602.8054                   22621601.6644
  -3050160.56647  -2351067.32045  22510977.8674                   22510976.0824
   2007892.42248   1563680.79346  21478373.4384                   21478371.3324
  -2113278.04348  -1627467.73046  20771781.8834                   20771777.4534
   2913619.04346   2262045.88344  24547343.1414                   24547342.3284
   3024238.55148   2349063.62945  22083295.4064                   22083294.6254
    749540.93448    589969.50046  20288688.9924                   20288685.8594
 11  8  2 15 26  0.0000000  0  8G03G06G13G20G23G31G32G16
  -3090792.34847  -2381590.38345  22289606.8444                   22289606.2934
  -2045227.47347  -1572855.96544  22613358.4534                   22613357.6954
  -3109450.75847  -2397267.45745  22499695.0394                   22499693.2274
   2017544.47748   1571201.85946  21480209.9144                   21480208.4574
  -2158631.59048  -1662808.16046  20763151.5944                   20763146.9024
   2929606.27346   2274503.43443  24550385.6644                   24550384.4064
   3045541.70347   2365663.44945  22087349.3054                   22087348.3674
    744120.87948    585746.07046  20287657.3524                   20287653.9494
 11  8  2 15 26 15.0000000  0  8G03G06G13G20G23G31G32G16
  -3148297.08247  -2426399.26245  22278664.1174                   22278663.4304
  -2088480.98047  -1606560.00045  22605127.7504                   22605127.0044
  -3168739.21147  -2443466.25044  22488413.0784                   22488411.4024
   2027291.26248   1578796.72746  21482064.5944                   21482062.3164
  -2203932.61348  -1698107.65246  20754530.9844                   20754526.6134
   2945562.67246   2286936.94543  24553421.9144                   24553420.7704
   3066904.68047   2382309.89545  22091414.5394                   22091413.6684
    738824.85548    581619.29346  20286649.8284                   20286646.8874
 11  8  2 15 26 30.0000000  0  8G03G06G13G20G23G31G32G16
  -3205753.01647  -2471170.10945  22267730.7504                   22267730.0634
  -2131661.16847  -1640206.90244  22596910.8204                   22596909.6724
  -3228022.40247  -2489660.94145  22477131.9774                   22477130.0474
   2037135.72348   1586467.70745  21483938.4384                   21483936.2734
  -2249177.35248  -1733363.29746  20745920.8134                   20745916.6764
   2961491.60546   2299349.08243  24556453.6094                   24556452.2584
   3088330.46147   2399005.27045  22095491.9694                   22095491.0554
    733655.94148    577591.56346  20285666.3284                   20285662.8634
 11  8  2 15 26 45.0000000  0  8G03G06G13G20G23G31G32G16
  -3263157.37947  -2515900.76645  22256806.9534                   22256806.3324
  -2174765.66047  -1673794.82445  22588708.1254                   22588707.1884
  -3287297.77347  -2535849.53145  22465851.9224                   22465850.4654
   2047079.85548   1594216.36345  21485830.5234                   21485828.2734
  -2294363.30948  -1768573.12946  20737322.3914                   20737317.7584
   2977395.43046   2311741.62543  24559479.9064                   24559478.7734
   3109820.93448   2415751.06345  22099581.0164                   22099580.3834
    728616.12948    573664.42246  20284707.0084                   20284703.7234
 11  8  2 15 27  0.0000000  0  7G03G06G13G20G23G32G16
  -3320512.52347  -2560593.07845  22245893.0554                   22245892.0704
  -2217797.03547  -1707325.77744  22580519.8204                   22580518.8284
  -3346568.10247  -2582034.19945  22454573.2114                   22454571.6954
   2057120.52048   1602040.23446  21487741.3284                   21487739.1374
  -2339493.11348  -1803739.21546  20728734.3524                   20728730.0664
   3131372.86348   2432544.73445  22103682.6414                   22103681.8324
    723702.46548    569835.58646  20283771.4224                   20283768.6994
 11  8  2 15 27 15.0000000  0  7G03G06G13G20G23G32G16
  -3377820.59447  -2605248.71145  22234987.4064                   22234986.7814
  -2260757.64147  -1740801.57445  22572344.5004                   22572343.6994
  -3405835.72747  -2628216.76645  22443294.4384                   22443292.9774
   2067254.71948   1609936.98846  21489669.5084                   21489667.6724
  -2384569.23448  -1838863.47346  20720156.9774                   20720152.5904
   3152983.32448   2449384.01645  22107795.0314                   22107794.4344
    718911.94148    566102.70346  20282860.3594                   20282857.3874
 11  8  2 15 27 30.0000000  0  7G03G06G13G20G23G32G16
  -3435081.48847  -2649867.57845  22224091.1024                   22224090.0004
  -2303646.99647  -1774221.84445  22564183.4064                   22564181.9804
  -3465100.60247  -2674397.18445  22432016.9694                   22432015.8634
   2077482.03548   1617906.30146  21491615.9224                   21491613.8794
  -2429591.48848  -1873945.74646  20711589.2664                   20711585.1414
   3174651.96548   2466268.64145  22111918.6174                   22111917.6724
    714244.22748    562465.52046  20281971.9454                   20281968.8594
 11  8  2 15 27 45.0000000  0  7G03G06G13G20G23G32G16
  -3492289.78947  -2694445.48845  22213204.3444                   22213203.7894
  -2346460.02347  -1807582.65245  22556035.3754                   22556034.7894
  -3524357.64847  -2720571.49645  22420741.1334                   22420739.3954
   2087807.15248   1625951.82846  21493580.7664                   21493578.8204
  -2474554.68748  -1908982.00446  20703033.1024                   20703028.7544
   3196383.37947   2483202.17245  22116054.3364                   22116053.1844
    709704.10948    558927.75446  20281107.9304                   20281104.8364
 11  8  2 15 28  0.0000000  0  7G03G06G13G20G23G32G16
  -3549449.85947  -2738985.77345  22202327.5394                   22202326.7074
  -2389200.82447  -1840887.18044  22547901.9064                   22547901.6724
  -3583610.96947  -2766742.91445  22409465.4144                   22409464.1804
   2098225.02048   1634069.62546  21495562.8594                   21495561.4344
  -2519462.94148  -1943975.45346  20694487.2584                   20694482.8204
   3218172.55148   2500180.71145  22120200.2814                   22120199.1054
    705286.80148    555485.69146  20280267.6804                   20280264.7854
 11  8  2 15 28 15.0000000  0  7G03G06G13G20G23G32G16
  -3606558.34847  -2783485.89545  22191459.8054                   22191459.5984
  -2431866.55147  -1874133.19945  22539783.5704                   22539782.6604
  -3642857.61747  -2812909.12145  22398191.2344                   22398189.8284
   2108738.31648   1642261.78546  21497564.1564                   21497561.9224
  -2564313.12548  -1978923.65246  20685952.6484                   20685948.1884
   3240022.19947   2517206.37545  22124357.9774                   22124357.9064
    700994.90248    552141.34446  20279450.8444                   20279447.6564
 11  8  2 15 28 30.0000000  0  7G03G06G13G20G23G32G16
  -3663614.23447  -2827945.01645  22180602.8984                   22180601.6524
  -2474455.77747  -1907319.60945  22531678.9064                   22531678.2974
  -3702096.62947  -2859069.38745  22386918.2344                   22386916.6294
   2119347.25448   1650528.46546  21499582.6644                   21499580.8554
  -2609104.45348  -2013825.99646  20677429.2194                   20677424.8284
   3261932.50847   2534279.29745  22128527.4534                   22128526.7234
    696828.82048    548895.03546  20278658.1954                   20278654.9024
 11  8  2 15 28 45.0000000  0  7G03G06G13G20G23G32G16
  -3720617.49647  -2872363.13745  22169754.9924                   22169754.2774
  -2516968.98847  -1940446.79344  22523588.7664                   22523588.0944
  -3761328.17247  -2905223.82845  22375646.7034                   22375645.0664
   2130051.22747   1658869.19146  21501619.4534                   21501617.5904
  -2653837.09848  -2048682.59846  20668916.6024                   20668912.6174
   3283902.75048   2551398.92645  22132708.2034                   22132707.7274
    692787.98848    545746.33246  20277889.0004                   20277885.6294
 11  8  2 15 29  0.0000000  0  7G03G06G13G20G23G32G16
  -3777566.40247  -2916738.90245  22158918.2814                   22158916.8014
  -2559404.25847  -1973513.23845  22515514.0314                   22515513.2544
  -3820550.75447  -2951371.29345  22364377.4454                   22364375.6454
   2140851.32048   1667284.82446  21503674.6724                   21503672.9384
  -2698509.29748  -2083492.10546  20660415.7194                   20660411.7504
   3305933.85948   2568565.99645  22136900.6884                   22136899.8364
    688873.51248    542696.08246  20277144.7424                   20277141.0864
 11  8  2 15 29 15.0000000  0  7G03G06G13G20G23G32G16
  -3834463.86748  -2961074.59445  22148091.2504                   22148090.0744
  -2601765.06247  -2006521.64845  22507453.0784                   22507452.2664
  -3879767.53947  -2997514.23445  22353108.3754                   22353106.6644
   2151743.65248   1675772.32846  21505747.4924                   21505745.4734
  -2743124.34048  -2118257.07046  20651926.1024                   20651921.8244
   3328022.12547   2585777.59445  22141104.0554                   22141102.9304
    685081.62948    539741.35546  20276422.6804                   20276419.3364
 11  8  2 15 29 30.0000000  0  7G03G06G13G20G23G32G16
  -3891307.63747  -3005368.43745  22137274.2974                   22137272.9184
  -2644048.81647  -2039470.00845  22499406.7194                   22499405.9264
  -3938976.33247  -3043650.95345  22341841.2424                   22341839.8164
   2162729.80147   1684332.94146  21507837.7894                   21507836.1994
  -2787680.03148  -2152975.80146  20643447.5864                   20643443.1724
   3350169.15647   2603034.98445  22145318.3284                   22145317.5204
    681414.16048    536883.58246  20275724.6884                   20275721.5704
 11  8  2 15 29 45.0000000  0  7G03G06G13G20G23G32G16
  -3948097.66447  -3049620.40245  22126467.0394                   22126466.6884
  -2686255.77047  -2072358.54745  22491374.8834                   22491374.0784
  -3998177.20747  -3089781.50845  22330575.6334                   22330574.1954
   2173809.23448   1692966.23446  21509946.6484                   21509944.3794
  -2832176.20748  -2187648.14846  20634980.1024                   20634975.9734
   3372374.53148   2620337.83245  22149543.4614                   22149543.3984
    677870.55548    534122.31646  20275050.3284                   20275047.4104
 11  8  2 15 30  0.0000000  0  7G03G06G13G20G23G32G16
  -4004833.16847  -3093829.88345  22115670.5314                   22115670.0744
  -2728385.19547  -2105186.66045  22483358.1334                   22483357.6644
  -4057369.62947  -3135905.46544  22319311.7274                   22319309.9414
   2184981.91847   1701672.19546  21512072.5784                   21512070.8134
  -2876612.36748  -2222273.73046  20626524.2274                   20626520.0274
   3394638.02048   2637685.96945  22153780.5704                   22153780.3874
    674450.79748    531457.55946  20274399.3914                   20274396.7114
 11  8  2 15 30 15.0000000  0  7G03G06G13G20G23G32G16
  -4061515.21147  -3137997.71945  22104884.9774                   22104883.8204
  -2770438.21147  -2137955.23845  22475355.8054                   22475354.8324
  -4116555.07847  -3182024.00044  22308049.5394                   22308047.2734
   2196246.25047   1710449.57046  21514216.4694                   21514214.5704
  -2920989.55548  -2256853.35946  20618079.3054                   20618074.8404
   3416957.90248   2655078.04345  22158028.2424                   22158027.2664
    671153.29348    528888.07046  20273771.9454                   20273768.8634
 11  8  2 15 30 30.0000000  0  7G03G06G13G20G23G32G16
  -4118142.59847  -3182122.95745  22094108.9304                   22094107.5824
  -2812413.90247  -2170663.55145  22467367.5474                   22467367.0744
  -4175732.25447  -3228136.07845  22296788.3444                   22296786.6094
   2207602.39548   1719298.49245  21516377.7194                   21516375.2854
  -2965306.96948  -2291386.41046  20609646.2664                   20609641.5234
   3439334.50048   2672514.31645  22162286.2194                   22162285.3524
    667978.61748    526414.28946  20273167.9694                   20273164.9184
 11  8  2 15 30 45.0000000  0  7G03G06G13G20G23G32G16
  -4174716.90248  -3226206.83245  22083342.7344                   22083342.1884
  -2854313.23047  -2203312.37145  22459394.5164                   22459394.0234
  -4234902.68747  -3274242.90645  22285528.9304                   22285526.2704
   2219048.50048   1728217.51246  21518555.4224                   21518553.6954
  -3009565.99248  -2325873.96546  20601223.8364                   20601219.1954
   3461765.92648   2689993.31645  22166554.7034                   22166553.8634
    664924.83248    524034.70346  20272587.1334                   20272583.8524
 11  8  2 15 31  0.0000000  0  7G03G06G13G20G23G32G16
  -4231235.79347  -3270247.53145  22072587.5784                   22072586.9184
  -2896134.12547  -2235900.06245  22451436.4924                   22451435.4964
  -4294064.45347  -3320342.99245  22274270.8914                   22274268.7664
   2230585.80148   1737207.59446  21520750.8364                   21520748.6024
  -3053764.46148  -2360314.34046  20592813.2424                   20592808.9144
   3484253.43848   2707516.01245  22170833.7584                   22170832.9884
    661993.36348    521750.43846  20272029.1334                   20272025.7584
 11  8  2 15 31 15.0000000  0  7G03G06G13G20G23G32G16
  -4287697.71547  -3314243.82445  22061843.4844                   22061842.6524
  -2937875.41047  -2268425.72745  22443492.9064                   22443492.5784
  -4353216.10947  -3366435.18045  22263014.3754                   22263012.6174
   2242215.30947   1746269.51646  21522964.0004                   21522961.8954
  -3097901.08648  -2394706.51646  20584414.2194                   20584409.7814
   3506798.00047   2725083.16445  22175123.8444                   22175123.4224
    659185.16448    519562.21946  20271494.8834                   20271491.5944
 11  8  2 15 31 30.0000000  0  7G03G06G13G20G23G32G16
  -4344103.98048  -3358196.76245  22051109.7584                   22051108.7034
  -2979538.44947  -2300890.41045  22435565.1254                   22435564.2814
  -4412359.17647  -3412520.67244  22251759.6254                   22251757.9734
   2253935.00847   1755401.71945  21525194.1174                   21525191.8094
  -3141977.21148  -2429051.55546  20576026.9224                   20576022.6174
   3529397.53547   2742693.15645  22179425.1024                   22179423.9884
    656498.34847    517468.59446  20270983.4454                   20270980.6524
 11  8  2 15 31 45.0000000  0  7G03G06G13G20G23G32G16
  -4400454.82448  -3402106.52045  22040386.4614                   22040385.5434
  -3021123.91447  -2333294.64845  22427652.0704                   22427650.2424
  -4471494.12147  -3458599.85244  22240506.8754                   22240504.5904
   2265743.72347   1764603.30146  21527441.2034                   21527439.1214
  -3185993.15248  -2463349.68746  20567650.8204                   20567646.6684
   3552050.98447   2760345.15645  22183735.5704                   22183734.6724
    653932.07048    515468.88746  20270494.9924                   20270491.9884
 11  8  2 15 32  0.0000000  0  7G03G06G13G20G23G32G16
  -4456750.31248  -3445973.14545  22029673.8524                   22029672.7274
  -3062631.41047  -2365638.14545  22419753.0554                   22419752.1844
  -4530621.30547  -3504672.98444  22229255.1484                   22229253.0354
   2277640.76647   1773873.69546  21529705.1564                   21529703.0664
  -3229949.21948  -2497601.16846  20559286.4304                   20559281.7344
   3574757.59048   2778038.57845  22188056.2814                   22188055.2154
    651485.56648    513562.51646  20270029.3444                   20270026.4414
 11  8  2 15 32 15.0000000  0  7G03G06G13G20G23G32G16
  -4512989.86348  -3489796.18445  22018971.5234                   22018971.0204
  -3104060.63347  -2397920.62545  22411869.2034                   22411868.3364
  -4589739.69147  -3550739.25845  22218005.5084                   22218003.4454
   2289626.21147   1783212.96945  21531986.3204                   21531984.1644
  -3273844.71948  -2531805.46546  20550933.3054                   20550928.8984
   3597517.47748   2795773.51645  22192387.2734                   22192386.3594
    649158.80948    511749.44946  20269586.9454                   20269583.7734
 11  8  2 15 32 30.0000000  0  7G03G06G13G20G23G32G16
  -4569170.84048  -3533573.56645  22008281.0474                   22008280.2384
  -3145408.95347  -2430140.07045  22404000.8204                   22403999.9534
  -4648847.09447  -3596796.97345  22206757.6484                   22206755.4384
   2301701.81347   1792622.50845  21534283.6414                   21534281.7504
  -3317677.31248  -2565960.74246  20542592.4534                   20542587.9534
   3620332.39848   2813551.34045  22196729.0474                   22196728.5354
    646953.86748    510031.30146  20269166.9064                   20269164.3134
 11  8  2 15 32 45.0000000  0  7G03G06G13G20G23G32G16
  -4625292.52347  -3577304.74645  21997601.4064                   21997600.4804
  -3186675.87147  -2462296.09045  22396147.9064                   22396147.0984
  -4707943.07447  -3642845.79344  22195512.0234                   22195509.7424
   2313867.43047   1802102.19145  21536598.8754                   21536596.8054
  -3361446.44548  -2600066.56246  20534263.2974                   20534258.9184
   3643202.25448   2831371.96945  22201081.0944                   22201080.3674
    644870.78148    508408.10946  20268770.9924                   20268767.7194
 11  8  2 15 33  0.0000000  0  7G03G06G13G20G23G32G16
  -4681358.09848  -3620992.21545  21986932.2274                   21986931.2814
  -3227864.35547  -2494390.99245  22388310.4144                   22388309.0784
  -4767030.79747  -3688888.16445  22184267.9224                   22184266.2194
   2326119.47747   1811649.20345  21538930.7034                   21538928.4534
  -3405155.12948  -2634125.28146  20525945.7974                   20525941.0704
   3666123.19548   2849232.39545  22205442.9384                   22205442.1724
    642905.75848    506876.90646  20268396.5084                   20268393.5594
 11  8  2 15 33 15.0000000  0  7G03G06G13G20G23G32G16
  -4737367.00048  -3664635.51645  21976274.0004                   21976273.3244
  -3268974.62947  -2526424.95345  22380486.7814                   22380485.9024
  -4826110.16047  -3734924.02745  22173025.5634                   22173023.3484
   2338457.41847   1821263.16045  21541278.5004                   21541276.2504
  -3448803.40648  -2668136.93446  20517639.7424                   20517635.3714
   3689094.77047   2867132.28545  22209814.3834                   22209813.1524
    641058.48847    505437.46546  20268045.4224                   20268042.3204
 11  8  2 15 33 30.0000000  0  8G03G06G13G20G23G19G32G16
  -4793317.75448  -3708233.51245  21965626.9384                   21965626.1294
  -3310004.73447  -2558396.44545  22372679.1024                   22372678.2384
  -4885179.60247  -3780952.16045  22161785.2734                   22161782.6454
   2350882.17247   1830944.75845  21543642.5084                   21543640.8554
  -3492389.61748  -2702100.22346  20509345.7734                   20509341.1914
   1428076.73456   1142338.89153  24153690.4304                   24153689.9494
   3712117.99647   2885072.41845  22214195.4694                   22214194.2974
    639329.95348    504090.53946  20267716.3364                   20267713.6724
 11  8  2 15 33 45.0000000  0  8G03G06G13G20G23G19G32G16
  -4849211.22748  -3751786.85945  21954990.7584                   21954990.1684
  -3350955.71147  -2590306.27745  22364886.3204                   22364885.5274
  -4944240.15247  -3826973.37145  22150545.8054                   22150544.3164
   2363392.33247   1840692.90646  21546023.2344                   21546021.6644
  -3535914.66448  -2736015.85546  20501063.0554                   20501058.5984
   1364782.43846   1093018.71944  24141646.0864                   24141645.1214
   3735191.44947   2903051.69945  22218586.0704                   22218585.4264
    637718.77348    502835.05946  20267409.7194                   20267406.6174
 11  8  2 15 34  0.0000000  0  8G03G06G13G20G23G19G32G16
  -4905044.84848  -3795293.57845  21944366.5004                   21944365.2384
  -3391825.18447  -2622152.60945  22357109.1724                   22357108.4494
  -5003289.37147  -3872985.74645  22139309.2894                   22139307.0234
   2375989.59047   1850508.93045  21548420.6334                   21548418.9144
  -3579375.99648  -2769881.83246  20492792.6804                   20492788.2034
   1301455.33646   1043672.95344  24129594.9454                   24129594.3874
   3758316.82448   2921071.43045  22222987.0864                   22222986.2424
    636226.77748    501672.45746  20267126.0474                   20267122.6564
 11  8  2 15 34 15.0000000  0  8G03G06G13G20G23G19G32G16
  -4960819.94948  -3838754.69945  21933752.8284                   21933752.0394
  -3432614.37947  -2653936.38745  22349346.9924                   22349346.5044
  -5062328.80147  -3918990.49245  22128074.7194                   22128072.4884
   2388671.87147   1860391.20345  21550834.0164                   21550832.1524
  -3622775.30548  -2803699.48046  20484533.9384                   20484529.2934
   1238094.31346    994300.76244  24117538.5164                   24117537.2624
   3781491.97747   2939129.94145  22227397.1484                   22227396.3284
    634851.94948    500601.14546  20266864.2974                   20266861.3714
 11  8  2 15 34 30.0000000  0  8G03G06G13G20G23G19G32G16
  -5016536.19548  -3882169.93745  21923150.1094                   21923149.1334
  -3473323.12547  -2685657.46945  22341600.8674                   22341600.0704
  -5121358.27347  -3964987.48045  22116841.6804                   22116839.2814
   2401438.91447   1870339.52045  21553263.4064                   21553260.8754
  -3666112.35948  -2837468.62546  20476287.0164                   20476282.8914
   1174699.72746    944902.40243  24105474.1644                   24105473.1524
   3804716.60547   2957227.02045  22231816.5634                   22231815.8484
    633594.01648    499620.92646  20266625.0704                   20266622.0274
 11  8  2 15 34 45.0000000  0  8G03G06G13G20G23G19G32G16
  -5072195.71148  -3925540.98445  21912558.5314                   21912557.8284
  -3513954.05947  -2717317.92245  22333868.9064                   22333868.1174
  -5180380.20347  -4010978.59045  22105610.0314                   22105608.1214
   2414287.51647   1880351.39545  21555708.8204                   21555706.4734
  -3709389.46148  -2871191.05146  20468052.1884                   20468047.2344
   1111269.11346    895475.96944  24093404.1254                   24093403.4064
   3827987.65647   2975360.27045  22236244.6884                   22236244.2504
    632450.18848    498729.62146  20266407.3834                   20266404.2584
 11  8  2 15 35  0.0000000  0  8G03G06G13G20G23G19G32G16
  -5127792.50848  -3968863.15245  21901978.8134                   21901978.0554
  -3554500.63347  -2748912.65245  22326153.3524                   22326151.8404
  -5239388.54347  -4056959.11345  22094381.3134                   22094379.4964
   2427223.10947   1890431.05945  21558170.3674                   21558167.7154
  -3752600.63348  -2904862.10246  20459829.3444                   20459824.4614
   1047808.71546    846026.34444  24081328.0394                   24081327.4734
   3851310.51247   2993533.88345  22240683.1334                   22240682.5744
    631425.83647    497931.40646  20266212.6024                   20266209.3554
 11  8  2 15 35 15.0000000  0  8G03G06G13G20G23G19G32G16
  -5183327.78548  -4012137.38745  21891410.7424                   21891410.0664
  -3594964.59847  -2780443.00045  22318453.4454                   22318452.2704
  -5298384.60547  -4102930.07045  22083154.7194                   22083152.6804
   2440243.84447   1900577.05145  21560647.8914                   21560645.6214
  -3795747.27348  -2938482.87146  20451618.8674                   20451614.2504
    984317.11346    796552.39544  24069246.0394                   24069245.0904
   3874683.36747   3011746.45745  22245130.8984                   22245129.7154
    630519.03148    497224.79346  20266039.7894                   20266036.9804
 11  8  2 15 35 30.0000000  0  8G03G06G13G20G23G19G32G16
  -5238801.25448  -4055363.45745  21880854.3594                   21880854.0274
  -3635345.82447  -2811908.88345  22310768.6414                   22310767.8524
  -5357368.44147  -4148891.48445  22071930.5084                   22071928.4224
   2453349.19147   1910788.98045  21563141.7894                   21563139.7234
  -3838829.18448  -2972053.19546  20443420.4304                   20443415.9454
    920794.43846    747054.20743  24057157.7664                   24057156.8284
   3898105.51647   3029997.44145  22249588.0864                   22249587.2854
    629729.51648    496609.57046  20265889.4454                   20265886.3714
 11  8  2 15 35 45.0000000  0  8G03G06G13G20G23G19G32G16
  -5294214.33248  -4098542.45745  21870309.2504                   21870308.8484
  -3675645.60947  -2843311.29745  22303099.9844                   22303098.7034
  -5416341.42647  -4194844.46145  22060708.3914                   22060705.9144
   2466537.13747   1921065.27746  21565651.4454                   21565649.2664
  -3881847.75848  -3005574.16846  20435234.1564                   20435229.7234
    857239.50446    697530.92243  24045064.2424                   24045062.6174
   3921575.03547   3048285.33645  22254054.0084                   22254053.2704
    629055.33248    496084.21546  20265761.1094                   20265758.1414
 11  8  2 15 36  0.0000000  0  8G03G06G13G20G23G19G32G16
  -5349564.62548  -4141672.54345  21859777.2664                   21859776.2584
  -3715861.49647  -2874648.34045  22295446.9454                   22295446.1024
  -5475301.34447  -4240787.24245  22049488.8134                   22049486.4534
   2479809.30547   1931407.20345  21568176.6414                   21568174.7504
  -3924800.81648  -3039044.09446  20427060.6724                   20427055.9224
    793654.53946    647984.20344  24032964.2344                   24032962.6414
   3945093.52748   3066611.39845  22258529.5634                   22258529.0594
    628498.03148    495649.93846  20265655.4694                   20265652.4774
 11  8  2 15 36 15.0000000  0  8G03G06G13G20G23G19G32G16
  -5404853.80948  -4184754.99645  21849255.5634                   21849255.0664
  -3755995.44547  -2905921.54745  22287810.3444                   22287808.7774
  -5534250.02047  -4286721.26645  22038271.0004                   22038269.0664
   2493163.17647   1941812.78945  21570717.9384                   21570716.1604
  -3967690.07848  -3072464.30546  20418898.9224                   20418894.3444
    730037.68846    598412.62543  24020857.5634                   24020856.7304
   3968658.65247   3084973.78945  22263014.0474                   22263013.4104
    628055.43448    495305.04346  20265571.1564                   20265567.8484
 11  8  2 15 36 30.0000000  0  9G03G06G13G20G23G19G32G07G16
  -5460080.66048  -4227788.89145  21838746.1094                   21838745.3914
  -3796046.43447  -2937130.10245  22280187.8524                   22280187.1804
  -5593186.44147  -4332645.75445  22027055.7664                   22027053.4774
   2506599.25047   1952282.42245  21573275.0634                   21573272.9884
  -4010514.48048  -3105833.96946  20410749.7194                   20410744.8054
    666390.03946    548817.10543  24008746.2034                   24008745.5984
   3992270.73047   3103372.76645  22267507.0704                   22267506.4694
   1462009.74656   1161935.20753  24358808.6884                   24358808.9774
    627727.95747    495049.85546  20265508.7194                   20265506.1564
 11  8  2 15 36 45.0000000  0  9G03G06G13G20G23G19G32G07G16
  -5515245.07048  -4270774.12545  21828248.8364                   21828248.0274
  -3836014.29747  -2968273.88745  22272582.7504                   22272581.3484
  -5652110.65647  -4378560.72745  22015842.7504                   22015840.4654
   2520117.00447   1962815.71145  21575847.4144                   21575845.1454
  -4053273.96548  -3139153.05946  20402612.7114                   20402609.0634
    602711.93046    499197.81643  23996628.7814                   23996627.3954
   4015929.25847   3121807.94145  22272009.6564                   22272008.5514
   1413387.16846   1124047.55943  24349555.7034                   24349556.5354
    627515.00448    494883.90246  20265468.5704                   20265465.3834
 11  8  2 15 37  0.0000000  0  9G03G06G13G20G23G19G32G07G16
  -5570345.92248  -4313709.83645  21817763.5394                   21817762.2074
  -3875897.92247  -2999352.02345  22264993.4454                   22264992.1334
  -5711021.48847  -4424465.26245  22004632.6644                   22004630.5204
   2533716.84847   1973412.96545  21578435.1644                   21578432.9184
  -4095967.67648  -3172420.89146  20394488.7664                   20394484.1484
    539004.30946    449555.51643  23984505.5474                   23984504.4654
   4039634.60248   3140279.60945  22276520.1414                   22276519.8054
   1364763.12946   1086158.73043  24340303.6484                   24340303.8204
    627417.22748    494807.70346  20265449.6254                   20265446.3554
 11  8  2 15 37 15.0000000  0  9G03G06G13G20G23G19G32G07G16
  -5625378.87148  -4356592.63745  21807291.2584                   21807290.2664
  -3915693.23447  -3030361.36345  22257420.2584                   22257419.1134
  -5769914.89547  -4470356.23845  21993425.6484                   21993423.5004
   2547402.27347   1984076.90245  21581039.4614                   21581037.8284
  -4138591.25048  -3205634.06246  20386377.4694                   20386373.0084
    475271.68046    399893.74644  23972377.7814                   23972376.4184
   4063390.46548   3158790.63745  22281041.1564                   22281040.2274
   1316141.42645   1048271.73043  24331050.5784                   24331051.0664
    627438.34448    494824.14146  20265453.9774                   20265450.6454
 11  8  2 15 37 30.0000000  0  9G03G06G13G20G23G19G32G07G16
  -5680351.85248  -4399428.70345  21796830.2894                   21796829.0664
  -3955408.09447  -3061308.01245  22249862.7814                   22249861.6094
  -5828798.91447  -4516239.87545  21982219.4454                   21982218.2304
   2561164.76247   1994800.89145  21583658.3284                   21583656.6804
  -4181152.64848  -3238798.79346  20378278.7274                   20378273.8014
    411505.96946    350206.19144  23960243.8754                   23960242.0554
   4087188.18047   3177334.28145  22285569.5704                   22285568.7814
   1267513.78946   1010380.10943  24321797.0784                   24321797.7234
    627569.85948    494926.60246  20265479.0234                   20265475.8244
 11  8  2 15 37 45.0000000  0  9G03G06G13G20G23G19G32G07G16
  -4159837.01248  -3214611.91845  22086174.2894                   22086173.5274
  -2419615.77047  -1864586.71545  22542114.4144                   22542113.1334
  -4312245.57847  -3334510.01245  22270810.9694                   22270808.7504
   4150426.77747   3233186.84845  21886085.2664                   21886083.3244
  -2648225.01648  -2044309.73446  20669984.8914                   20669980.3554
   1923135.61746   1528099.45344  24247897.2344                   24247895.7774
   5686449.59448   4423511.95345  22589898.3364                   22589898.1214
   2794307.18446   2200089.28143  24612335.7664                   24612336.5204
   2203235.22348   1722717.77746  20565317.6414                   20565314.7274
 11  8  2 15 38  0.0000000  0  9G03G06G13G20G23G19G32G07G16
  -4214682.88348  -3257348.94145  22075737.3754                   22075736.6604
  -2459163.15247  -1895402.85545  22534588.8984                   22534587.9844
  -4371104.10947  -3380373.80145  22259610.0864                   22259607.9614
   4164348.14847   3244034.63745  21888734.3054                   21888732.1484
  -2690655.41448  -2077372.38746  20661910.6094                   20661906.0554
   1859310.69146   1478365.76643  24235751.6644                   24235750.4734
   5710335.80948   4442124.55545  22594444.1954                   22594443.6374
   2745673.31646   2162192.82043  24603081.3834                   24603082.3404
   2203592.37148   1722996.07446  20565385.8444                   20565382.9884
 11  8  2 15 38 15.0000000  0  9G03G06G13G20G23G19G32G07G16
  -4269468.31648  -3300038.86345  22065312.1334                   22065311.1094
  -2498630.00447  -1926156.24645  22527078.3674                   22527077.3164
  -4429953.23847  -3426230.25845  22248411.2894                   22248409.3984
   4178344.79347   3254941.08645  21891397.8364                   21891395.8914
  -2733023.68048  -2110386.62146  20653848.6644                   20653843.9224
   1795453.00046   1428606.56344  24223599.9064                   24223598.8324
   5734262.15247   4460768.42245  22598997.4844                   22598997.0984
   2697032.35546   2124290.80543  24593825.1724                   24593825.7384
   2204058.29348   1723359.12146  20565474.2974                   20565471.4384
 11  8  2 15 38 30.0000000  0  9G03G06G13G20G23G19G32G07G16
  -4324186.68048  -3342676.52345  22054899.6644                   22054898.3754
  -2538009.94547  -1956841.91845  22519584.6254                   22519583.7734
  -4488786.53147  -3472074.38345  22237215.8204                   22237213.8404
   4192422.41447   3265910.62945  21894076.4924                   21894074.9614
  -2775323.32848  -2143347.38746  20645798.9384                   20645794.4534
   1731568.98046   1378826.84843  24211443.3834                   24211441.7974
   5758234.39148   4479448.03545  22603558.8444                   22603558.6174
   2648390.55546   2086388.16443  24584569.5784                   24584569.3524
   2204638.84848   1723811.48446  20565585.3594                   20565582.0864
 11  8  2 15 38 45.0000000  0  9G03G06G13G20G23G19G32G07G16
  -4378840.03548  -3385263.53545  22044499.5554                   22044498.3984
  -2577304.79747  -1987461.28545  22512107.1564                   22512106.0554
  -4547606.11347  -3517907.82045  22226022.6334                   22226020.9884
   4206578.44547   3276941.27745  21896770.3204                   21896768.6174
  -2817556.41048  -2176256.28946  20637761.9534                   20637757.7814
   1667656.68446   1329025.06643  24199280.6024                   24199279.5354
   5782249.78547   4498161.30145  22608129.1484                   22608128.5474
   2599745.55946   2048482.98443  24575312.2424                   24575312.5124
   2205331.42248   1724351.14146  20565717.1644                   20565713.9454
 11  8  2 15 39  0.0000000  0  9G03G06G13G20G23G19G32G07G16
  -4433423.34848  -3427795.97345  22034112.5864                   22034111.6764
  -2616509.94947  -2018010.74645  22504646.8054                   22504645.5904
  -4606407.00047  -3563726.69145  22214833.4924                   22214831.4574
   4220817.23047   3288036.41045  21899479.5394                   21899478.1254
  -2859718.05148  -2209109.51246  20629739.0554                   20629734.6884
   1603720.98046   1279205.05943  24187113.9774                   24187113.0124
   5806312.56647   4516911.47745  22612708.0394                   22612707.8164
   2551101.88746   2010578.85243  24566056.4064                   24566055.7734
   2206140.60548   1724981.67246  20565870.6884                   20565867.8594
 11  8  2 15 39 15.0000000  0  9G03G06G13G20G23G19G32G07G16
  -4487934.26647  -3470271.99645  22023739.3594                   22023738.5124
  -2655622.97747  -2048488.43745  22497203.7274                   22497202.8324
  -4665187.23847  -3609529.46945  22203647.7664                   22203645.8634
   4235140.21548   3299197.14545  21902205.3914                   21902203.6054
  -2901806.02348  -2241905.34846  20621729.8444                   20621725.4454
   1539764.11746   1229368.56643  24174943.7504                   24174942.4694
   5830424.35947   4535699.84045  22617296.4614                   22617295.7034
   2502461.11346   1972676.98043  24556799.8444                   24556799.5314
   2207067.68048   1725704.05146  20566047.1484                   20566044.6024
 11  8  2 15 39 30.0000000  0  9G03G06G13G20G23G19G32G07G16
  -4542379.29348  -3512696.67245  22013378.6804                   22013378.4104
  -2694650.59047  -2078899.54745  22489776.9614                   22489776.0474
  -4723953.16847  -3655321.10945  22192465.5234                   22192463.1024
   4249540.18447   3310417.87145  21904945.9144                   21904944.1954
  -2943826.96148  -2274648.93046  20613733.7814                   20613729.5124
   1475779.86746   1179510.76643  24162767.7584                   24162766.5594
   5854578.09047   4554520.89845  22621892.9694                   22621892.1954
   2453816.60246   1934772.17643  24547542.4774                   24547542.5514
   2208105.57448   1726512.79346  20566245.0314                   20566241.4694
 11  8  2 15 39 45.0000000  0  9G03G06G13G20G23G19G32G07G16
  -4596760.57048  -3555071.67645  22003030.5084                   22003029.3954
  -2733595.25447  -2109246.03545  22482366.4384                   22482364.7234
  -4782707.26647  -3701103.52045  22181284.1804                   22181283.1374
   4264014.13347   3321696.23845  21907699.8754                   21907698.1454
  -2985783.17248  -2307342.09046  20605749.6954                   20605745.1454
   1411765.76646   1129629.67644  24150586.0704                   24150584.6454
   5878770.72347   4573372.26645  22626496.4144                   22626495.9454
   2405165.57046   1896862.28943  24538284.9384                   24538285.0044
   2209251.47348   1727405.69546  20566462.7194                   20566459.8284
 11  8  2 15 40  0.0000000  0  9G03G06G13G20G23G19G32G07G16
  -4651075.79748  -3597395.21945  21992694.7114                   21992693.5594
  -2772454.28147  -2139525.79345  22474971.6024                   22474970.4264
  -4841447.03147  -3746874.76245  22170106.9144                   22170104.9104
   4278563.91448   3333033.70745  21910468.7584                   21910466.8054
  -3027672.20348  -2339982.90646  20597778.4844                   20597774.0124
   1347724.41446   1079727.36743  24138399.6414                   24138398.2974
   5903004.04747   4592255.33645  22631107.9224                   22631107.1684
   2356510.07846   1858948.92243  24529025.7974                   24529025.9774
   2210507.23448   1728384.19546  20566701.7664                   20566698.9734
 11  8  2 15 40 15.0000000  0  9G03G06G13G20G23G19G32G07G16
  -4705320.30148  -3639663.64845  21982372.4384                   21982371.0594
  -2811223.34447  -2169735.45345  22467593.7814                   22467593.1914
  -4900168.18447  -3792631.50445  22158932.8444                   22158930.6094
   4293193.37548   3344433.26645  21913252.6884                   21913250.8484
  -3069489.50448  -2372567.82446  20589821.0784                   20589816.5164
   1283660.37946   1029807.38743  24126208.6024                   24126207.1884
   5927281.91847   4611173.13345  22635727.7114                   22635727.1174
   2307854.37946   1821035.35943  24519767.8444                   24519766.5664
   2211876.77748   1729451.36746  20566962.1334                   20566959.1914
 11  8  2 15 40 30.0000000  0  9G03G06G13G20G23G19G32G07G16
  -4759493.82848  -3681876.77345  21972063.4694                   21972061.9414
  -2849902.24647  -2199874.84445  22460233.8284                   22460232.5554
  -4958870.47747  -3838373.54745  22147762.1804                   22147759.6414
   4307902.11747   3355894.59845  21916051.8134                   21916050.1454
  -3111235.09848  -2405096.86346  20581876.9614                   20581872.3674
   1219573.73046    979869.78143  24114013.1174                   24114011.7194
   5951603.85247   4630125.23845  22640355.8594                   22640355.4454
   2259198.15246   1783121.44143  24510508.2274                   24510508.1294
   2213359.72748   1730606.89546  20567244.7504                   20567241.8134
 11  8  2 15 40 45.0000000  0  9G03G06G13G20G23G19G32G07G16
  -4813598.67648  -3724036.38345  21961768.0474                   21961766.5514
  -2888493.46947  -2229945.93745  22452889.9064                   22452888.6844
  -5017556.45347  -3884102.87945  22136594.2664                   22136592.5554
   4322686.91048   3367415.19145  21918865.4774                   21918862.8754
  -3152911.59848  -2437572.06646  20573946.3284                   20573941.7814
   1155462.16246    929912.75344  24101813.5084                   24101812.2734
   5975966.75847   4649109.28545  22644992.1094                   22644991.9734
   2210538.62146   1745204.89843  24501249.1334                   24501248.9654
   2214953.03148   1731848.42646  20567547.6254                   20567544.8634
 11  8  2 15 41  0.0000000  0  9G03G06G13G20G23G19G32G07G16
  -4867635.93048  -3766143.32445  21951484.4694                   21951483.5554
  -2926998.16047  -2259949.58645  22445562.7194                   22445562.1134
  -5076227.25047  -3929820.38745  22125429.6024                   22125427.5044
   4337546.09447   3378993.75045  21921692.8754                   21921691.2154
  -3194519.78548  -2469994.03946  20566028.2894                   20566023.8284
   1091324.23846    879935.19944  24089607.9774                   24089607.1414
   6000368.80947   4668123.82845  22649636.1414                   22649635.2814
   2161874.02346   1707284.46143  24491988.2194                   24491987.8134
   2216655.16048   1733174.74246  20567872.0634                   20567868.5664
 11  8  2 15 41 15.0000000  0  9G03G06G13G20G23G19G32G07G16
  -4921602.01648  -3808194.80545  21941214.8134                   21941213.4344
  -2965413.02047  -2289883.24645  22438252.3674                   22438251.5824
  -5134879.55547  -3975523.47745  22114268.2894                   22114266.9384
   4352482.26248   3390632.29345  21924535.2974                   21924533.3244
  -3236056.39548  -2502360.23446  20558124.2894                   20558119.6804
   1027163.93846    829940.20344  24077398.8984                   24077397.3364
   6024812.75447   4687171.02045  22654287.6094                   22654287.1254
   2113207.66446   1669362.61343  24482727.0394                   24482727.1214
   2218468.73848   1734587.91046  20568216.4774                   20568213.6374
 11  8  2 15 41 30.0000000  0  9G03G06G13G20G23G19G32G07G16
  -4975497.71948  -3850191.45345  21930959.2274                   21930958.1294
  -3003738.90247  -2319747.55945  22430959.3834                   22430958.1644
  -5193514.41047  -4021212.96945  22103110.6254                   22103108.3794
   4367493.80947   3402329.58645  21927391.9694                   21927390.0864
  -3277522.44948  -2534671.45746  20550234.0784                   20550229.1564
    962980.18846    779926.92244  24065184.6884                   24065183.3134
   6049297.12947   4706249.71545  22658946.8524                   22658945.9804
   2064538.22346   1631438.40643  24473465.5944                   24473465.5314
   2220392.21148   1736086.71146  20568582.9064                   20568579.8404
 11  8  2 15 41 45.0000000  0  9G03G06G13G20G23G19G32G07G16
  -5029324.02348  -3892134.01645  21920716.2114                   21920715.2464
  -3041976.78147  -2349543.32045  22423683.1804                   22423681.4884
  -5252132.62547  -4066889.48445  22091956.0944                   22091954.5084
   4382579.37147   3414084.54345  21930262.2734                   21930260.4454
  -3318918.80948  -2566928.36346  20542356.0944                   20542351.6024
    898772.19546    729894.77344  24052966.0474                   24052965.0664
   6073820.35947   4725358.69145  22663613.1564                   22663612.5554
   2015864.46946   1593510.82043  24464203.5944                   24464203.7384
   2222424.11747   1737669.99646  20568969.4064                   20568966.4494
 11  8  2 15 42  0.0000000  0  9G03G06G13G20G23G19G32G07G16
  -5083081.39548  -3934022.86745  21910486.5084                   21910485.7344
  -3080127.24247  -2379270.95745  22416423.3444                   22416421.9264
  -5310734.76247  -4112553.48045  22080804.6484                   22080802.8714
   4397737.67647   3425896.18845  21933147.0234                   21933145.2234
  -3360246.06248  -2599131.43046  20534491.6884                   20534487.4144
    834539.43446    679843.29744  24040742.5554                   24040742.2034
   6098381.29747   4744497.05145  22668287.0234                   22668287.0084
   1967185.43846   1555579.15643  24454939.6884                   24454940.1054
   2224563.63748   1739337.14846  20569376.7114                   20569373.8484
 11  8  2 15 42 15.0000000  0  9G03G06G13G20G23G19G32G07G16
  -5136764.37148  -3975853.75845  21900270.7664                   21900269.8984
  -3118184.75047  -2408926.16045  22409181.3594                   22409180.0394
  -5369315.50047  -4158200.81245  22069656.7504                   22069654.2194
   4412973.41047   3437768.16045  21936046.6484                   21936044.5234
  -3401498.93048  -2631276.52046  20526641.6564                   20526637.2544
    770287.32046    629776.77744  24028516.7814                   24028515.0314
   6122984.64547   4763668.45344  22672968.6804                   22672968.3524
   1918506.19946   1517647.30943  24445676.0084                   24445676.3524
   2226815.27048   1741091.66046  20569805.4304                   20569802.3524
 11  8  2 15 42 30.0000000  0  9G03G06G13G20G23G19G32G07G16
  -5190373.14848  -4017626.81645  21890069.3834                   21890068.6454
  -3156149.84047  -2438509.34445  22401956.6334                   22401955.6604
  -5427875.21547  -4203831.75045  22058513.5234                   22058511.3754
   4428285.63347   3449699.73445  21938960.4924                   21938958.2624
  -3442677.61348  -2663363.81246  20518805.5084                   20518801.2304
    706015.62546    579694.98844  24016285.9844                   24016284.2504
   6147629.36747   4782872.09045  22677658.6414                   22677658.2074
   1869825.94146   1479714.66443  24436412.7974                   24436413.2114
   2229178.20348   1742932.89146  20570254.6724                   20570251.9694
 11  8  2 15 42 45.0000000  0  9G03G06G13G20G23G19G32G07G16
  -5243912.81248  -4059346.03145  21879881.3054                   21879880.3914
  -3194027.72747  -2468024.58245  22394748.3444                   22394747.7074
  -5486419.21547  -4249450.46145  22047372.7584                   22047370.7974
   4443668.38347   3461686.26245  21941887.3984                   21941885.1954
  -3483787.49648  -2695397.49246  20510982.7734                   20510978.0904
    641719.27346    529594.00044  24004050.9384                   24004049.3714
   6172309.54747   4802103.35545  22682355.1884                   22682354.8364
   1821139.07846   1441776.87943  24427147.7424                   24427148.6054
   2231646.52048   1744856.24646  20570724.5234                   20570721.8984
 11  8  2 15 43  0.0000000  0  9G03G06G13G20G23G19G32G07G16
  -5297379.37548  -4101008.27745  21869706.7974                   21869705.8794
  -3231814.31247  -2497468.68445  22387557.9694                   22387557.1604
  -5544943.38747  -4295053.69545  22036236.0864                   22036234.1564
   4459125.14548   3473730.47345  21944828.7274                   21944826.8444
  -3524824.51648  -2727374.39146  20503173.4384                   20503169.2194
    577402.25846    479476.90244  23991811.6804                   23991810.4844
   6197028.71547   4821365.00445  22687058.9614                   22687058.4144
   1772449.38346   1403836.87543  24417882.8674                   24417883.3874
   2234223.82448   1746864.52346  20571214.9454                   20571212.1724
 11  8  2 15 43 15.0000000  0  9G03G06G13G20G23G19G32G07G16
  -5350769.98048  -4142611.34845  21859546.9224                   21859545.9024
  -3269507.06247  -2526839.66045  22380385.3834                   22380384.5394
  -5603445.19947  -4340639.51245  22025103.6724                   22025101.2034
   4474657.93448   3485833.91045  21947784.4224                   21947782.6914
  -3565786.03548  -2759292.46946  20495379.0004                   20495374.5904
    513067.26646    429345.80544  23979568.6414                   23979568.1524
   6221788.95747   4840658.66045  22691771.0784                   22691770.3444
   1723759.07746   1365896.39943  24408616.3134                   24408617.7034
   2236912.18447   1748959.34046  20571726.8754                   20571723.7234
 11  8  2 15 43 30.0000000  0  9G03G06G13G20G23G19G32G07G16
  -5404086.81648  -4184156.92245  21849401.2814                   21849400.1374
  -3307108.24647  -2556139.28145  22373230.1804                   22373229.2234
  -5661926.85247  -4386209.62945  22013974.6954                   22013973.1414
   4490263.78148   3497994.28545  21950754.2974                   21950752.3714
  -3606674.34448  -2791153.49646  20487598.0004                   20487593.9184
    448712.12546    379198.99644  23967322.1414                   23967321.7194
   6246587.25047   4859981.97745  22696489.9224                   22696489.1294
   1675065.40646   1327953.32044  24399351.3284                   24399351.4024
   2239708.81648   1751138.52346  20572258.6414                   20572255.8554
 11  8  2 15 43 45.0000000  0  9G03G06G13G20G23G19G32G07G16
  -5457333.18748  -4225647.59445  21839268.9144                   21839267.7854
  -3344621.12547  -2585370.09845  22366091.6334                   22366090.5204
  -5720391.72347  -4431766.66445  22002849.7034                   22002847.3754
   4505938.82847   3510208.58245  21953737.2504                   21953735.3794
  -3647492.64548  -2822959.96946  20479830.3834                   20479826.2304
    384333.57446    329033.94544  23955072.0784                   23955070.3324
   6271419.70347   4879331.90645  22701215.5474                   22701215.2034
   1626364.88346   1290004.89844  24390084.1024                   24390084.1954
   2242609.57848   1753398.85246  20572810.6484                   20572807.6134
 11  8  2 15 44  0.0000000  0  9G03G06G13G20G23G19G32G07G16
  -5510503.72348  -4267079.17245  21829150.8364                   21829149.7114
  -3382040.55947  -2614528.11345  22358971.4454                   22358970.0124
  -5778834.75848  -4477306.68745  21991727.9844                   21991726.0554
   4521687.56348   3522480.29345  21956734.1564                   21956732.5594
  -3688235.89848  -2854707.97346  20472077.5634                   20472072.9694
    319937.00846    278854.87144  23942816.9384                   23942816.1054
   6296290.77347   4898711.92645  22705948.0554                   22705947.3524
   1577662.35946   1252054.91043  24380816.0164                   24380816.6844
   2245619.34448   1755744.11346  20573383.7424                   20573380.6644
 11  8  2 15 44 15.0000000  0  9G03G06G13G20G23G19G32G07G16
  -5563598.21548  -4308451.50845  21819047.3364                   21819046.2544
  -3419366.60947  -2643613.35245  22351868.4924                   22351867.1054
  -5837255.87547  -4522829.62145  21980610.8834                   21980608.8484
   4537509.30148   3534808.89545  21959744.7814                   21959743.3444
  -3728904.19948  -2886397.55946  20464338.5554                   20464334.0704
    255522.32446    228661.67244  23930559.7504                   23930558.2234
   6321199.79347   4918121.51245  22710688.4774                   22710687.6884
   1528957.33146   1214102.96644  24371547.7034                   24371548.0434
   2248737.40247   1758173.76246  20573976.9144                   20573974.1914
 11  8  2 15 44 30.0000000  0  9G03G06G13G20G23G19G32G07G16
  -5616623.14547  -4349769.62545  21808956.7974                   21808955.8524
  -3456605.64147  -2672630.78145  22344781.9614                   22344780.5634
  -5895661.30547  -4568340.34845  21969496.7974                   21969494.5274
   4553397.01248   3547188.89845  21962768.1024                   21962766.9964
  -3769503.75048  -2918033.57846  20456612.8834                   20456608.4264
    191083.31347    178449.51644  23918297.4844                   23918295.7194
   6346139.95347   4937555.36345  22715434.7584                   22715434.0554
   1480243.02046   1176143.78144  24362276.8984                   24362278.3834
   2251956.85248   1760682.41446  20574589.4774                   20574586.6134
 11  8  2 15 44 45.0000000  0  9G03G06G13G20G23G19G32G07G16
  -5669574.16848  -4391030.15645  21798880.5234                   21798879.3364
  -3493753.54347  -2701577.20745  22337712.2894                   22337711.5354
  -5954047.27747  -4613835.91445  21958386.2274                   21958383.8324
   4569354.25448   3559623.07845  21965805.3594                   21965803.5124
  -3810030.43748  -2949612.82446  20448900.5634                   20448896.4734
    126624.11746    128221.63344  23906030.6954                   23906030.2894
   6371114.69147   4957016.18045  22720186.7814                   22720186.5784
   1431523.40246   1138180.47744  24353006.6174                   24353006.9494
   2255281.27348   1763272.86346  20575222.2034                   20575219.5204
 11  8  2 15 45  0.0000000  0  9G03G06G13G20G23G19G32G07G16
  -5722452.72348  -4432234.22345  21788818.2894                   21788817.0274
  -3530811.77047  -2730453.74645  22330660.7274                   22330659.8244
  -6012415.09048  -4659317.31645  21947278.7734                   21947276.5944
   4585378.80148   3572109.69945  21968854.1414                   21968852.4184
  -3850485.89148  -2981136.55546  20441202.1564                   20441197.9304
     62143.33646     77976.93044  23893760.9694                   23893759.4844
   6396121.87147   4976502.24645  22724945.6564                   22724945.2274
   1382796.62146   1100211.58244  24343734.2974                   24343734.9104
   2258708.66048   1765943.53146  20575873.8834                   20575871.4614
 11  8  2 15 45 15.0000000  0  9G03G06G13G20G23G19G32G07G16
  -5775253.94948  -4473378.03145  21778770.1564                   21778769.1844
  -3567775.69547  -2759256.80945  22323626.9924                   22323625.6484
  -6070760.07448  -4704780.94945  21936176.4224                   21936174.1684
   4601474.73448   3584651.96945  21971917.0634                   21971915.5634
  -3890865.29748  -3012601.03146  20433518.2894                   20433514.0204
     -2354.20746     27719.16844  23881487.1954                   23881485.6804
   6421165.57447   4996016.78145  22729711.2114                   22729710.5004
   1334066.99246   1062240.46144  24334461.3134                   24334461.3444
   2262242.97348   1768697.53946  20576547.0084                   20576543.6954
 11  8  2 15 45 30.0000000  0  9G03G06G13G20G23G19G32G07G16
  -5827979.52048  -4514462.89545  21768736.9224                   21768735.9344
  -3604646.94547  -2787987.66445  22316610.8444                   22316609.3444
  -6129083.81248  -4750228.00445  21925077.8754                   21925075.9344
   4617639.83247   3597248.11345  21974993.7584                   21974991.5164
  -3931170.17248  -3044007.43746  20425848.6414                   20425844.6724
    -66869.96146    -22552.81644  23869210.4304                   23869208.7934
   6446243.48447   5015557.97745  22734483.8674                   22734483.0704
   1285332.52046   1024265.57044  24325187.5314                   24325187.7664
   2265882.09048   1771533.19946  20577239.5864                   20577236.4844
 11  8  2 15 45 45.0000000  0  9G03G06G13G20G23G19G32G07G16
  -5880629.73448  -4555489.02745  21758718.1174                   21758717.0824
  -3641426.25847  -2816646.88745  22309611.6024                   22309610.3014
  -6187386.91048  -4795658.98445  21913983.0784                   21913980.9884
   4633872.91848   3609897.24645  21978082.5004                   21978080.5594
  -3971401.28148  -3075356.36346  20418192.8284                   20418188.7384
   -131404.38747    -72839.33244  23856929.2664                   23856928.1914
   6471354.44147   5035124.91445  22739261.9224                   22739261.9064
   1236592.31646    986286.21544  24315913.6254                   24315912.7504
   2269624.93048   1774449.68846  20577951.6024                   20577948.9804
 11  8  2 15 46  0.0000000  0  9G03G06G13G20G23G19G32G07G16
  -5933202.20748  -4596454.58245  21748713.6174                   21748712.5944
  -3678111.09047  -2845232.45345  22302630.8284                   22302630.1294
  -6245666.83648  -4841071.91845  21902892.7584                   21902890.6024
   4650175.73048   3622600.69945  21981184.6884                   21981183.3594
  -4011556.25448  -3106645.95346  20410551.5634                   20410547.2234
   -195955.12947   -123138.57044  23844646.5554                   23844644.7934
   6496500.25047   5054719.01245  22744047.1954                   22744046.8134
   1187848.48046    948304.03944  24306636.9774                   24306637.2154
   2273473.18448   1777448.30946  20578684.1024                   20578680.7464
 11  8  2 15 46 15.0000000  0  9G03G06G13G20G23G19G32G07G16
  -5985697.68047  -4637360.14845  21738724.5784                   21738723.1054
  -3714702.35547  -2873745.13345  22295667.8984                   22295667.0124
  -6303924.56248  -4886467.53545  21891806.9534                   21891804.5984
   4666546.79348   3635357.34045  21984300.2194                   21984298.4804
  -4051635.90648  -3137876.86346  20402924.8364                   20402920.5354
   -260522.74646   -173450.94944  23832359.5004                   23832357.8984
   6521679.44547   5074339.12145  22748838.7344                   22748838.2154
   1139099.88346    910318.12544  24297360.5474                   24297360.4654
   2277425.53548   1780528.04746  20579436.1414                   20579433.3204
 11  8  2 15 46 30.0000000  0  9G03G06G13G20G23G19G32G07G16
  -6038111.80148  -4678202.31645  21728750.3134                   21728749.5044
  -3751195.75847  -2902181.56245  22288723.4064                   22288722.0164
  -6362156.14548  -4931842.79345  21880725.4774                   21880723.3324
   4682989.60948   3648169.90245  21987429.1254                   21987426.7704
  -4091635.94148  -3169045.72746  20395312.9774                   20395308.5944
   -325103.12147   -223773.27744  23820071.1024                   23820069.2194
   6546895.63347   5093988.05944  22753637.1954                   22753636.9494
   1090350.19546    872331.36344  24288084.1954                   24288083.8244
   2281485.77348   1783691.85546  20580208.5084                   20580205.7894
 11  8  2 15 46 45.0000000  0  9G03G06G13G20G23G19G32G07G16
  -6090449.67648  -4718985.07045  21718790.1024                   21718789.4064
  -3787596.56647  -2930545.83645  22281796.6174                   22281795.3594
  -6420366.48848  -4977201.50045  21869648.5554                   21869646.0824
   4699498.33248   3661033.81345  21990570.5234                   21990568.3754
  -4131561.64548  -3200156.67646  20387715.4224                   20387711.4694
   -389701.44146   -274109.59844  23807777.7664                   23807775.9184
   6572142.95347   5113661.25045  22758441.5394                   22758441.6724
   1041593.84846    834339.41044  24278805.9064                   24278805.3714
   2285648.00048   1786935.13346  20581000.8364                   20580997.7464
 11  8  2 15 47  0.0000000  0  9G03G06G13G20G23G19G32G07G16
  -6142716.70748  -4759712.61745  21708844.4614                   21708843.5394
  -3823910.39847  -2958842.33245  22274885.9064                   22274885.0474
  -6478560.93448  -5022547.82445  21858574.3754                   21858572.3674
   4716066.78148   3673944.27045  21993723.5314                   21993722.0634
  -4171418.44948  -3231213.92646  20380130.9144                   20380126.7774
   -454322.98446   -324463.99644  23795480.4064                   23795478.9494
   6597415.16847   5133353.84845  22763250.6094                   22763250.2934
    992824.99246    796337.73844  24269525.6804                   24269524.9884
   2289906.23448   1790253.22746  20581811.1254                   20581808.3094
 11  8  2 15 47 15.0000000  0  9G03G06G13G20G23G19G32G07G16
  -6194905.85248  -4800379.48445  21698913.3054                   21698912.1174
  -3860130.32047  -2987065.65245  22267993.5864                   22267992.5904
  -6536732.85548  -5067876.59045  21847504.7974                   21847502.5354
   4732701.44148   3686906.30945  21996888.9454                   21996887.1644
  -4211199.53548  -3262212.18046  20372560.7194                   20372556.4924
   -518960.79346   -374831.08644  23783179.8834                   23783178.6954
   6622718.76247   5153070.90245  22768065.8754                   22768065.4344
    944050.37546    758331.53544  24260243.7424                   24260243.6214
   2294266.55148   1793650.85946  20582640.5864                   20582637.6914
 11  8  2 15 47 30.0000000  0  9G03G06G13G20G23G19G32G07G16
  -6247015.27748  -4840984.22745  21688997.1414                   21688996.0044
  -3896254.54747  -3015214.40645  22261119.7424                   22261118.4024
  -6594880.44148  -5113186.39545  21836439.7734                   21836437.8914
   4749403.31648   3699920.71945  22000067.1884                   22000065.5124
  -4250903.01648  -3293149.96546  20365005.5944                   20365001.0474
   -583612.93046   -425209.34444  23770877.0314                   23770875.3094
   6648054.80547   5172813.23845  22772887.4924                   22772887.2424
    895271.32446    720321.89544  24250961.3754                   24250961.4694
   2298730.14848   1797128.96946  20583490.4224                   20583487.3874
 11  8  2 15 47 45.0000000  0  9G03G06G13G20G23G19G32G07G16
  -6299049.02748  -4881529.99245  21679095.5164                   21679094.1134
  -3932287.38347  -3043291.94945  22254262.2734                   22254261.1994
  -6653007.96148  -5158480.55145  21825378.5164                   21825376.4654
   4766167.38348   3712983.60545  22003257.4224                   22003255.2114
  -4290533.29348  -3324030.71146  20357464.2344                   20357459.5634
   -648283.55946   -475602.00044  23758570.7734                   23758569.4654
   6673418.34047   5192576.98045  22777713.7504                   22777713.3244
    846483.28546    682305.25843  24241677.3444                   24241677.1724
   2303292.22748   1800683.82446  20584358.4454                   20584355.5944
 11  8  2 15 48  0.0000000  0  9G03G06G13G20G23G19G32G07G16
  -6350999.96548  -4922011.24645  21669209.6484                   21669208.7034
  -3968221.55947  -3071292.61345  22247424.7274                   22247423.4654
  -6711108.18748  -5203753.44945  21814322.2274                   21814320.2114
   4783000.46948   3726100.26645  22006460.2114                   22006458.8524
  -4330083.05148  -3354848.71546  20349938.2034                   20349933.7274
   -712965.36746   -526003.38344  23746261.4924                   23746260.5044
   6698816.15647   5212367.46145  22782547.2664                   22782546.5664
    797693.14846    644286.98843  24232392.0634                   24232392.8444
   2307959.72348   1804320.81646  20585246.6954                   20585243.6644
 11  8  2 15 48 15.0000000  0  9G03G06G13G20G23G19G32G07G16
  -6402870.80548  -4962430.06245  21659338.8834                   21659338.1484
  -4004060.06647  -3099218.73045  22240604.3674                   22240603.6524
  -6769183.97348  -5249007.30545  21803270.5784                   21803268.6374
   4799898.86748   3739267.82445  22009676.6024                   22009674.4344
  -4369555.37948  -3385606.37546  20342427.0164                   20342422.0044
   -777661.27046   -576415.73444  23733951.3204                   23733949.3134
   6724244.64147   5232181.81645  22787385.7344                   22787385.1724
    748897.49646    606264.41443  24223107.3364                   24223107.3874
   2312729.05948   1808037.16846  20586154.2034                   20586151.5824
 11  8  2 15 48 30.0000000  0  9G03G06G13G20G23G19G32G07G16
  -6454661.74248  -5002786.62945  21649483.1334                   21649482.0204
  -4039803.24647  -3127070.57045  22233802.9694                   22233802.3164
  -6827235.66848  -5294242.39545  21792224.2344                   21792221.7464
   4816861.69148   3752485.58645  22012904.4694                   22012902.6174
  -4408950.49248  -3416303.87946  20334929.9614                   20334925.7304
   -842371.32046   -626839.11344  23721636.7584                   23721635.0554
   6749702.71947   5252019.23045  22792230.2424                   22792230.2384
    700095.85246    568237.19143  24213820.1334                   24213820.7154
   2317599.21148   1811832.07846  20587081.4064                   20587078.1334
 11  8  2 15 48 45.0000000  0  9G03G06G13G20G23G19G32G07G16
  -6506373.79748  -5043081.73045  21639642.6564                   21639641.8834
  -4075452.23047  -3154849.00445  22227019.5004                   22227018.4264
  -6885264.48048  -5339459.64845  21781181.2344                   21781179.2734
   4833887.14848   3765752.14145  22016144.2814                   22016142.7734
  -4448269.44948  -3446942.03546  20327447.9224                   20327443.5864
   -907096.74246   -677274.48844  23709320.4064                   23709318.2734
   6775188.77047   5271878.44945  22797079.9304                   22797080.1174
    651286.62546    530204.05543  24204532.2974                   24204531.9734
   2322568.36748   1815704.14146  20588026.6024                   20588023.5634
 11  8  2 15 49  0.0000000  0  9G03G06G13G20G23G19G32G07G16
  -6558005.65648  -5083314.33645  21629817.5394                   21629816.6174
  -4111005.61347  -3182552.94145  22220253.2114                   22220252.2544
  -6943268.93748  -5384657.91845  21770143.4224                   21770141.4184
   4850975.92648   3779068.03545  22019396.3674                   22019394.6804
  -4487510.78948  -3477519.71146  20319980.5784                   20319976.0124
   -971835.97346   -727720.61744  23697000.3674                   23696998.5824
   6800703.55147   5291760.06345  22801935.3284                   22801935.4494
    602470.78946    492165.77743  24195242.7194                   24195243.1524
   2327637.54348   1819654.13346  20588991.2814                   20588988.3714
 11  8  2 15 49 15.0000000  0  9G03G06G13G20G23G19G32G07G16
  -6609559.45748  -5123486.11345  21620007.4144                   21620006.2584
  -4146465.90647  -3210184.34845  22213505.9774                   22213505.1994
  -7001251.48848  -5429839.11745  21759109.5944                   21759107.6454
   4868124.93047   3792430.85545  22022659.0164                   22022657.5434
  -4526676.95348  -3508038.81246  20312527.6254                   20312523.7384
  -1036591.34446   -778179.29744  23684677.8054                   23684676.4534
   6826244.02047   5311661.68445  22806795.9304                   22806795.3634
    553645.82046    454120.35243  24185951.6884                   24185951.5634
   2332803.71548   1823679.70746  20589974.5164                   20589971.4844
 11  8  2 15 49 30.0000000  0  9G03G06G13G20G23G19G32G07G16
  -6661032.04747  -5163594.61345  21610212.4064                   21610211.1604
  -4181830.05947  -3237740.83645  22206775.7584                   22206775.4494
  -7059208.85948  -5475000.71545  21748080.9144                   21748079.2734
   4885336.85548   3805842.71945  22025934.5474                   22025932.8914
  -4565764.95748  -3538497.00446  20305089.3674                   20305085.0904
  -1101359.57846   -828648.03544  23672353.6564                   23672351.5514
   6851812.64147   5331585.25045  22811661.0314                   22811661.2194
    504814.36746    416069.89543  24176659.8674                   24176659.3094
   2338069.41048   1827782.82446  20590976.5234                   20590973.6214
 11  8  2 15 49 45.0000000  0  9G03G06G13G20G23G19G32G07G16
  -6712421.37948  -5203638.23445  21600433.1954                   21600432.1254
  -4217096.04347  -3265220.82045  22200065.1644                   22200064.5664
  -7117139.02348  -5520141.09045  21737057.2974                   21737054.8014
   4902612.87148   3819304.53145  22029222.0234                   22029220.1604
  -4604772.74248  -3568892.69146  20297666.6174                   20297661.8204
  -1166138.56246   -879125.14144  23660026.1414                   23660024.0704
   6877410.79747   5351531.82045  22816532.7274                   22816532.7504
    455978.10946    378015.67243  24167366.0944                   24167366.2734
   2343436.09048   1831964.64546  20591997.7194                   20591994.5354
 11  8  2 15 50  0.0000000  0  9G03G06G13G20G23G19G32G07G16
  -6763729.96548  -5243618.93445  21590669.3524                   21590668.5354
  -4252266.50047  -3292626.38345  22193372.7894                   22193371.7074
  -7175044.78948  -5565262.46545  21726037.8754                   21726035.6454
   4919949.67648   3832813.69545  22032521.1414                   22032519.7034
  -4643703.00848  -3599227.97346  20290258.0784                   20290253.5634
  -1230931.02046   -929612.73844  23647696.3134                   23647694.5004
   6903035.27047   5371498.90244  22821408.4694                   22821408.6454
    407133.96046    339955.37643  24158070.5004                   24158071.5744
   2348900.50048   1836222.60946  20593037.4844                   20593034.5044
 11  8  2 15 50 15.0000000  0  9G03G06G13G20G23G19G32G07G16
  -6814960.34447  -5283538.69145  21580920.8834                   21580919.5704
  -4287344.18447  -3319959.64545  22186697.4144                   22186696.5394
  -7232928.89848  -5610366.95745  21715022.7504                   21715020.9224
   4937344.12948   3846367.78545  22035831.4064                   22035829.6094
  -4682558.32848  -3629504.85546  20282864.3364                   20282860.1524
  -1295739.46146   -980112.80544  23635363.5864                   23635361.8444
   6928682.75847   5391483.91844  22826289.1334                   22826289.1914
    358279.18046    301886.74243  24148774.9614                   24148775.2234
   2354459.51248   1840554.28946  20594095.4224                   20594092.2504
 11  8  2 15 50 30.0000000  0  9G03G06G13G20G23G19G32G07G16
  -6866109.25047  -5323394.97345  21571186.7974                   21571186.2304
  -4322326.00047  -3347218.21545  22180040.9694                   22180040.0664
  -7290787.94948  -5655451.93445  21704012.5164                   21704010.6604
   4954798.69948   3859968.71545  22039153.0554                   22039151.5434
  -4721335.60948  -3659720.92646  20275485.3284                   20275480.8754
  -1360560.39546  -1030622.60544  23623028.1174                   23623026.4924
   6954355.78547   5411488.82844  22831174.9224                   22831174.6374
    309416.26246    263811.77343  24139476.1954                   24139476.4774
   2360115.80948   1844961.78546  20595171.4774                   20595168.6994
 11  8  2 15 50 45.0000000  0  9G03G06G13G20G23G19G32G07G16
  -6917177.55948  -5363188.44545  21561469.3284                   21561468.0784
  -4357212.74647  -3374402.70345  22173401.8984                   22173400.9064
  -7348622.97348  -5700518.18445  21693007.1414                   21693005.0984
   4972311.74248   3873615.23045  22042485.7274                   22042483.8874
  -4760035.63748  -3689876.80146  20268121.1484                   20268116.7544
  -1425394.82046  -1081142.92244  23610691.5634                   23610689.4964
   6980052.90247   5431512.52344  22836064.6484                   22836064.9494
    260544.16746    225729.62543  24130176.6954                   24130176.4924
   2365867.49248   1849443.60246  20596266.3674                   20596263.2344
 11  8  2 15 51  0.0000000  0  9G03G06G13G20G23G19G32G07G16
  -6968160.84447  -5402915.67245  21551767.6024                   21551766.4344
  -4392000.31647  -3401509.89845  22166782.2814                   22166780.8524
  -7406429.62148  -5745562.30945  21682006.8594                   21682005.3404
   4989886.86748   3887310.10545  22045830.1174                   22045828.1484
  -4798654.29748  -3719969.27346  20260771.9844                   20260767.5044
  -1490238.33246  -1131670.32044  23598351.6024                   23598350.3714
   7005777.62947   5451557.71944  22840959.8674                   22840959.7934
    211666.81346    187643.41443  24120875.5234                   24120875.4304
   2371718.37148   1854002.71146  20597379.9844                   20597376.9574
 11  8  2 15 51 15.0000000  0  9G03G06G13G20G23G19G32G07G16
  -7019062.11348  -5442578.98845  21542081.6724                   21542080.3954
  -4426691.77747  -3428542.20345  22160181.0944                   22160179.7194
  -7464211.08248  -5790586.82845  21671011.4224                   21671009.4924
   5007520.44147   3901050.52345  22049185.4304                   22049183.7034
  -4837194.68448  -3750000.75446  20253438.1564                   20253433.5984
  -1555093.84846  -1182207.07844  23586010.1174                   23586008.5394
   7031526.25047   5471621.54344  22845859.4924                   22845859.3634
    162780.80146    149550.47743  24111572.2114                   24111572.4654
   2377664.89548   1858636.35246  20598511.2894                   20598508.3634
 11  8  2 15 51 30.0000000  0  9G03G06G13G20G23G19G32G07G16
  -7069881.55948  -5482178.54345  21532410.8134                   21532409.9344
  -4461287.53947  -3455499.94945  22153597.3284                   22153596.1644
  -7521967.61348  -5835591.90645  21660020.9774                   21660018.9774
   5025211.44948   3914835.69945  22052552.1484                   22052550.3554
  -4875657.05148  -3779971.43746  20246118.9144                   20246114.2344
  -1619961.82846  -1232753.53944  23573665.9614                   23573664.3324
   7057298.02747   5491703.40644  22850764.1644                   22850763.9414
    113885.35246    111450.10243  24102267.8674                   24102268.4024
   2383706.08248   1863343.75846  20599660.5784                   20599657.9734
 11  8  2 15 51 45.0000000  0  9G03G06G13G20G23G19G32G07G16
  -7120623.37947  -5521717.60945  21522755.1644                   21522753.7584
  -4495791.73847  -3482386.33645  22147031.4614                   22147030.2154
  -7579703.28148  -5880580.73845  21649033.7504                   21649031.5314
   5042955.25447   3928662.02045  22055928.8364                   22055927.2774
  -4914045.64548  -3809884.63746  20238813.7894                   20238809.4144
  -1684846.01246  -1283312.62944  23561319.0474                   23561317.3794
   7083088.00847   5511799.45344  22855672.0634                   22855671.7664
     64976.05546     73338.98843  24092961.2424                   24092961.0354
   2389837.16048   1868121.21546  20600827.7114                   20600824.9534
 11  8  2 15 52  0.0000000  0  9G03G06G13G20G23G19G32G07G16
  -7171283.56647  -5561193.07045  21513114.5314                   21513113.7074
  -4530200.64847  -3509198.47745  22140483.5314                   22140482.5704
  -7637414.33648  -5925550.38345  21638051.6334                   21638049.9574
   5060754.86348   3942531.80545  22059316.1414                   22059314.8094
  -4952356.54348  -3839737.29746  20231523.4694                   20231519.0634
  -1749742.37947  -1333881.20744  23548969.7504                   23548968.3014
   7108899.38747   5531912.18544  22860583.2344                   22860583.6644
     16056.35246     35219.74243  24083652.1254                   24083651.3754
   2396061.52348   1872971.34846  20602011.9844                   20602008.8594
 11  8  2 15 52 15.0000000  0  9G03G06G13G20G23G19G32G07G16
  -7221859.37547  -5600602.77345  21503490.5554                   21503489.5314
  -4564511.49247  -3535934.19145  22133954.2584                   22133953.2704
  -7695098.02048  -5970498.69945  21627075.1954                   21627072.7384
   5078612.42247   3956446.75845  22062713.8054                   22062711.9654
  -4990587.12948  -3869527.37146  20224248.8284                   20224244.1954
  -1814648.47346  -1384457.36744  23536619.0314                   23536617.1724
   7134734.20747   5552043.16844  22865499.8984                   22865499.7544
    -32871.45346     -2905.78144  24074341.8674                   24074341.2034
   2402381.15648   1877895.72346  20603214.7114                   20603211.8554
 11  8  2 15 52 30.0000000  0  9G03G06G13G20G23G19G32G07G16
  -7272350.88347  -5639946.79745  21493882.2584                   21493881.2934
  -4598724.57047  -3562593.73445  22127443.7814                   22127442.7974
  -7752754.47748  -6015425.79745  21616103.5314                   21616101.5394
   5096527.30148   3970406.37545  22066123.6174                   22066121.7774
  -5028737.48848  -3899254.92646  20216988.7894                   20216984.4264
  -1879564.12547  -1435040.98044  23524265.7664                   23524263.5824
   7160591.81347   5572191.92244  22870420.2504                   22870420.0314
    -81807.77346    -41037.95344  24065028.6174                   24065028.9384
   2408795.41048   1882893.83246  20604435.1724                   20604432.0634
 11  8  2 15 52 45.0000000  0  9G03G06G13G20G23G19G32G07G16
  -7322761.54347  -5679227.82445  21484289.2034                   21484287.9774
  -4632843.41847  -3589179.84445  22120950.7894                   22120950.0594
  -7810387.25048  -6060334.45345  21605136.2664                   21605134.0554
   5114494.84847   3984407.03145  22069542.5554                   22069540.4574
  -5066811.30948  -3928922.85946  20209743.6254                   20209739.2504
  -1944492.87547  -1485634.78544  23511909.7034                   23511907.7934
   7186468.06647   5592355.20344  22875344.6724                   22875344.2624
   -130756.48846    -79179.77344  24055714.6414                   24055714.3914
   2415300.13748   1887962.44146  20605672.9534                   20605670.0124
 11  8  2 15 53  0.0000000  0  9G03G06G13G20G23G19G32G07G16
  -7373088.57447  -5718443.68445  21474712.5474                   21474711.7114
  -4666865.39547  -3615690.48845  22114477.2734                   22114476.1804
  -7867993.79348  -6105222.66445  21594174.0634                   21594172.1484
   5132517.12947   3998450.34845  22072972.0554                   22072970.5084
  -5104805.89548  -3958529.04346  20202513.5784                   20202508.9224
  -2009432.05946  -1536236.76244  23499552.5474                   23499550.4064
   7212364.86747   5612534.48844  22880272.5784                   22880272.5084
   -179715.29346   -117329.49244  24046397.8054                   24046396.7734
   2421897.35948   1893103.11346  20606928.5634                   20606925.3714
 11  8  2 15 53 15.0000000  0  9G03G06G13G20G23G19G32G07G16
  -7423323.48047  -5757587.75445  21465152.9064                   21465151.6914
  -4700782.33247  -3642119.25845  22108023.0234                   22108022.1254
  -7925565.64848  -6150083.84445  21583218.6884                   21583216.5784
   5150601.96147   4012542.39545  22076413.0084                   22076411.7504
  -5142712.87548  -3988066.95346  20195300.1174                   20195295.5204
  -2074373.02647  -1586840.10744  23487194.3364                   23487192.5904
   7238289.85547   5632735.74644  22885206.0164                   22885205.9384
   -228676.32046   -155480.91844  24037081.1484                   24037080.7464
   2428594.82848   1898321.90246  20608202.9224                   20608200.0394
 11  8  2 15 53 30.0000000  0  9G03G06G13G20G23G19G32G07G16
  -7473469.74247  -5796662.76645  21455610.5554                   21455609.7114
  -4734597.70347  -3668468.89145  22101588.1174                   22101586.9964
  -7983106.32848  -6194920.72745  21572268.8204                   21572267.2424
   5168745.33247   4026680.05545  22079865.8524                   22079864.4104
  -5180535.73448  -4017539.32046  20188102.5634                   20188097.9734
  -2139319.23447  -1637447.51644  23474835.9844                   23474834.1024
   7264239.10247   5652955.89144  22890144.2894                   22890143.7934
   -277643.27046   -193636.93043  24027761.9614                   24027762.4264
   2435388.48848   1903615.64846  20609495.7814                   20609492.6254
 11  8  2 15 53 45.0000000  0  9G03G06G13G20G23G19G32G07G16
  -7523534.32047  -5835674.11345  21446083.7034                   21446082.4694
  -4768318.54747  -3694744.87545  22095171.0944                   22095170.2304
  -8040622.93048  -6239738.84845  21561323.9304                   21561321.7774
   5186939.52347   4040857.31345  22083327.6884                   22083326.7664
  -5218281.51248  -4046951.62546  20180919.5314                   20180915.1174
  -2204277.51246  -1688064.34844  23462474.7034                   23462473.1374
   7290204.94947   5673188.97345  22895085.5314                   22895085.3404
   -326623.52746   -231803.37543  24018442.4924                   24018441.6024
   2442270.73448   1908978.41846  20610805.7664                   20610802.4844
 11  8  2 15 54  0.0000000  0  9G03G06G13G20G23G19G32G07G16
  -7573510.84447  -5874616.85545  21436573.5314                   21436572.3594
  -4801938.53547  -3720942.26245  22088773.6884                   22088772.8324
  -8098108.76648  -6284533.00445  21550384.8364                   21550382.9654
   5205190.10947   4055078.52045  22086801.5634                   22086799.5594
  -5255943.96148  -4076299.00046  20173752.8594                   20173748.4024
  -2269241.54346  -1738685.64544  23450112.1484                   23450110.6764
   7316193.12147   5693439.44944  22900030.4534                   22900030.3284
   -375611.04347   -269975.46543  24009120.5474                   24009119.0704
   2449247.32048   1914414.71546  20612133.2344                   20612130.3444
 11  8  2 15 54 15.0000000  0  9G03G06G13G20G23G19G32G07G16
  -7623400.67247  -5913492.03145  21427079.7424                   21427078.0274
  -4835459.32047  -3747062.35245  22082394.3674                   22082393.5434
  -8155565.49248  -6329304.47745  21539450.9534                   21539449.1844
   5223494.99247   4069342.03945  22090284.5784                   22090282.7974
  -5293524.62148  -4105582.65246  20166601.2664                   20166597.0044
  -2334212.79746  -1789312.57444  23437748.7034                   23437747.2854
   7342201.39547   5713705.59844  22904979.5944                   22904979.7344
   -424607.79346   -308154.70743  23999796.1094                   23999795.2664
   2456316.05148   1919922.79746  20613478.4454                   20613475.2544
 11  8  2 15 54 30.0000000  0  9G03G06G13G20G23G19G32G07G16
  -7673201.57447  -5952297.93045  21417602.8834                   21417601.4614
  -4868878.82047  -3773103.50845  22076035.2664                   22076034.4104
  -8212991.00448  -6374051.62145  21528523.3444                   21528521.2194
   5241855.66847   4083649.03145  22093778.4844                   22093776.7344
  -5331021.31248  -4134800.86346  20159466.0164                   20159461.8094
  -2399188.97746  -1839943.34444  23425383.9224                   23425382.4384
   7368231.32047   5733988.60944  22909932.6254                   22909933.2304
   -473611.94946   -346339.75044  23990471.3914                   23990470.4534
   2463478.57448   1925503.96946  20614841.3134                   20614838.2344
 11  8  2 15 54 45.0000000  0  9G03G06G13G20G23G19G32G07G16
  -7722910.39147  -5991032.06245  21408143.3364                   21408142.3524
  -4902193.98847  -3799063.37545  22069695.8754                   22069694.8444
  -8270382.33648  -6418772.13345  21517601.8284                   21517600.2344
   5260274.65247   4098001.45345  22097283.4064                   22097282.0514
  -5368430.85948  -4163951.16446  20152347.2424                   20152343.1294
  -2464166.81246  -1890575.40244  23413018.9384                   23413017.3594
   7394285.39147   5754290.43444  22914891.3054                   22914891.1374
   -522620.75446   -384528.43043  23981144.8524                   23981144.9614
   2470737.36348   1931160.16046  20616222.8204                   20616219.2584
 11  8  2 15 55  0.0000000  0  9G03G06G13G20G23G19G32G07G16
  -7772533.94147  -6029699.76245  21398700.3204                   21398699.2894
  -4935411.87547  -3824947.44545  22063374.7114                   22063373.2894
  -8327746.34048  -6463471.35245  21506686.0474                   21506684.0514
   5278744.25447   4112393.30945  22100797.9694                   22100796.9104
  -5405760.21148  -4193038.98846  20145243.6954                   20145239.1804
  -2529153.19546  -1941214.12544  23400652.0704                   23400650.9614
   7420356.03947   5774605.18444  22919851.8594                   22919852.0904
   -571641.35246   -422726.28543  23971816.4384                   23971816.0234
   2478084.89548   1936885.48446  20617620.7344                   20617617.4654
 11  8  2 15 55 15.0000000  0  9G03G06G13G20G23G19G32G07G16
  -7822071.89547  -6068300.76245  21389273.5944                   21389272.5234
  -4968532.18747  -3850755.47345  22057071.8134                   22057070.6294
  -8385082.64148  -6508148.98445  21495775.4224                   21495773.2544
   5297263.98847   4126824.24645  22104322.5164                   22104320.4804
  -5443009.26648  -4222064.23046  20138155.3524                   20138151.0864
  -2594147.97746  -1991859.39544  23388284.4614                   23388282.4144
   7446442.74547   5794932.44744  22924816.2664                   22924816.3134
   -620674.03546   -460933.55144  23962485.3914                   23962485.0314
   2485520.67248   1942679.58646  20619035.5234                   20619033.0474
 11  8  2 15 55 30.0000000  0  9G03G06G13G20G23G19G32G07G16
  -7871523.69547  -6106834.62946  21379863.5314                   21379862.0824
  -5001554.45347  -3876487.10245  22050788.1804                   22050787.2664
  -8442390.79748  -6552804.69145  21484869.5634                   21484868.3204
   5315833.98047   4141294.34845  22107855.8364                   22107854.1844
  -5480177.48848  -4251026.49246  20131082.7274                   20131078.3244
  -2659150.20346  -2042510.46544  23375915.2584                   23375913.3014
   7472545.63347   5815272.32444  22929783.5944                   22929783.5004
   -669718.45347   -499149.97343  23953152.8834                   23953152.0824
   2493044.87148   1948542.57446  20620467.7274                   20620464.6524
 11  8  2 15 55 45.0000000  0  9G03G06G13G20G23G19G32G07G16
  -7920887.81247  -6145300.17245  21370469.6724                   21370468.3244
  -5034477.23847  -3902141.21545  22044523.0784                   22044521.5044
  -8499669.31648  -6597437.30945  21473970.2194                   21473968.0944
   5334454.84447   4155804.07845  22111399.3754                   22111397.8754
  -5517263.38748  -4279924.60946  20124025.5394                   20124020.9804
  -2724158.38746  -2093166.17644  23363544.7274                   23363542.5394
   7498665.36747   5835625.32044  22934753.8984                   22934754.1724
   -718773.52746   -537374.67643  23943817.7974                   23943816.6954
   2500658.30948   1954475.11746  20621916.1174                   20621913.5124
 11  8  2 15 56  0.0000000  0  9G03G06G13G20G23G19G32G07G16
  -7970152.75447  -6183688.43445  21361094.8594                   21361093.8244
  -5067289.23847  -3927709.00445  22038278.7584                   22038277.7774
  -8556906.63748  -6642037.80945  21463078.2194                   21463076.1764
   5353137.45347   4170361.92245  22114955.0704                   22114953.6564
  -5554255.55948  -4308749.68446  20116986.1884                   20116981.7544
  -2789160.93746  -2143817.50444  23351174.4694                   23351173.2664
   7524812.91847   5856000.00444  22939729.3054                   22939729.5044
   -767828.12946   -575599.02043  23934482.9774                   23934482.4024
   2508371.78148   1960485.59846  20623384.1484                   20623381.4534
 11  8  2 15 56 15.0000000  0  9G03G06G13G20G23G19G32G07G16
  -8019332.02747  -6222009.95345  21351736.4224                   21351735.1684
  -5100004.22347  -3953201.18745  22032053.3594                   22032052.1564
  -8614116.43748  -6686616.86345  21452191.7034                   21452189.7814
   5371867.38747   4184956.64845  22118518.7424                   22118517.4964
  -5591167.77748  -4337512.45746  20109962.1254                   20109957.5904
  -2854171.43446  -2194475.00444  23338803.5944                   23338801.9184
   7550973.84847   5876385.09044  22944708.2734                   22944708.7274
   -816896.39546   -613834.00843  23925145.7424                   23925145.0634
   2516170.97748   1966562.88746  20624868.2114                   20624865.3364
 11  8  2 15 56 30.0000000  0  9G03G06G13G20G23G19G32G07G16
  -8068421.35547  -6260261.37145  21342394.9694                   21342393.5394
  -5132617.97747  -3978614.49245  22025847.2974                   22025846.4104
  -8671294.47348  -6731171.17645  21441311.2974                   21441308.9384
   5390648.28147   4199591.09045  22122092.6484                   22122091.2664
  -5627995.74648  -4366209.59046  20102953.5784                   20102949.3014
  -2919185.56646  -2245135.33644  23326432.0474                   23326430.5084
   7577151.89847   5896783.52344  22949689.3444                   22949689.9774
   -865974.21947   -652076.46144  23915806.6334                   23915806.1844
   2524059.57448   1972709.82846  20626369.5474                   20626366.6524
 11  8  2 15 56 45.0000000  0  9G03G06G13G20G23G19G32G07G16
  -8117426.66448  -6298447.32845  21333069.4694                   21333068.3714
  -5165136.46547  -4003953.57045  22019659.0004                   22019658.0124
  -8728446.74648  -6775705.41445  21430435.5704                   21430433.3244
   5409473.63347   4214260.16445  22125675.3134                   22125673.4694
  -5664745.19948  -4394845.53946  20095960.8834                   20095955.6294
  -2984209.07046  -2295802.98044  23314058.2504                   23314056.7664
   7603340.37147   5917190.07844  22954672.9384                   22954673.4804
   -915068.07047   -690331.41044  23906464.8594                   23906463.8554
   2532031.10548   1978921.39846  20627886.4064                   20627883.4964
 11  8  2 15 57  0.0000000  0  9G03G06G13G20G23G19G32G07G16
  -8166341.02047  -6336562.41045  21323761.6484                   21323760.0744
  -5197552.97347  -4029213.18445  22013490.8754                   22013489.1954
  -8785566.44148  -6820214.27345  21419565.7344                   21419563.7344
   5428349.49247   4228968.59445  22129267.2194                   22129265.8674
  -5701409.60948  -4423415.21946  20088983.3914                   20088979.1604
  -3049235.13346  -2346472.61744  23301684.6644                   23301682.1334
   7629545.63747   5937609.71544  22959659.8524                   22959659.9734
   -964171.47747   -728593.77344  23897120.0944                   23897120.2384
   2540091.70748   1985202.37146  20629420.1414                   20629417.9024
 11  8  2 15 57 15.0000000  0  9G03G06G13G20G23G19G32G07G16
  -8215159.90247  -6374603.09445  21314471.7034                   21314470.4384
  -5229863.07047  -4054389.87545  22007342.2814                   22007340.8984
  -8842649.09848  -6864694.25845  21408703.2344                   21408701.1094
   5447279.63747   4243719.32845  22132869.6884                   22132868.2734
  -5737984.58648  -4451915.20746  20082023.5394                   20082019.4384
  -3114259.21946  -2397140.71544  23289310.9454                   23289308.6414
   7655771.30147   5958045.27044  22964650.6254                   22964650.4144
  -1013280.34447   -766860.40244  23887774.7034                   23887775.4104
   2548245.20748   1991555.73846  20630971.9224                   20630969.3164
 11  8  2 15 57 30.0000000  0  9G03G06G13G20G23G19G32G07G16
  -8263887.52747  -6412572.66845  21305199.1804                   21305197.5594
  -5262071.07847  -4079487.01645  22001213.4774                   22001212.1764
  -8899698.98848  -6909148.72345  21397847.0864                   21397844.5984
   5466259.24247   4258508.58645  22136481.2424                   22136479.5124
  -5774474.16048  -4480348.64846  20075079.7814                   20075075.5864
  -3179285.35946  -2447810.40244  23276936.7034                   23276934.7624
   7682012.63347   5978493.00844  22969644.3284                   22969644.3284
  -1062399.23846   -805134.86344  23878428.4844                   23878428.2384
   2556486.89548   1997977.81646  20632539.8594                   20632537.2384
 11  8  2 15 57 45.0000000  0  9G03G06G13G20G23G19G32G07G16
  -8312518.07447  -6450466.59445  21295944.8284                   21295943.7814
  -5294171.39847  -4104500.24245  21995104.7664                   21995103.6054
  -8956710.19548  -6953573.02745  21386998.1334                   21386996.0784
   5485293.24247   4273340.25445  22140103.1884                   22140101.7734
  -5810872.85548  -4508711.27046  20068153.5084                   20068148.8754
  -3244307.77046  -2498477.18044  23264562.9384                   23264561.5274
   7708274.56347   5998956.82444  22974641.7424                   22974641.4654
  -1111522.74646   -843412.89144  23869080.1024                   23869080.8134
   2564821.66448   2004472.43046  20634126.1724                   20634123.7424
 11  8  2 15 58  0.0000000  0  9G03G06G13G20G23G19G32G07G16
  -8361058.59847  -6488290.38745  21286707.6564                   21286706.5164
  -5326171.18747  -4129435.13745  21989015.1254                   21989014.0314
  -9013689.67248  -6997972.61745  21376155.3204                   21376153.3134
   5504374.09847   4288208.43045  22143734.2344                   22143733.0084
  -5847187.68048  -4537008.54346  20061242.8284                   20061238.3714
  -3309333.48846  -2549146.55944  23252189.3834                   23252187.5514
   7734549.62147   6019430.86344  22979641.2114                   22979641.2664
  -1160658.15646   -881700.21544  23859729.8204                   23859730.1884
   2573241.99248   2011033.71146  20635728.6254                   20635725.6994
 11  8  2 15 58 15.0000000  0  9G03G06G13G20G23G19G32G07G16
  -8409507.64847  -6526042.88745  21277488.4844                   21277487.1644
  -5358069.22747  -4154290.75045  21982945.4454                   21982944.0984
  -9070636.36348  -7042346.65645  21365318.6804                   21365316.5004
   5523502.32447   4303113.50445  22147374.3984                   22147372.4924
  -5883417.48848  -4565239.57446  20054348.8674                   20054344.1454
  -3374361.01646  -2599817.33644  23239814.4224                   23239813.2734
   7760838.26647   6039915.46544  22984644.1174                   22984643.7384
  -1209804.61746   -919996.13344  23850377.8984                   23850377.6564
   2581748.53148   2017662.17246  20637347.3134                   20637344.7934
 11  8  2 15 58 30.0000000  0  9G03G06G13G20G23G19G32G07G16
  -8457862.64847  -6563722.10245  21268286.4924                   21268285.4384
  -5389863.07847  -4179065.16045  21976895.3364                   21976894.0394
  -9127547.81248  -7086693.23845  21354488.9844                   21354486.7624
   5542679.80147   4318056.97345  22151023.5164                   22151022.2424
  -5919559.60248  -4593402.26246  20047471.0084                   20047466.3014
  -3439387.79746  -2650487.51244  23227440.1564                   23227438.5864
   7787142.46547   6060412.21544  22989649.9614                   22989649.8794
  -1258960.05146   -958299.06644  23841023.5864                   23841023.4654
   2590343.16848   2024359.27746  20638983.0634                   20638980.2114
 11  8  2 15 58 45.0000000  0  9G03G06G13G20G23G19G32G07G16
  -8506124.30947  -6601328.59046  21259102.7194                   21259101.8014
  -5421553.38747  -4203758.89845  21970864.5554                   21970863.4104
  -9184424.59448  -7131012.80545  21343665.3594                   21343663.4654
   5561905.12547   4333037.71545  22154681.7504                   22154680.9384
  -5955614.79348  -4621497.22746  20040610.1254                   20040605.6414
  -3504414.39146  -2701157.56244  23215066.4144                   23215064.6294
   7813460.87947   6080920.01644  22994657.7814                   22994658.0634
  -1308125.39546   -996609.71144  23831668.0864                   23831668.1134
   2599024.65648   2031124.05546  20640634.8054                   20640631.7504
 11  8  2 15 59  0.0000000  0  9G03G06G13G20G23G19G32G07G16
  -8554291.29348  -6638861.30146  21249936.7344                   21249935.9104
  -5453139.12147  -4228371.16045  21964854.3754                   21964853.2274
  -9241265.28148  -7175304.25445  21332849.1254                   21332847.0474
   5581179.05147   4348056.32445  22158349.7814                   22158348.3364
  -5991581.80548  -4649523.47346  20033765.7424                   20033761.3594
  -3569439.33646  -2751826.30544  23202692.0634                   23202690.9224
   7839794.34447   6101439.54344  22999669.4844                   22999669.3284
  -1357299.59446  -1034927.26644  23822310.3834                   23822310.6644
   2607793.73848   2037957.09446  20642303.5314                   20642300.8874
 11  8  2 15 59 15.0000000  0  9G03G06G13G20G23G19G32G07G16
  -7026944.69948  -5448721.09445  21540580.9694                   21540579.9884
  -3909202.60947  -3025303.73045  22258655.2114                   22258654.4804
  -7722650.59048  -5991968.12545  21621831.8594                   21621829.8554
   7175915.11747   5590707.77345  22461818.1484                   22461816.7384
  -4452042.81248  -3449882.70346  20326730.2424                   20326725.9924
  -2059042.66046  -1574893.80144  23490111.8444                   23490109.7154
   9441555.91447   7349565.41044  23304474.7894                   23304474.2894
    168935.53546    154346.87944  24112743.0474                   24112743.0984
   4192064.69548   3272453.93446  20943780.3984                   20943777.9064
 11  8  2 15 59 30.0000000  0  9G03G06G13G20G23G19G32G07G16
  -7074927.19547  -5486110.05545  21531450.7344                   21531449.5044
  -3940584.39547  -3049757.07445  22252684.0634                   22252682.5554
  -7779424.33648  -6036207.39845  21611028.0704                   21611026.1644
   7195278.99247   5605796.48445  22465502.9064                   22465501.2234
  -4487838.78148  -3477775.67646  20319918.1804                   20319914.0634
  -2124069.19546  -1625563.79344  23477737.2344                   23477735.3484
   9467912.18847   7370102.72344  23309489.7344                   23309489.8444
    119737.10546    116010.44544  24103380.9144                   24103380.8594
   4201001.80548   3279417.89846  20945481.2344                   20945478.1644
 11  8  2 15 59 45.0000000  0  9G03G06G13G20G23G19G32G07G16
  -7122813.22347  -5523423.84445  21522338.3134                   21522336.7234
  -3971860.27347  -3074127.87945  22246732.2194                   22246730.5704
  -7836160.49648  -6080417.38345  21600231.6564                   21600229.6454
   7214691.09047   5620922.77745  22469196.6174                   22469195.3754
  -4523545.04748  -3505598.74646  20313123.8914                   20313119.1644
  -2189092.30946  -1676231.11344  23465363.9224                   23465362.2504
   9494282.93847   7390651.32844  23314508.0164                   23314507.7584
     70530.24246     77667.47744  24094017.1644                   24094017.0514
   4210026.25448   3286449.92246  20947198.2584                   20947195.4344
 11  8  2 16  0  0.0000000  0  9G03G06G13G20G23G19G32G07G16
  -7170604.58647  -5560663.85946  21513244.0004                   21513242.5234
  -4003032.12947  -3098417.63745  22240800.1254                   22240799.0904
  -7892860.94148  -6124599.55145  21589441.9844                   21589440.0824
   7234148.64547   5636084.48045  22472899.5554                   22472898.2854
  -4559163.59448  -3533353.46546  20306345.8984                   20306341.3674
  -2254113.89547  -1726897.23845  23452990.9064                   23452988.4614
   9520665.69547   7411209.27344  23319528.2194                   23319528.3444
     21312.65246     39316.11744  24084651.5084                   24084650.9614
   4219135.43448   3293547.97746  20948931.6804                   20948929.3284
 11  8  2 16  0 15.0000000  0  9G03G06G13G20G23G19G32G07G16
  -7218295.72348  -5597825.78146  21504168.4064                   21504166.8954
  -4034094.64547  -3122622.17645  22234889.2194                   22234888.0434
  -7949520.17648  -6168749.59845  21578659.9384                   21578657.8364
   7253656.50847   5651285.39145  22476611.6644                   22476610.3324
  -4594688.91448  -3561035.52346  20299585.7274                   20299581.0434
  -2319128.08647  -1777557.61344  23440618.6644                   23440616.6564
   9547065.40646   7431780.45344  23324552.2734                   23324551.9494
    -27910.43746       960.50844  24075284.2424                   24075284.1914
   4228334.22348   3300715.85546  20950682.4774                   20950679.6054
 11  8  2 16  0 30.0000000  0  9G03G06G13G20G23G19G32G07G16
  -7265890.21148  -5634912.38745  21495111.8364                   21495110.1174
  -4065051.40247  -3146744.33245  22228998.1804                   22228997.6334
  -8006141.76248  -6212870.30945  21567885.1954                   21567883.3754
   7273210.49647   5666522.23045  22480333.2504                   22480331.6294
  -4630124.67648  -3588647.81646  20292842.3444                   20292837.9224
  -2384138.46147  -1828215.00445  23428247.5314                   23428245.7974
   9573477.90646   7452361.56344  23329578.6174                   23329578.3874
    -77143.16446    -37402.62944  24065915.2194                   24065915.8134
   4237618.44148   3307950.29746  20952449.2344                   20952446.1724
 11  8  2 16  0 45.0000000  0  9G03G06G13G20G23G19G32G07G16
  -7313386.05948  -5671922.14545  21486073.2734                   21486071.8954
  -4095900.50447  -3170782.58645  22223128.2194                   22223126.9884
  -8062723.67248  -6256960.10545  21557117.8444                   21557116.1294
   7292811.99647   5681796.10945  22484062.9304                   22484061.6334
  -4665468.86348  -3616188.75046  20286116.6024                   20286112.2664
  -2449143.00847  -1878867.85544  23415877.6884                   23415876.0784
   9599904.39847   7472953.60244  23334607.3204                   23334607.1174
   -126383.82446    -75771.93744  24056544.7504                   24056545.0664
   4246989.55948   3315252.44946  20954232.0164                   20954229.2854
 11  8  2 16  1  0.0000000  0  9G03G06G13G20G23G19G32G07G16
  -7360790.76648  -5708860.87145  21477052.6094                   21477050.9804
  -4126649.70347  -3194742.99645  22217276.3524                   22217275.3674
  -8119273.47348  -6301024.87545  21546357.1174                   21546355.2734
   7312452.77047   5697100.58245  22487800.6334                   22487799.2114
  -4700729.16448  -3643664.30947  20279407.0084                   20279403.1024
  -2514148.95347  -1929521.79344  23403507.2194                   23403504.9734
   9626336.82847   7493550.25844  23339637.0004                   23339637.2544
   -175640.12146   -114153.42643  24047172.8524                   24047172.7194
   4256439.18048   3322615.77346  20956030.5864                   20956027.6644
 11  8  2 16  1 15.0000000  0  9G03G06G13G20G23G19G32G07G16
  -7408097.64548  -5745723.37546  21468050.6024                   21468049.1524
  -4157292.52047  -3218620.52045  22211445.9064                   22211444.5164
  -8175784.66448  -6345059.55546  21535603.1484                   21535601.4774
   7332138.54347   5712440.11745  22491546.6334                   22491545.1454
  -4735899.03948  -3671069.40646  20272714.0704                   20272709.8284
  -2579149.63347  -1980171.61744  23391138.6564                   23391136.1174
   9652780.98047   7514156.04744  23344669.2584                   23344669.6214
   -224905.91446   -152542.32044  24037798.1804                   24037797.3324
   4265973.38748   3330045.01246  20957844.8834                   20957841.9884
 11  8  2 16  1 30.0000000  0  9G03G06G13G20G23G19G32G07G16
  -7455306.33648  -5782509.36345  21459066.7344                   21459065.9694
  -4187828.53947  -3242414.81245  22205634.8134                   22205633.5704
  -8232256.60948  -6389063.67245  21524857.0864                   21524854.8364
   7351869.19947   5727814.62545  22495301.3054                   22495300.3094
  -4770978.11348  -3698403.75446  20266038.8204                   20266034.7384
  -2644144.60247  -2030817.00044  23378770.1884                   23378767.6024
   9679236.68447   7534770.85244  23349703.6094                   23349703.6414
   -274181.05146   -190938.51244  24028419.7584                   24028420.8914
   4275592.03148   3337540.04746  20959675.2424                   20959672.5394
 11  8  2 16  1 45.0000000  0  9G03G06G13G20G23G19G32G07G16
  -7502414.76248  -5819217.22746  21450102.0314                   21450101.2274
  -4218256.07047  -3266124.57845  22199844.6024                   22199843.0084
  -8288687.55148  -6433035.83645  21514118.4384                   21514116.4224
   7371645.91847   5743225.03145  22499064.4774                   22499063.4064
  -4805964.54348  -3725665.90646  20259381.2734                   20259376.9534
  -2709132.01247  -2081456.48844  23366403.6724                   23366400.9734
   9705705.18446   7555395.60544  23354740.1254                   23354740.7934
   -323464.30146   -229340.98443  24019041.6414                   24019042.4534
   4285296.25448   3345101.76246  20961521.8524                   20961519.0234
 11  8  2 16  2  0.0000000  0  9G03G06G13G20G23G19G32G07G16
  -7549425.07448  -5855848.62946  21441156.5314                   21441155.6454
  -4248577.33647  -3289751.53545  22194074.4384                   22194073.2304
  -8345079.71148  -6476977.77345  21503387.6644                   21503385.2384
   7391465.82447   5758669.09045  22502836.1484                   22502834.6454
  -4840860.58648  -3752857.62947  20252740.9064                   20252736.5044
  -2774113.87147  -2132091.66844  23354037.3984                   23354035.7344
   9732183.67246   7576028.14844  23359778.7344                   23359779.4414
   -372757.90246   -267751.57844  24009661.5474                   24009662.1644
   4295083.27348   3352728.00446  20963384.2664                   20963381.4144
 11  8  2 16  2 15.0000000  0  9G03G06G13G20G23G19G32G07G16
  -7596336.97748  -5892403.35946  21432229.5234                   21432228.4844
  -4278792.17247  -3313295.56645  22188324.7734                   22188323.6134
  -8401432.68448  -6520889.17646  21492664.0784                   21492661.6604
   7411328.69147   5774146.62545  22506616.1564                   22506614.8794
  -4875665.74648  -3779978.53147  20246117.6254                   20246113.1454
  -2839089.71947  -2182722.15644  23341673.3594                   23341670.7584
   9758671.90246   7596668.28544  23364819.9144                   23364819.7344
   -422061.90646   -306170.25444  24000279.3364                   24000279.5744
   4304952.99648   3360418.68046  20965262.5784                   20965259.4384
 11  8  2 16  2 30.0000000  0  9G03G06G13G20G23G19G32G07G16
  -7643149.14548  -5928880.36345  21423321.6884                   21423320.2234
  -4308899.39547  -3336755.72345  22182596.0234                   22182594.6134
  -8457745.05948  -6564768.94945  21481948.2274                   21481946.0984
   7431234.91847   5789657.93845  22510404.3054                   22510402.5984
  -4910378.91048  -3807027.75446  20239511.7504                   20239507.5314
  -2904058.31647  -2233346.98044  23329310.0474                   23329308.4184
   9785170.46946   7617316.46944  23369862.0634                   23369862.1844
   -471375.54746   -344596.43744  23990895.8674                   23990895.7704
   4314905.85948   3368174.14546  20967156.4534                   20967153.5944
 11  8  2 16  2 45.0000000  0  9G03G06G13G20G23G19G32G07G16
  -7689861.43048  -5965279.54745  21414432.5634                   21414430.9454
  -4338898.78147  -3360131.87545  22176886.7664                   22176886.1214
  -8514016.75048  -6608617.01646  21471239.5314                   21471237.9344
   7451184.30547   5805202.88345  22514200.1884                   22514198.7664
  -4944999.98048  -3834005.21146  20232923.5784                   20232919.1454
  -2969019.13347  -2283965.74644  23316948.0164                   23316946.2034
   9811679.00046   7637972.42644  23374907.4224                   23374907.0204
   -520698.82046   -383030.11744  23981509.8444                   23981510.0234
   4324941.61348   3375994.20346  20969065.9454                   20969063.2464
 11  8  2 16  3  0.0000000  0  9G03G06G13G20G23G19G32G07G16
  -7736474.74248  -6001601.60946  21405562.1484                   21405561.2234
  -4368791.60247  -3383424.97345  22171198.1174                   22171197.1454
  -8570248.92248  -6652434.29345  21460539.0084                   21460537.4224
   7471175.07047   5820780.08245  22518004.3054                   22518003.0204
  -4979529.89548  -3860911.63746  20226352.8674                   20226348.4964
  -3033973.29747  -2334579.34044  23304588.1484                   23304585.5904
   9838195.75846   7658634.79744  23379952.8984                   23379953.1334
   -570033.30946   -421472.55144  23972122.0084                   23972121.8094
   4335058.43448   3383877.41846  20970991.1564                   20970988.2274
 11  8  2 16  3 15.0000000  0  9G03G06G13G20G23G19G32G07G16
  -7782989.19148  -6037846.62546  21396711.0004                   21396709.3874
  -4398578.20747  -3406635.32045  22165530.6254                   22165529.3134
  -8626441.61748  -6696220.79745  21449846.0004                   21449844.2704
   7491206.21547   5836388.74245  22521816.2814                   22521815.1804
  -5013969.11748  -3887747.39546  20219799.2664                   20219794.9534
  -3098920.73047  -2385187.68744  23292228.3284                   23292226.0904
   9864719.86746   7679302.89544  23385000.1094                   23385000.4304
   -619379.41846   -459924.05944  23962730.9224                   23962731.4454
   4345255.50448   3391823.17646  20972931.4454                   20972929.0314
 11  8  2 16  3 30.0000000  0  9G03G06G13G20G23G19G32G07G16
  -7829401.53148  -6074012.08646  21387878.8134                   21387877.5784
  -4428255.39147  -3429760.39145  22159882.8674                   22159882.0704
  -8682591.54348  -6739973.98845  21439161.0314                   21439158.8554
   7511280.41847   5852030.94545  22525636.6564                   22525634.8404
  -5048314.51648  -3914510.04746  20213263.6174                   20213259.2194
  -3163858.21147  -2435788.27744  23279871.2734                   23279869.0124
   9891253.81646   7699978.65644  23390049.6884                   23390049.4494
   -668734.36746   -498382.42644  23953339.3444                   23953339.6054
   4355535.46148   3399833.51646  20974887.6884                   20974885.1994
 11  8  2 16  3 45.0000000  0  9G03G06G13G20G23G19G32G07G16
  -7875716.23848  -6110101.47346  21379065.2034                   21379064.4344
  -4457827.86347  -3452803.87145  22154255.6644                   22154254.3484
  -8738703.15248  -6783697.31245  21428483.5784                   21428481.5634
   7531392.38747   5867702.57845  22529463.8834                   22529462.1484
  -5082570.42248  -3941202.96546  20206744.7894                   20206740.4454
  -3228790.08246  -2486384.51244  23267515.0084                   23267512.8094
   9917792.67647   7720658.25844  23395099.9924                   23395099.8484
   -718102.80146   -536851.33644  23943944.8524                   23943945.0824
   4365893.30948   3407904.55946  20976859.0234                   20976856.3954
 11  8  2 16  4  0.0000000  0  9G03G06G13G20G23G19G32G07G16
  -7921928.07448  -6146110.69146  21370271.8444                   21370270.4024
  -4487290.32847  -3475761.63745  22148648.4844                   22148647.4264
  -8794771.15648  -6827386.66845  21417813.8984                   21417811.9454
   7551546.78147   5883407.27045  22533298.5474                   22533297.4414
  -5116731.57048  -3967822.03546  20200244.2664                   20200240.1024
  -3293710.94546  -2536972.15644  23255161.0234                   23255159.0784
   9944341.13747   7741345.33244  23400151.4304                   23400152.0434
   -767479.91047   -575326.98444  23934549.0864                   23934548.5084
   4376333.73048   3416039.93446  20978845.4924                   20978842.9774
 11  8  2 16  4 15.0000000  0  9G03G06G13G20G23G19G32G07G16
  -7968040.20348  -6182042.22346  21361496.7894                   21361495.5204
  -4516646.05547  -3498636.23445  22143062.7344                   22143061.5314
  -8850798.69948  -6871044.48046  21407152.2894                   21407150.0044
   7571739.82847   5899142.08245  22537141.2664                   22537139.9024
  -5150801.19948  -3994369.80147  20193761.1024                   20193756.7194
  -3358623.79347  -2587553.55544  23242808.7664                   23242806.7854
   9970895.25847   7762036.80944  23405205.1484                   23405205.1994
   -816869.15646   -613812.08644  23925150.6094                   23925150.4534
   4386852.81648   3424236.62146  20980847.3674                   20980844.4774
 11  8  2 16  4 30.0000000  0  9G03G06G13G20G23G19G32G07G16
  -8014051.08248  -6217894.85946  21352740.7814                   21352739.7934
  -4545893.79347  -3521426.67645  22137496.8834                   22137495.9884
  -8906784.42248  -6914669.71546  21396498.7584                   21396496.5164
   7591972.22747   5914907.55545  22540991.8364                   22540990.2974
  -5184778.11348  -4020845.32047  20187295.5554                   20187290.8444
  -3423527.33247  -2638127.71544  23230458.4694                   23230456.1484
   9997455.83647   7782733.30544  23410259.0164                   23410259.3914
   -866269.57047   -652305.89544  23915750.2664                   23915749.9104
   4397451.30548   3432495.16846  20982864.5394                   20982861.5164
 11  8  2 16  4 45.0000000  0  9G03G06G13G20G23G19G32G07G16
  -8059959.84848  -6253667.91846  21344005.2504                   21344003.5984
  -4575032.96147  -3544132.52345  22131952.4064                   22131951.1294
  -8962727.51648  -6958261.72746  21385852.9064                   21385850.9924
   7612244.07447   5930703.77045  22544849.0944                   22544847.6294
  -5218661.37948  -4047247.86747  20180847.4694                   20180843.0354
  -3488420.37146  -2688693.68044  23218109.4064                   23218107.1844
  10024023.16447   7803435.09044  23415314.6884                   23415314.9064
   -915680.63747   -690807.98844  23906347.1724                   23906347.8284
   4408129.54748   3440815.85946  20984896.3674                   20984893.6644
 11  8  2 16  5  0.0000000  0  9G03G06G13G20G23G19G32G07G16
  -8105766.45748  -6289361.38746  21335288.2504                   21335286.8834
  -4604063.78948  -3566753.94545  22126427.5474                   22126426.5004
  -9018628.27048  -7001820.74646  21375215.3364                   21375213.0824
   7632554.59047   5946530.12545  22548713.9844                   22548712.3284
  -5252451.34048  -4073577.70346  20174417.4384                   20174413.3284
  -3553303.11746  -2739251.63344  23205762.1484                   23205759.8914
  10050596.23447   7824141.34044  23420371.5634                   23420371.5204
   -965102.88746   -729318.80144  23896942.9454                   23896942.7584
   4418886.76248   3449198.09446  20986943.3594                   20986940.6484
 11  8  2 16  5 15.0000000  0  9G03G06G13G20G23G19G32G07G16
  -8151473.14548  -6324976.97746  21326590.2814                   21326589.1994
  -4632988.21947  -3589292.45745  22120923.3984                   22120922.2624
  -9074488.48048  -7045348.18446  21364585.4224                   21364583.3524
   7652901.04747   5962384.48045  22552586.1174                   22552584.3054
  -5286149.82448  -4099836.27046  20168004.9534                   20168000.5044
  -3618177.35947  -2789802.95344  23193417.0084                   23193415.3754
  10077172.59847   7844850.12944  23425429.1414                   23425429.3054
  -1014538.55546   -767840.09044  23887535.2974                   23887534.9144
   4429720.18048   3457639.70346  20989004.9614                   20989002.2384
 11  8  2 16  5 30.0000000  0  9G03G06G13G20G23G19G32G07G16
  -8197076.19548  -6360511.82446  21317912.5474                   21317911.1604
  -4661802.85247  -3611745.43045  22115440.7034                   22115439.3324
  -9130304.36748  -7088841.07046  21353964.1484                   21353962.0594
   7673286.55147   5978269.25045  22556465.3054                   22556463.7384
  -5319753.33648  -4126020.82846  20161610.1644                   20161606.0554
  -3683039.38747  -2840344.76244  23181074.5704                   23181072.3754
  10103755.30547   7865563.89844  23430487.3524                   23430487.5704
  -1063984.32047   -806369.24644  23878126.0554                   23878125.5274
   4440632.86348   3466143.08246  20991081.6724                   20991078.5514
 11  8  2 16  5 45.0000000  0  9G03G06G13G20G23G19G32G07G16
  -8242572.79748  -6395963.72746  21309255.0784                   21309253.6884
  -4690505.18047  -3634110.88745  22109978.3914                   22109977.4344
  -9186073.46548  -7132297.49646  21343351.3834                   21343349.9924
   7693713.17647   5994186.07845  22560352.5164                   22560351.2974
  -5353259.29748  -4152129.37546  20155234.3984                   20155230.0124
  -3747886.44547  -2890874.91844  23168734.3204                   23168731.6804
  10130346.37547   7886284.16044  23435548.0944                   23435547.8834
  -1113437.93746   -844904.51244  23868715.5554                   23868715.1644
   4451626.93048   3474709.87546  20993173.7974                   20993170.6254
 11  8  2 16  6  0.0000000  0  9G03G06G13G20G23G19G32G07G16
  -8287964.53148  -6431333.91046  21300617.0784                   21300616.1804
  -4719096.73047  -3656390.01645  22104537.7194                   22104536.2894
  -9241797.14148  -7175718.53946  21332747.5944                   21332745.8914
   7714178.66447   6010133.18445  22564246.8524                   22564245.6524
  -5386669.26648  -4178163.11347  20148877.1724                   20148872.5744
  -3812720.03946  -2941394.55944  23156396.5704                   23156394.6454
  10156943.41047   7907009.09044  23440608.6884                   23440608.9344
  -1162901.33246   -883447.37944  23859302.3914                   23859302.2734
   4462700.11348   3483338.32046  20995280.7194                   20995277.9844
 11  8  2 16  6 15.0000000  0  9G03G06G13G20G23G19G32G07G16
  -8333257.94948  -6466627.48446  21291998.1884                   21291996.8014
  -4747584.40247  -3678588.20745  22099116.4534                   22099115.5274
  -9297482.21948  -7219109.49646  21322151.5234                   21322148.9144
   7734675.40247   6026104.62945  22568146.7504                   22568145.7034
  -5419990.02348  -4204127.34446  20142536.2274                   20142531.5514
  -3877546.66847  -2991908.78544  23144060.2344                   23144058.8834
  10183539.14147   7927732.99644  23445669.5634                   23445669.5904
  -1212381.50446   -922003.33644  23849886.9774                   23849885.9884
   4473845.14548   3492022.74646  20997401.9304                   20997398.7664
 11  8  2 16  6 30.0000000  0  9G03G06G13G20G23G19G32G07G16
  -8378447.56248  -6501840.16846  21283398.8674                   21283397.5394
  -4775962.76647  -3700701.21145  22093716.5004                   22093715.2234
  -9353122.98448  -7262465.93446  21311563.0634                   21311561.1454
   7755208.41847   6042104.34445  22572054.5164                   22572052.8554
  -5453216.00448  -4230017.73047  20136213.5004                   20136209.1454
  -3942360.50447  -3042413.03144  23131727.2734                   23131725.1994
  10210138.68047   7948459.86344  23450731.9454                   23450731.8324
  -1261873.22746   -960568.27744  23840468.5784                   23840468.7664
   4485067.12548   3500767.12946  20999537.2894                   20999534.1564
 11  8  2 16  6 45.0000000  0  9G03G06G13G20G23G19G32G07G16
  -8423529.51648  -6536968.96546  21274819.9304                   21274818.8404
  -4804228.13347  -3722726.16845  22088337.4614                   22088336.9884
  -9408715.62148  -7305784.86746  21300983.9614                   21300981.9304
   7775780.78947   6058134.73444  22575969.4064                   22575967.8834
  -5486343.50048  -4255831.35947  20129909.2424                   20129904.4454
  -4007157.71147  -3092904.33645  23119396.6334                   23119395.0004
  10236745.19947   7969192.17644  23455794.6954                   23455795.1914
  -1311373.04746   -999139.53144  23831049.3914                   23831049.1994
   4496368.99648   3509573.77046  21001687.8984                   21001684.8834
 11  8  2 16  7  0.0000000  0  9G03G06G13G20G23G19G32G07G16
  -8468507.37948  -6572016.64846  21266261.1884                   21266259.3874
  -4832384.12547  -3744665.90245  22082979.8444                   22082978.5784
  -9464263.68448  -7349069.05546  21290413.6024                   21290411.7194
   7796388.40647   6074192.59045  22579890.8984                   22579889.5634
  -5519376.18048  -4281571.12146  20123623.4384                   20123618.9574
  -4071941.86347  -3143385.45344  23107068.4844                   23107066.3954
  10263354.41847   7989926.59844  23460858.5084                   23460858.2774
  -1360884.72346  -1037720.03944  23821627.3134                   23821627.2504
   4507746.70348   3518439.50446  21003853.0784                   21003850.3634
 11  8  2 16  7 15.0000000  0  9G03G06G13G20G23G19G32G07G16
  -8513380.61348  -6606982.80146  21257722.0234                   21257720.5744
  -4860430.51248  -3766520.23845  22077642.9224                   22077641.6994
  -9519766.67648  -7392318.13346  21279851.7664                   21279849.6414
   7817031.09047   6090277.77045  22583819.1954                   22583817.7274
  -5552313.54748  -4307236.60547  20117355.8754                   20117351.2774
  -4136712.30147  -3193855.89144  23094743.1884                   23094741.1414
  10289966.09447   8010662.93044  23465921.9924                   23465922.4964
  -1410408.34846  -1076309.84044  23812203.6884                   23812203.6684
   4519200.05147   3527364.17646  21006032.6804                   21006029.9494
 11  8  2 16  7 30.0000000  0  9G03G06G13G20G23G19G32G07G16
  -8558146.36348  -6641865.20746  21249203.4304                   21249202.0824
  -4888364.35247  -3788286.86745  22072326.9224                   22072326.2664
  -9575221.54348  -7435529.71546  21269299.0704                   21269296.8444
   7837711.12947   6106392.05945  22587754.3674                   22587753.2074
  -5585152.57848  -4332825.46947  20111106.7894                   20111102.3834
  -4201465.93047  -3244313.23844  23082420.7584                   23082418.4774
  10316582.76646   8031403.16044  23470987.0704                   23470987.6054
  -1459941.15646  -1114906.79344  23802778.1804                   23802778.0554
   4530731.41047   3536349.64146  21008226.4844                   21008224.2114
 11  8  2 16  7 45.0000000  0  9G03G06G13G20G23G19G32G07G16
  -8602807.68048  -6676666.23046  21240704.6644                   21240703.5004
  -4916189.10947  -3809968.49245  22067032.1954                   22067031.1684
  -9630631.60948  -7478706.37946  21258754.6644                   21258752.7424
   7858424.55547   6122532.35945  22591696.0164                   22591694.2734
  -5617896.80148  -4358340.44947  20104875.8444                   20104871.7544
  -4266205.85246  -3294759.89144  23070101.0474                   23070098.9414
  10343200.45346   8052144.18044  23476052.5234                   23476053.3714
  -1509486.73047  -1153513.69544  23793349.7584                   23793349.0634
   4542336.96947   3545392.91046  21010435.5084                   21010432.3554
 11  8  2 16  8  0.0000000  0  9G03G06G13G20G23G19G32G07G16
  -8647364.59048  -6711385.90246  21232225.6884                   21232224.5704
  -4943904.83247  -3831565.16045  22061758.2664                   22061756.8874
  -9685996.87948  -7521848.14546  21248219.5634                   21248217.2934
   7879170.72347   6138698.17245  22595643.9924                   22595642.5904
  -5650546.10548  -4383781.47347  20098662.5944                   20098658.4224
  -4330932.02047  -3345195.84044  23057784.3444                   23057781.7624
  10369818.59446   8072885.54344  23481117.7814                   23481118.3164
  -1559045.37946  -1192130.79344  23783918.9924                   23783918.8524
   4554016.10248   3554493.51646  21012657.7894                   21012655.3484
 11  8  2 16  8 15.0000000  0  9G03G06G13G20G23G19G32G07G16
  -8691813.32448  -6746021.27746  21223767.1414                   21223766.1684
  -4971508.07847  -3853074.18445  22056505.3054                   22056504.1804
  -9741313.56648  -7564952.05146  21237692.6024                   21237690.7624
   7899952.55147   6154891.77745  22599598.7664                   22599597.3794
  -5683096.89548  -4409145.73047  20092468.3364                   20092464.0554
  -4395640.57047  -3395618.05144  23045470.5164                   23045468.1094
  10396440.03946   8093629.47744  23486183.7274                   23486184.1454
  -1608613.90646  -1230755.58244  23774486.1884                   23774485.6884
   4565771.77348   3563653.77046  21014894.9224                   21014892.1914
 11  8  2 16  8 30.0000000  0  9G03G06G13G20G23G19G32G07G16
  -8736160.51648  -6780577.52746  21215328.2664                   21215326.9384
  -4999005.45347  -3874500.71145  22051272.7664                   22051271.7154
  -9796588.24248  -7608023.21546  21227174.5784                   21227172.7504
   7920762.93047   6171107.62545  22603559.2974                   22603557.4304
  -5715555.70748  -4434438.31647  20086291.8204                   20086287.5864
  -4460337.98047  -3446031.58245  23033158.7664                   23033156.7894
  10423057.73846   8114370.50444  23491249.2504                   23491249.1884
  -1658199.16046  -1269393.40644  23765050.0784                   23765049.3444
   4577596.98448   3572868.20346  21017145.1484                   21017142.1644
 11  8  2 16  8 45.0000000  0  9G03G06G13G20G23G19G32G07G16
  -8780402.65648  -6815051.92646  21206909.1954                   21206908.1024
  -5026393.55147  -3895842.09045  22046060.9534                   22046059.8594
  -9851817.49248  -7651058.98846  21216664.4924                   21216662.2854
   7941604.68447   6187347.93445  22607525.3284                   22607523.3094
  -5747919.26248  -4459656.66847  20080133.3444                   20080129.1134
  -4525020.52747  -3496433.53145  23020850.0394                   23020847.8954
  10449674.60246   8135110.84844  23496314.0164                   23496314.0164
  -1707797.95346  -1308041.79744  23755611.7734                   23755611.2304
   4589494.37147   3582138.88346  21019409.1644                   21019405.9144
 11  8  2 16  9  0.0000000  0  9G03G06G13G20G23G19G32G07G16
  -8824536.34448  -6849441.80946  21198511.0554                   21198509.7624
  -5053669.27347  -3917095.89545  22040870.6644                   22040869.8094
  -9906997.75448  -7694056.59846  21206164.2894                   21206162.1334
   7962480.42247   6203614.71145  22611496.8754                   22611495.7704
  -5780184.18448  -4484798.18047  20073993.3444                   20073988.8674
  -4589684.98047  -3546821.38345  23008544.7814                   23008543.0204
  10476293.28946   8155852.66844  23501379.0784                   23501379.3094
  -1757407.22346  -1346698.35944  23746171.4694                   23746171.0314
   4601466.68848   3591467.94546  21021687.3914                   21021684.4844
 11  8  2 16  9 15.0000000  0  9G03G06G13G20G23G19G32G07G16
  -8868562.34848  -6883747.78146  21190133.1024                   21190131.7734
  -5080833.56647  -3938262.87945  22035701.5394                   22035700.3244
  -9962129.93048  -7737016.72346  21195672.9454                   21195670.8134
   7983388.70347   6219906.84444  22615476.1564                   22615474.8134
  -5812351.29748  -4509863.46547  20067872.3054                   20067868.1094
  -4654331.89547  -3597195.56244  22996242.9844                   22996240.7814
  10502912.39146   8176594.78544  23506444.6254                   23506444.7234
  -1807028.25846  -1385364.05944  23736729.2584                   23736728.6094
   4613512.56648   3600854.32846  21023979.6954                   21023976.6214
 11  8  2 16  9 30.0000000  0  9G03G06G13G20G23G19G32G07G16
  -8912474.94548  -6917965.38346  21181776.9144                   21181775.5354
  -5107880.78147  -3959338.63745  22030554.4304                   22030553.4924
 -10017208.27348  -7779934.90246  21185192.0004                   21185189.4614
   8004334.56647   6236228.27044  22619461.8594                   22619460.6844
  -5844414.94548  -4534848.12947  20061770.7034                   20061766.2934
  -4718955.35547  -3647551.46544  22983945.6254                   22983943.3914
  10529537.05546   8197341.23844  23511511.4694                   23511511.4024
  -1856655.59046  -1424034.70344  23727285.5554                   23727285.0594
   4625637.19948   3610302.07846  21026286.8204                   21026284.4414
 11  8  2 16  9 45.0000000  0  9G03G06G13G20G23G19G32G07G16
  -8956280.45748  -6952099.55146  21173440.6094                   21173439.3404
  -5134817.31247  -3980328.14845  22025428.6564                   22025427.4104
 -10072239.00848  -7822815.99246  21174719.8754                   21174717.6994
   8025310.84447   6252573.38345  22623453.4534                   22623452.4804
  -5876381.53948  -4559757.16847  20055687.5864                   20055683.2664
  -4783561.61747  -3697893.97745  22971651.0784                   22971649.0594
  10556160.28946   8218086.58244  23516577.8594                   23516578.1884
  -1906295.88746  -1462715.42644  23717839.0944                   23717838.6374
   4637833.68448   3619805.81346  21028607.9304                   21028604.9454
 11  8  2 16 10  0.0000000  0  9G03G06G13G20G23G19G32G07G16
  -8999979.88748  -6986151.03946  21165124.9774                   21165124.0234
  -5161644.40247  -4001232.37945  22020323.6174                   22020322.3554
 -10127223.25448  -7865660.85246  21164256.8054                   21164254.5514
   8046316.09847   6268941.09045  22627450.6724                   22627449.7074
  -5908252.21548  -4584591.46147  20049623.0164                   20049618.6254
  -4848151.67647  -3748223.85545  22959360.1564                   22959357.8134
  10582780.38746   8238829.49644  23521643.5944                   23521643.5004
  -1955950.59046  -1501407.38744  23708390.2274                   23708389.7504
   4650100.06648   3629364.01646  21030942.1024                   21030939.2704
 11  8  2 16 10 15.0000000  0  9G03G06G13G20G23G19G32G07G16
  -9043571.06648  -7020118.18446  21156829.8834                   21156829.0984
  -5188360.04347  -4022049.77045  22015239.9304                   22015238.7734
 -10182158.65248  -7908467.65246  21153802.7424                   21153800.2344
   8067351.92247   6285332.61345  22631453.5474                   22631453.1024
  -5940024.75448  -4609349.28947  20043576.9144                   20043572.4104
  -4912723.12547  -3798539.23045  22947072.8834                   22947070.2464
  10609398.89546   8259571.14144  23526708.8524                   23526708.7934
  -2005617.71146  -1540109.02344  23698938.5554                   23698938.2344
   4662438.15648   3638978.10546  21033289.7814                   21033287.4884
 11  8  2 16 10 30.0000000  0  9G03G06G13G20G23G19G32G07G16
  -9087052.65648  -7053999.93446  21148555.1024                   21148554.4454
  -5214963.12147  -4042779.44545  22010177.7274                   22010176.5234
 -10237044.01248  -7951235.45746  21143358.3134                   21143356.2114
   8088418.76647   6301748.29745  22635462.6254                   22635461.9064
  -5971697.96548  -4634029.72347  20037549.7274                   20037545.5124
  -4977274.63347  -3848839.06645  22934789.4614                   22934787.3594
  10636016.50846   8280312.08644  23531773.8204                   23531774.1134
  -2055296.27746  -1578819.58244  23689485.2504                   23689484.9694
   4674848.46148   3648648.44946  21035651.5704                   21035648.8984
 11  8  2 16 10 45.0000000  0  9G03G06G13G20G23G19G32G07G16
  -9130426.69548  -7087797.88346  21140301.9844                   21140300.5664
  -5241455.68747  -4063423.01645  22005135.8364                   22005135.1684
 -10291881.31648  -7993965.82446  21132923.0864                   21132921.1374
   8109513.93047   6318186.05145  22639476.9694                   22639475.8094
  -6003274.03148  -4658634.44947  20031540.8364                   20031536.5514
  -5041808.03547  -3899124.80145  22922508.7274                   22922506.5594
  10662630.58646   8301050.28144  23536838.5784                   23536838.8014
  -2104988.79747  -1617540.99644  23680028.5474                   23680028.8134
   4687328.36748   3658373.03946  21038026.5234                   21038023.7384
 11  8  2 16 11  0.0000000  0  9G03G06G13G20G23G19G32G07G16
  -9173689.97748  -7121509.52746  21132068.7894                   21132067.6954
  -5267834.87947  -4083978.23045  22000116.2424                   22000115.1914
 -10346667.36348  -8036656.23846  21122497.9774                   21122495.6914
   8130639.90247   6334647.80945  22643497.1024                   22643496.0314
  -6034749.84848  -4683161.06247  20025551.3754                   20025547.1524
  -5106320.08247  -3949393.89145  22910232.1484                   22910229.8874
  10689243.61746   8321787.66044  23541902.8914                   23541903.5944
  -2154692.54346  -1656271.17644  23670570.8364                   23670570.5744
   4699880.46148   3668153.87546  21040415.0634                   21040412.1914
 11  8  2 16 11 15.0000000  0  9G03G06G13G20G23G19G32G07G16
  -9216844.64148  -7155136.53146  21123857.2344                   21123856.0234
  -5294102.93447  -4104446.85545  21995117.5164                   21995116.7504
 -10401404.23448  -8079308.34046  21112081.5084                   21112079.6374
   8151793.98847   6351131.49645  22647522.8914                   22647521.7034
  -6066127.67648  -4707611.32447  20019580.3754                   20019575.8054
  -5170812.80547  -3999647.91845  22897959.8524                   22897957.7304
  10715852.93846   8342522.14544  23546966.5784                   23546967.0124
  -2204409.80947  -1695011.88344  23661109.4304                   23661109.6844
   4712501.97347   3677988.80946  21042816.9454                   21042814.0274
 11  8  2 16 11 30.0000000  0  9G03G06G13G20G23G19G32G07G16
  -9259887.10548  -7188676.10946  21115666.6644                   21115665.1254
  -5320256.30947  -4124826.10945  21990140.6414                   21990139.7344
 -10456088.23448  -8121919.23846  21101675.5864                   21101673.5904
   8172979.01647   6367639.27745  22651554.2584                   22651552.6604
  -6097403.82448  -4731982.35547  20013628.6484                   20013624.3134
  -5235282.56247  -4049884.06645  22885691.7894                   22885689.3404
  10742461.48046   8363256.03544  23552030.4304                   23552030.6604
  -2254137.14146  -1733760.44944  23651646.1564                   23651646.3244
   4725195.97348   3687880.22346  21045232.5234                   21045229.3794
 11  8  2 16 11 45.0000000  0  9G03G06G13G20G23G19G32G07G16
  -9302814.19148  -7222125.77346  21107497.6024                   21107496.4064
  -5346291.92247  -4145113.61345  21985186.5554                   21985185.0354
 -10510716.11748  -8164486.41046  21091280.6564                   21091278.3164
   8194197.64147   6384173.24245  22655591.5394                   22655590.9064
  -6128575.04748  -4756271.62147  20007697.0394                   20007692.5594
  -5299725.84847  -4100099.57445  22873428.3984                   22873425.9064
  10769071.86346   8383991.34844  23557093.8054                   23557094.2584
  -2303871.93746  -1772514.81244  23642182.8444                   23642182.6334
   4737965.09448   3697830.17246  21047662.2734                   21047659.3594
 11  8  2 16 12  0.0000000  0  9G03G06G13G20G23G19G32G07G16
  -9345630.80948  -7255489.37146  21099349.8284                   21099348.7734
  -5372214.85247  -4165313.30945  21980253.1804                   21980252.0394
 -10565292.82048  -8207013.70346  21080894.6884                   21080892.6414
   8215444.37147   6400729.10544  22659635.0704                   22659633.7974
  -6159646.36748  -4780483.04747  20001784.2424                   20001780.0084
  -5364147.48447  -4150298.22345  22861169.1564                   22861167.0204
  10795678.54347   8404723.80544  23562156.6484                   23562157.1214
  -2353619.29346  -1811278.95344  23632715.6094                   23632716.2774
   4750803.68847   3707834.26246  21050105.3444                   21050102.9574
 11  8  2 16 12 15.0000000  0  9G03G06G13G20G23G19G32G07G16
  -9388341.02348  -7288770.05946  21091221.9844                   21091221.1054
  -5398029.62147  -4185428.71545  21975341.0084                   21975340.0164
 -10619822.63748  -8249504.45746  21070518.3054                   21070516.1564
   8236713.99647   6417302.79744  22663682.6884                   22663681.2274
  -6190622.20748  -4804620.06247  19995890.0944                   19995885.4144
  -5428551.72747  -4200483.30145  22848913.9534                   22848911.3094
  10822276.47746   8425449.42644  23567217.5944                   23567218.8714
  -2403383.82447  -1850056.47744  23623245.8284                   23623245.6254
   4763706.75048   3717888.58646  21052560.8284                   21052557.5434
 11  8  2 16 12 30.0000000  0  9G03G06G13G20G23G19G32G07G16
  -9430943.00848  -7321966.41046  21083115.4614                   21083114.4264
  -5423734.52047  -4205458.52045  21970449.5084                   21970448.5864
 -10674303.48848  -8291957.07046  21060150.4844                   21060148.1024
   8258007.77047   6433895.32044  22667735.0474                   22667733.1884
  -6221500.69148  -4828681.22747  19990013.8594                   19990009.3634
  -5492936.41047  -4250653.14545  22836661.3524                   22836659.0394
  10848867.07046   8446169.32844  23572278.2194                   23572278.8054
  -2453163.99646  -1888846.19544  23613772.7194                   23613772.5634
   4776675.62948   3727994.19946  21055028.8984                   21055025.8984
 11  8  2 16 12 45.0000000  0  9G03G06G13G20G23G19G32G07G16
  -9473432.27048  -7355074.91846  21075030.1024                   21075029.1724
  -5449324.98447  -4225399.13745  21965580.0314                   21965578.7584
 -10728730.95348  -8334368.06646  21049793.7274                   21049791.3244
   8279329.65647   6450509.75445  22671792.0164                   22671791.1914
  -6252277.36348  -4852663.05947  19984157.2194                   19984152.9264
  -5557297.01247  -4300804.23845  22824414.2344                   22824411.8284
  10875454.28946   8466886.59044  23577337.7034                   23577338.7074
  -2502955.68447  -1927644.87144  23604298.0474                   23604297.7114
   4789714.36748   3738154.23846  21057509.4694                   21057507.3634
 11  8  2 16 13  0.0000000  0  9G03G06G13G20G23G19G32G07G16
  -9515808.47348  -7388095.33646  21066966.0944                   21066964.9104
  -5474800.82047  -4245250.44145  21960732.1174                   21960731.3164
 -10783104.53948  -8376737.08646  21039446.3524                   21039444.3554
   8300679.51247   6467145.97745  22675854.9304                   22675854.0314
  -6282951.71548  -4876565.15647  19978320.0634                   19978315.7624
  -5621632.94547  -4350936.10945  22812171.5474                   22812168.9654
  10902037.94146   8487601.09844  23582396.5634                   23582397.0354
  -2552758.62147  -1966452.32444  23594820.7814                   23594820.8284
   4802822.69148   3748368.51246  21060004.1024                   21060001.4064
 11  8  2 16 13 15.0000000  0  9G03G06G13G20G23G19G32G07G16
  -9558069.62148  -7421026.09846  21058923.8054                   21058923.0004
  -5500160.38747  -4265011.14545  21955906.1254                   21955905.1254
 -10837422.39548  -8419062.68446  21029110.2504                   21029107.9064
   8322058.48447   6483804.87944  22679922.6254                   22679922.2304
  -6313522.18748  -4900386.30547  19972502.7424                   19972498.3984
  -5685942.28147  -4401047.24245  22799933.8204                   22799931.6374
  10928619.13746   8508313.66844  23587454.9454                   23587455.4384
  -2602571.55947  -2005267.55944  23585342.6724                   23585341.6844
   4816001.76648   3758637.91846  21062511.8754                   21062509.3364
 11  8  2 16 13 30.0000000  0  9G03G06G13G20G23G19G32G07G16
  -9600214.99248  -7453866.64546  21050904.5704                   21050902.6844
  -5525402.94147  -4284680.66845  21951103.1334                   21951101.8554
 -10891683.69148  -8461344.21146  21018784.6094                   21018782.3524
   8343466.64847   6500486.52345  22683997.3364                   22683996.2734
  -6343988.01648  -4924125.91447  19966705.3054                   19966700.7074
  -5750224.03147  -4451136.89545  22787701.7504                   22787699.1024
  10955198.13746   8529024.52344  23592513.0234                   23592512.9924
  -2652393.91047  -2044090.12544  23575861.2894                   23575860.9024
   4829251.89148   3768962.68046  21065033.6804                   21065030.8324
 11  8  2 16 13 45.0000000  0  9G03G06G13G20G23G19G32G07G16
  -9642247.60248  -7486619.33246  21042905.8284                   21042904.7154
  -5550531.73447  -4304261.54745  21946321.1644                   21946319.7384
 -10945891.36748  -8503583.95346  21008469.3284                   21008466.8634
   8364900.39147   6517188.10944  22688075.9614                   22688075.0434
  -6374352.21148  -4947786.32847  19960927.2504                   19960922.6884
  -5814481.05547  -4501207.27345  22775473.7194                   22775471.3094
  10981771.28546   8549730.85544  23597569.3364                   23597569.5554
  -2702228.87947  -2082922.54344  23566377.2584                   23566377.1484
   4842569.34848   3779339.90646  21067567.9614                   21067565.0434
 11  8  2 16 14  0.0000000  0  9G03G06G13G20G23G19G32G07G16
  -9684166.50048  -7519283.40646  21034928.6174                   21034927.5474
  -5575546.00847  -4323753.19545  21941561.0784                   21941559.6524
 -11000044.40648  -8545781.11746  20998164.2814                   20998161.8404
   8386359.91847   6533909.78144  22692159.7194                   22692158.3444
  -6404613.88748  -4971366.85947  19955168.7114                   19955164.0944
  -5878712.31247  -4551257.57845  22763250.7194                   22763248.7154
  11008338.95346   8570432.87544  23602625.1954                   23602625.5164
  -2752075.83647  -2121764.28144  23556892.5864                   23556891.5004
   4855954.46948   3789769.86346  21070115.3134                   21070112.4414
 11  8  2 16 14 15.0000000  0  9G03G06G13G20G23G19G32G07G16
  -9725970.43048  -7551857.89546  21026973.4144                   21026972.8914
  -5600444.63347  -4343154.71545  21936822.5474                   21936821.6644
 -11054141.60248  -8587934.77746  20987869.5944                   20987867.5594
   8407845.77347   6550651.97745  22696247.9534                   22696246.7194
  -6434771.96948  -4994866.67647  19949430.0234                   19949425.0984
  -5942916.45747  -4601286.74245  22751033.3134                   22751030.8404
  11034901.66046   8591131.04344  23607679.0704                   23607680.4064
  -2801934.06647  -2160614.79344  23547404.0234                   23547404.1174
   4869407.91848   3800253.06646  21072675.1094                   21072672.1294
 11  8  2 16 14 30.0000000  0  9G03G06G13G20G23G19G32G07G16
  -9767660.60548  -7584343.75446  21019040.1484                   21019039.2304
  -5625228.89847  -4362467.12145  21932106.0784                   21932105.1484
 -11108184.07448  -8630045.78946  20977585.8834                   20977583.6564
   8429356.09047   6567413.22744  22700340.9774                   22700340.3284
  -6464827.70348  -5018286.73847  19943710.1884                   19943705.6644
  -6007094.62147  -4651295.68745  22738820.4614                   22738817.3364
  11061457.64546   8611823.96543  23612733.0704                   23612733.6524
  -2851805.15647  -2199475.35544  23537913.2274                   23537913.7734
   4882927.77748   3810788.00446  21075247.6644                   21075244.9064
 11  8  2 16 14 45.0000000  0  9G03G06G13G20G23G19G32G07G16
  -9809237.77748  -7616741.55146  21011128.2734                   21011127.2664
  -5649899.96547  -4381691.32845  21927411.6174                   21927410.5634
 -11162172.66448  -8672114.81646  20967312.3134                   20967310.0234
   8450889.48847   6584192.46544  22704438.7424                   22704438.0514
  -6494781.93448  -5041627.69547  19938010.3364                   19938005.5004
  -6071247.37947  -4701284.83245  22726612.8754                   22726610.1564
  11088005.40246   8632510.50044  23617785.1644                   23617785.8324
  -2901690.13347  -2238346.71544  23528420.7814                   23528420.6764
   4896512.79348   3821373.71946  21077832.9614                   21077829.8984
 11  8  2 16 15  0.0000000  0  9G03G06G13G20G23G19G32G07G16
  -9850701.44948  -7649050.91046  21003238.3364                   21003236.8134
  -5674457.44547  -4400827.03145  21922738.4144                   21922737.6914
 -11216106.91848  -8714141.51246  20957048.8444                   20957046.3794
   8472445.75447   6600989.51244  22708541.0864                   22708539.9064
  -6524634.25448  -5064889.25047  19932329.3444                   19932324.9884
  -6135374.21947  -4751253.78145  22714408.9064                   22714406.9224
  11114544.83646   8653190.53144  23622835.2114                   23622835.8754
  -2951588.78946  -2277228.74644  23518925.5314                   23518925.1094
   4910162.90647   3832010.16046  21080430.5394                   21080428.0984
 11  8  2 16 15 15.0000000  0  9G03G06G13G20G23G19G32G07G16
  -9892050.37548  -7681270.84846  20995370.0554                   20995368.3984
  -5698900.28947  -4419873.39845  21918087.1484                   21918086.4304
 -11269985.55548  -8756124.85546  20946796.2894                   20946793.6954
   8494025.53547   6617804.90644  22712647.7584                   22712646.5204
  -6554383.52748  -5088070.51247  19926668.3364                   19926663.8404
  -6199473.74247  -4801201.43445  22702211.9224                   22702209.5004
  11141076.69146   8673864.65243  23627884.0474                   23627884.9964
  -3001500.19547  -2316120.72344  23509428.1254                   23509427.5864
   4923878.42648   3842697.56646  21083040.2274                   21083037.7274
 11  8  2 16 15 30.0000000  0 10G03G06G13G20G23G19G32G07G16G10
  -9933285.69948  -7713402.27346  20987522.9614                   20987521.7114
  -5723229.52747  -4438831.24645  21913457.4694                   21913456.1954
 -11323809.39848  -8798065.52046  20936553.7734                   20936551.4344
   8515627.11747   6634637.27344  22716758.6564                   22716757.1844
  -6584030.73448  -5111172.23847  19921026.7664                   19921022.3014
  -6263546.81647  -4851128.48045  22690018.5554                   22690016.7894
  11167599.17246   8694531.48843  23632931.0634                   23632931.9694
  -3051425.65647  -2355023.61344  23499927.7344                   23499927.1254
   4937657.84848   3853434.76646  21085662.5944                   21085659.7664
   4620047.56356   3621828.03553  24210496.7814                   24210495.9774
 11  8  2 16 15 45.0000000  0 10G03G06G13G20G23G19G32G07G16G10
  -9974404.67648  -7745443.03146  20979698.0164                   20979696.8364
  -5747442.56247  -4457698.54745  21908850.0474                   21908848.6604
 -11377575.66448  -8839961.30546  20926322.4224                   20926320.1564
   8537252.54747   6651488.23044  22720873.6094                   22720872.1334
  -6613573.28948  -5134192.41847  19915404.9534                   19915400.7464
  -6327590.53147  -4901032.65645  22677832.1174                   22677829.9414
  11194114.67246   8715192.87543  23637976.3364                   23637977.8524
  -3101362.73047  -2393935.58244  23490425.0784                   23490424.0234
   4951503.27348   3864223.39546  21088297.4304                   21088294.6954
   4574691.39546   3586485.53143  24201865.5394                   24201865.1994
 11  8  2 16 16  0.0000000  0 10G03G06G13G20G23G19G32G07G16G10
 -10015404.86748  -7777391.23046  20971896.2504                   20971894.5904
  -5771537.26247  -4476473.64145  21904264.8834                   21904263.8284
 -11431281.97748  -8881810.37546  20916102.5084                   20916100.2704
   8558903.60247   6668359.14844  22724993.8444                   22724992.3444
  -6643008.73048  -5157129.13347  19909803.6804                   19909799.4064
  -6391602.28147  -4950911.92245  22665650.5164                   22665648.4654
  11220624.83646   8735850.09443  23643022.3524                   23643022.3244
  -3151309.32447  -2432854.96944  23480920.3444                   23480919.6764
   4965416.55148   3875064.90246  21090945.0004                   21090942.1414
   4529436.64146   3551222.12942  24193253.6564                   24193253.4844
 11  8  2 16 16 15.0000000  0 10G03G06G13G20G23G19G32G07G16G10
 -10056292.71548  -7809251.89546  20964115.5234                   20964113.8484
  -5795520.28947  -4495161.71945  21899701.0004                   21899700.4224
 -11484934.70748  -8923617.70346  20905892.8984                   20905890.5314
   8580573.12147   6685244.44544  22729117.1484                   22729115.9414
  -6672343.66448  -5179987.53947  19904221.4144                   19904216.8094
  -6455588.41447  -5000771.21945  22653474.5704                   22653471.9844
  11247122.55046   8756497.61543  23648064.3674                   23648064.7344
  -3201272.39847  -2471787.20344  23471412.5084                   23471411.8054
   4979390.44148   3885953.63746  21093603.8444                   21093601.3054
   4484276.67646   3516032.51243  24184660.8594                   24184660.1644
 11  8  2 16 16 30.0000000  0 10G03G06G13G20G23G19G32G07G16G10
 -10097067.27748  -7841024.27346  20956356.4144                   20956355.0204
  -5819390.73847  -4513762.07845  21895158.8594                   21895157.8984
 -11538532.72348  -8965382.39546  20895693.3284                   20895690.8324
   8602261.59447   6702144.51244  22733244.4224                   22733243.6484
  -6701577.13748  -5202766.87947  19898658.3754                   19898653.9224
  -6519547.72347  -5050609.63745  22641303.6804                   22641300.9774
  11273608.14146   8777135.69543  23653104.4454                   23653104.6764
  -3251251.05547  -2510731.57844  23461902.3594                   23461901.9534
   4993425.53548   3896890.05946  21096274.7814                   21096272.1134
   4439212.57046   3480917.62543  24176083.8754                   24176085.1604
 11  8  2 16 16 45.0000000  0 10G03G06G13G20G23G19G32G07G16G10
 -10137732.18048  -7872711.22746  20948618.1254                   20948616.9304
  -5843152.39147  -4532277.64545  21890636.7814                   21890636.0004
 -11592079.89848  -9007107.46546  20885503.3674                   20885501.2974
   8623964.62147   6719055.92644  22737374.5864                   22737373.4654
  -6730712.95348  -5225470.11747  19893113.8134                   19893109.6914
  -6583483.87147  -5100430.01245  22629136.8204                   22629134.2814
  11300077.36746   8797761.00443  23658141.6564                   23658141.9104
  -3301249.40647  -2549691.30144  23452387.3364                   23452387.3364
   5007517.52348   3907870.81646  21098956.5554                   21098953.8164
   4394240.42446   3445874.38243  24167527.0704                   24167527.7464
 11  8  2 16 17  0.0000000  0 10G03G06G13G20G23G19G32G07G16G10
 -10178282.48848  -7904308.86746  20940901.3204                   20940899.8674
  -5866800.69147  -4550704.89545  21886136.8204                   21886135.9184
 -11645571.44548  -9048789.19946  20875324.5634                   20875322.3014
   8645686.27347   6735981.87144  22741508.3524                   22741506.3134
  -6759746.25048  -5248093.48047  19887589.2664                   19887584.8914
  -6647391.94547  -5150228.50045  22616975.5944                   22616973.2704
  11326534.63346   8818377.01643  23663175.8134                   23663176.6134
  -3351262.95347  -2588662.87544  23442870.1644                   23442869.6764
   5021670.66848   3918899.22346  21101650.1334                   21101647.0594
   4349364.95346   3410906.50843  24158986.9924                   24158987.9574
 11  8  2 16 17 15.0000000  0 10G03G06G13G20G23G19G32G07G16G10
 -10218718.39548  -7935817.37146  20933206.9304                   20933205.8794
  -5890335.96147  -4569044.06645  21881658.2814                   21881657.1054
 -11699007.13348  -9090427.39546  20865156.0084                   20865153.7774
   8667425.93447   6752921.84444  22745644.5474                   22745643.6914
  -6788677.29748  -5270637.15647  19882084.0314                   19882079.7894
  -6711271.88747  -5200005.06245  22604819.3204                   22604817.5554
  11352979.17247   8838983.11343  23668208.2194                   23668208.9384
  -3401292.03947  -2627646.55144  23433350.0634                   23433349.2384
   5035884.12148   3929974.62546  21104354.6954                   21104351.8874
   4304585.69146   3376013.56343  24150465.7034                   24150466.7194
 11  8  2 16 17 30.0000000  0 10G03G06G13G20G23G19G32G07G16G10
 -10259041.37148  -7967237.85946  20925533.1414                   20925532.4534
  -5913759.68747  -4587296.33245  21877200.9064                   21877199.8594
 -11752388.35948  -9132023.16046  20854998.0634                   20854995.7424
   8689181.50447   6769874.19544  22749784.6884                   22749784.2154
  -6817507.52048  -5293102.28147  19876597.4454                   19876593.5434
  -6775124.90647  -5249760.64545  22592669.2894                   22592666.6334
  11379408.82446   8859577.61743  23673237.1804                   23673238.6914
  -3451338.41447  -2666643.70344  23423826.9384                   23423825.9574
   5050155.95348   3941095.51246  21107070.5004                   21107067.8874
   4259901.20345   3341194.51643  24141962.5554                   24141963.5234
 11  8  2 16 17 45.0000000  0 10G03G06G13G20G23G19G32G07G16G10
 -10299247.07848  -7998566.98046  20917882.3204                   20917881.5984
  -5937067.63347  -4605458.37545  21872764.8754                   21872764.5004
 -11805710.71948  -9173573.05546  20844851.0634                   20844848.6214
   8710956.77047   6786841.90244  22753928.4224                   22753927.3954
  -6846232.73848  -5315485.57847  19871131.3284                   19871127.0664
  -6838946.47347  -5299491.71145  22580524.1254                   22580521.7424
  11405827.39546   8880163.47343  23678265.3754                   23678266.1684
  -3501398.04347  -2705651.18744  23414300.5084                   23414299.9454
   5064489.90648   3952264.81646  21109798.1174                   21109795.4344
   4215315.80545   3306452.63342  24133478.8674                   24133479.5004
 11  8  2 16 18  0.0000000  0 10G03G06G13G20G23G19G32G07G16G10
 -10339337.30548  -8029806.11746  20910254.0084                   20910252.2114
  -5960261.88347  -4623531.82045  21868351.6094                   21868351.0904
 -11858976.16448  -9215078.60246  20834715.0394                   20834712.6374
   8732749.03947   6803822.86344  22758075.5634                   22758074.3094
  -6874854.77048  -5337788.46547  19865684.9614                   19865680.6484
  -6902738.43447  -5349199.71945  22568385.0394                   22568382.7194
  11432232.48046   8900738.79743  23683289.8674                   23683290.7234
  -3551472.94147  -2744670.57044  23404771.7504                   23404770.9694
   5078883.39848   3963480.50446  21112537.0704                   21112534.7704
   4170827.46545   3271786.39143  24125011.7114                   24125013.3524
 11  8  2 16 18 15.0000000  0 10G03G06G13G20G23G19G32G07G16G10
 -10379312.31248  -8060955.46946  20902646.8204                   20902645.6024
  -5983342.87947  -4641517.02045  21863959.6804                   21863958.4344
 -11912184.78948  -9256539.87146  20824589.9844                   20824587.4344
   8754557.49647   6820816.42644  22762225.3444                   22762224.2974
  -6903373.90648  -5360011.18047  19860257.9384                   19860253.4224
  -6966500.88347  -5398884.73045  22556251.2584                   22556248.7384
  11458623.22746   8921302.96544  23688311.6644                   23688312.5514
  -3601563.82847  -2783702.39544  23395239.4454                   23395238.9344
   5093335.76248   3974742.07446  21115287.1954                   21115284.8324
   4126435.98845   3237195.64842  24116564.9304                   24116566.1484
 11  8  2 16 18 30.0000000  0 10G03G06G13G20G23G19G32G07G16G10
 -10419172.50448  -8092015.35246  20895061.5864                   20895060.5004
  -6006311.26247  -4659414.46145  21859588.6724                   21859588.0474
 -11965337.16448  -9297957.30546  20814475.2034                   20814472.9844
   8776380.90647   6837821.65244  22766378.4614                   22766377.2464
  -6931790.88348  -5382154.28947  19854850.1024                   19854845.8444
  -7030234.28147  -5448547.11345  22544122.5314                   22544120.1644
  11484998.41447   8941855.01644  23693330.4694                   23693331.7814
  -3651671.68747  -2822747.46144  23385704.2504                   23385703.3404
   5107845.85548   3986048.61746  21118048.3594                   21118045.9614
   4082140.59445   3202679.78942  24108135.5944                   24108136.9184
 11  8  2 16 18 45.0000000  0 10G03G06G13G20G23G19G32G07G16G10
 -10458914.69948  -8122983.29746  20887498.8834                   20887497.7704
  -6029163.91847  -4677221.74245  21855239.7734                   21855239.2504
 -12018429.73848  -9339328.14546  20804372.0004                   20804369.7734
   8798222.18047   6854840.79344  22770534.0864                   22770533.7424
  -6960102.25048  -5404215.10247  19849462.5234                   19849458.4264
  -7093934.91847  -5498183.95345  22532000.9534                   22531998.7504
  11511360.83247   8962397.10244  23698347.1564                   23698348.5354
  -3701793.27047  -2861803.22344  23376166.4614                   23376165.5594
   5122416.25048   3997402.15646  21120821.0394                   21120818.3524
   4037944.71946   3168241.46542  24099725.5704                   24099726.1994
 11  8  2 16 19  0.0000000  0 10G03G06G13G20G23G19G32G07G16G10
  -8923118.48448  -6926258.97346  21179751.5394                   21179749.9924
  -4476481.77747  -3467339.56645  22150705.4384                   22150704.8754
 -10496041.22348  -8153051.37146  21094073.0234                   21094070.4844
  10395496.84047   8099470.35944  23074485.8914                   23074485.0234
  -5412888.54748  -4198594.04347  20143887.7194                   20143883.3094
  -5582180.61747  -4320193.57045  22819678.5634                   22819676.0274
  13113125.94147  10210525.71543  24003153.2424                   24003154.2384
  -2176507.73847  -1673269.01244  23666418.5314                   23666417.9104
   6712463.16048   5236399.73046  21423397.2034                   21423394.2384
   5569268.72345   4361480.94943  24391126.8674                   24391127.0824
 11  8  2 16 19 15.0000000  0 10G03G06G13G20G23G19G32G07G16G10
  -8962623.68448  -6957042.24646  21172233.7664                   21172232.3554
  -4499102.31647  -3484965.96945  22146401.4454                   22146400.5084
 -10549013.02748  -8194328.10546  21083992.4694                   21083990.4184
  10417372.73047   8116516.48044  23078649.1254                   23078647.9144
  -5440987.99249  -4220489.72347  20138540.4224                   20138536.0394
  -5645814.32847  -4369778.26245  22807569.2664                   22807567.2504
  13139462.34047  10231047.53544  24008165.1644                   24008166.5204
  -2226656.63347  -1712346.05544  23656875.0634                   23656875.3874
   6727153.50048   5247846.73446  21426192.5704                   21426190.0204
   5525272.12146   4327197.89543  24382754.4774                   24382754.6764
 11  8  2 16 19 30.0000000  0 10G03G06G13G20G23G19G32G07G16G10
  -9002008.91448  -6987732.02746  21164738.7734                   21164737.3874
  -4521605.57447  -3502500.98445  22142119.1254                   22142118.1214
 -10601922.78548  -8235556.48846  21073924.3444                   21073921.7114
  10439266.48447   8133576.53544  23082815.2194                   23082814.1604
  -5468980.03148  -4242301.70747  20133214.0554                   20133209.6054
  -5709412.77347  -4419335.46545  22795467.1564                   22795465.0664
  13165786.22747  10251559.60544  24013174.0474                   24013175.1134
  -2276818.04747  -1751432.82044  23647330.0554                   23647329.5784
   6741904.66048   5259341.12546  21428999.8054                   21428997.0394
   5481376.63746   4292993.64543  24374401.6414                   24374402.4104
 11  8  2 16 19 45.0000000  0 10G03G06G13G20G23G19G32G07G16G10
  -9041277.61348  -7018331.00446  21157266.3754                   21157264.9804
  -4543995.02047  -3519947.30545  22137858.3674                   22137857.4844
 -10654774.09448  -8276739.33246  21063866.9844                   21063864.8014
  10461174.20347   8150647.44544  23086983.4064                   23086982.8014
  -5496868.16448  -4264032.73047  20127906.9454                   20127902.4534
  -5772979.36347  -4468867.85945  22783370.7344                   22783368.6844
  13192093.61347  10272058.82044  24018180.3594                   24018181.3284
  -2326995.75447  -1790532.30544  23637781.0474                   23637780.9924
   6756712.43848   5270879.64146  21431817.6484                   21431814.8484
   5437578.74645   4258865.45743  24366067.2034                   24366068.2194
 11  8  2 16 20  0.0000000  0 10G03G06G13G20G23G19G32G07G16G10
  -9080429.41848  -7048838.89846  21149815.8674                   21149814.9184
  -4566270.77747  -3537305.04745  22133619.2894                   22133618.4414
 -10707566.49648  -8317876.26246  21053820.9844                   21053818.6254
  10483095.42647   8167728.88744  23091155.1804                   23091153.8954
  -5524652.21148  -4285682.63747  20122619.6724                   20122615.4734
  -5836513.62147  -4518375.06245  22771280.3284                   22771278.0514
  13218384.19947  10292544.94543  24023183.1724                   24023183.9844
  -2377189.91046  -1829644.57844  23628229.6174                   23628229.3054
   6771576.47348   5282461.98846  21434646.0704                   21434643.3754
   5393878.55546   4224813.33643  24357751.1094                   24357751.7194
 11  8  2 16 20 15.0000000  0 10G03G06G13G20G23G19G32G07G16G10
  -9119458.40648  -7079251.09846  21142389.2344                   21142387.1134
  -4588426.86747  -3554569.53545  22129403.4224                   22129402.3634
 -10760294.01648  -8358962.64146  21043786.8054                   21043784.8134
  10505035.23847   8184824.81644  23095330.7114                   23095329.6994
  -5552326.24248  -4307246.82847  20117353.6334                   20117349.3754
  -5900009.51247  -4567852.35945  22759197.1724                   22759194.7034
  13244663.34847  10313022.18043  24028184.1954                   24028184.5164
  -2427394.77347  -1868765.23044  23618676.4144                   23618675.1484
   6786502.19948   5294092.41446  21437486.4144                   21437483.5594
   5350281.79346   4190841.84443  24349455.0234                   24349455.2734
 11  8  2 16 20 30.0000000  0 10G03G06G13G20G23G19G32G07G16G10
  -9158367.09848  -7109569.55546  21134984.8754                   21134983.7504
  -4610466.14847  -3571743.01645  22125209.1334                   22125208.3014
 -10812959.08248  -8400000.34846  21033765.3284                   21033762.9414
  10526990.62947   8201932.87545  23099508.2734                   23099507.7154
  -5579892.84048  -4328727.29747  20112107.8284                   20112103.5824
  -5963469.26247  -4617301.50845  22747121.2734                   22747119.0944
  13270927.98047  10333488.08243  24033182.4064                   24033182.9734
  -2477613.11347  -1907896.36744  23609119.7114                   23609118.7464
   6801486.53148   5305768.50046  21440337.6724                   21440334.8594
   5306785.73446   4156948.82443  24341178.7034                   24341179.0164
 11  8  2 16 20 45.0000000  0 10G03G06G13G20G23G19G32G07G16G10
  -9197157.74248  -7139796.02346  21127603.3594                   21127601.6954
  -4632390.82847  -3588827.18045  22121037.2814                   22121036.0704
 -10865563.72348  -8440990.97346  21023755.2114                   21023752.8164
  10548958.82447   8219050.92244  23103688.4844                   23103688.1954
  -5607354.29349  -4350125.83647  20106882.2034                   20106877.6684
  -6026894.90647  -4666724.07445  22735052.1884                   22735049.7544
  13297175.35247  10353940.52043  24038177.5004                   24038178.0204
  -2527847.34847  -1947039.91044  23599560.9924                   23599559.8714
   6816526.80948   5317488.18846  21443200.0084                   21443197.1374
   5263388.35946   4123132.71143  24332919.8204                   24332920.4264
 11  8  2 16 21  0.0000000  0 10G03G06G13G20G23G19G32G07G16G10
  -9235828.62948  -7169929.17646  21120244.6484                   21120243.3204
  -4654199.44147  -3605820.89845  22116886.9694                   22116886.6294
 -10918106.39548  -8481933.30946  21013756.5784                   21013754.2274
  10570940.91046   8236179.77044  23107871.8914                   23107871.2304
  -5634709.12548  -4371441.28947  20101676.6024                   20101672.3324
  -6090284.77347  -4716118.75845  22722989.6254                   22722987.3554
  13323406.44946  10374380.30943  24043169.0164                   24043169.2934
  -2578096.28947  -1986194.89544  23589998.3284                   23589997.8874
   6831623.66848   5329251.96546  21446072.4844                   21446069.8554
   5220091.00846   4089394.49243  24324680.7274                   24324680.9884
 11  8  2 16 21 15.0000000  0 10G03G06G13G20G23G19G32G07G16G10
  -9274381.91848  -7199970.69946  21112908.1644                   21112906.5474
  -4675894.39147  -3622726.06245  22112758.8674                   22112757.7894
 -10970589.12948  -8522828.93746  21003769.6094                   21003767.1174
  10592934.06647   8253317.27744  23112057.2034                   23112056.4384
  -5661959.47348  -4392675.32847  20096491.0474                   20096486.7504
  -6153640.88347  -4765487.14545  22710933.0554                   22710930.7384
  13349618.57847  10394805.29743  24048156.9924                   24048157.2424
  -2628362.58646  -2025363.40244  23580433.8674                   23580432.8914
   6846774.53948   5341057.82046  21448955.6954                   21448953.0084
   5176891.48846   4055732.53543  24316460.6024                   24316460.7894
 11  8  2 16 21 30.0000000  0 10G03G06G13G20G23G19G32G07G16G10
  -9312814.03148  -7229917.79746  21105594.4924                   21105593.1644
  -4697472.07847  -3639539.85245  22108652.4844                   22108651.5124
 -11023008.12948  -8563674.91046  20993794.2504                   20993792.1454
  10614941.34847   8270465.76644  23116245.0234                   23116243.9694
  -5689101.66049  -4413825.09047  20091325.9694                   20091321.8364
  -6216959.14147  -4814826.02745  22698883.9064                   22698881.6174
  13375814.85947  10415217.92243  24053141.6884                   24053142.4964
  -2678642.27747  -2064542.34844  23570865.4454                   23570864.4494
   6861982.68848   5352908.31346  21451849.8674                   21451847.2584
   5133793.39546   4022149.61743  24308259.4064                   24308259.4734
 11  8  2 16 21 45.0000000  0 10G03G06G13G20G23G19G32G07G16G10
  -9351125.23048  -7259770.67246  21098303.9064                   21098302.9924
  -4718933.12147  -3656262.73845  22104568.6884                   22104567.7464
 -11075363.67248  -8604471.43046  20983831.5784                   20983829.2584
  10636961.70347   8287624.45744  23120435.2114                   23120433.9694
  -5716136.24648  -4434890.99647  20086181.7424                   20086177.2734
  -6280239.98847  -4864135.76645  22686842.0084                   22686839.8284
  13401994.35246  10435617.48043  24058124.1094                   24058124.0864
  -2728936.19147  -2103732.37144  23561294.1884                   23561293.6334
   6877247.13348   5364802.66846  21454754.4844                   21454751.6024
   5090796.13346   3988645.27043  24300076.6024                   24300077.2854
 11  8  2 16 22  0.0000000  0 10G03G06G13G20G23G19G32G07G16G10
  -9389314.55548  -7289528.57846  21091037.1094                   21091035.6454
  -4740276.72347  -3672894.11745  22100507.5864                   22100506.3674
 -11127654.78548  -8645217.75046  20973880.9534                   20973878.6524
  10658995.51647   8304793.63744  23124628.9304                   23124627.1024
  -5743062.09848  -4455872.18447  20081057.8674                   20081053.4414
  -6343482.20747  -4913415.40245  22674807.8054                   22674804.7504
  13428157.33646  10456004.15644  24063102.0944                   24063103.0664
  -2779243.74247  -2142933.03544  23551721.5634                   23551720.2234
   6892568.24648   5376741.18446  21457670.3134                   21457667.3794
   5047900.72347   3955220.27343  24291914.7974                   24291915.1054
 11  8  2 16 22 15.0000000  0 10G03G06G13G20G23G19G32G07G16G10
  -9427382.64148  -7319192.02046  21083792.9304                   21083791.5744
  -4761503.52047  -3689434.47345  22096467.8364                   22096466.9414
 -11179881.86348  -8685914.17246  20963942.4064                   20963939.7974
  10681041.50847   8321972.30144  23128822.9064                   23128822.5864
  -5769879.86348  -4476769.14547  20075954.5634                   20075950.4144
  -6406686.39147  -4962665.41445  22662779.7584                   22662777.8484
  13454302.79346  10476377.19544  24068078.2894                   24068079.0274
  -2829565.96546  -2182145.11744  23542145.4534                   23542144.5274
   6907944.76248   5388722.87146  21460596.0704                   21460593.5744
   5005106.36746   3921874.02343  24283770.6644                   24283771.1334
 11  8  2 16 22 30.0000000  0 10G03G06G13G20G23G19G32G07G16G10
  -9465326.28947  -7348758.49646  21076572.4844                   21076571.4184
  -4782610.63347  -3705881.57845  22092451.7814                   22092450.4304
 -11232041.68748  -8726558.18746  20954016.5704                   20954014.5164
  10703102.27347   8339162.46544  23133021.8204                   23133020.8164
  -5796586.57848  -4497579.56647  20070872.4454                   20070868.1054
  -6469848.88347  -5011882.93445  22650760.9534                   22650758.2584
  13480433.38746  10496738.61343  24073050.4774                   24073051.5664
  -2879899.71147  -2221366.16044  23532567.4064                   23532566.3714
   6923379.34848   5400749.79746  21463533.1884                   21463530.7544
   4962416.32446   3888609.03944  24275647.4774                   24275647.6024
 11  8  2 16 22 45.0000000  0 10G03G06G13G20G23G19G32G07G16G10
  -9503147.00848  -7378229.18746  21069375.5634                   21069374.1134
  -4803599.69547  -3722236.68745  22088457.1724                   22088455.9964
 -11284135.77748  -8767150.97346  20944103.4064                   20944100.8404
  10725175.69547   8356362.50044  23137222.2274                   23137221.0044
  -5823183.88349  -4518304.73847  20065811.1024                   20065806.5594
  -6532971.14147  -5061069.08645  22638749.0634                   22638746.6844
  13506546.92246  10517086.77043  24078018.8444                   24078020.7774
  -2930246.77346  -2260597.60244  23522986.0704                   23522985.7154
   6938869.89148   5412820.33646  21466481.0784                   21466478.6724
   4919828.59046   3855423.78143  24267542.8444                   24267543.4614
 11  8  2 16 23  0.0000000  0 10G03G06G13G20G23G19G32G07G16G10
  -9540843.77747  -7407603.29346  21062201.8674                   21062200.7074
  -4824469.81247  -3738499.11345  22084485.5234                   22084484.5744
 -11336162.89148  -8807691.57446  20934202.9774                   20934200.2734
  10747262.25047   8373572.77744  23141425.0554                   23141423.7974
  -5849670.63349  -4538943.76647  20060770.6954                   20060766.5514
  -6596051.96147  -5110222.95345  22626745.0784                   22626742.7504
  13532643.84846  10537421.97743  24082985.3204                   24082987.1524
  -2980606.50846  -2299838.93044  23513402.8754                   23513402.2704
   6954416.87148   5424934.85246  21469439.5784                   21469436.8404
   4877344.44946   3822319.24644  24259458.2034                   24259459.0164
 11  8  2 16 23 15.0000000  0 10G03G06G13G20G23G19G32G07G16G10
  -9578417.22748  -7436881.30546  21055051.8594                   21055050.6174
  -4845221.89547  -3754669.55945  22080537.5084                   22080535.9574
 -11388123.66448  -8848180.48446  20924315.0394                   20924313.0514
  10769360.67647   8390792.30544  23145630.3524                   23145629.0944
  -5876047.71948  -4559497.34447  20055751.2974                   20055747.2074
  -6659091.90647  -5159344.97345  22614748.4384                   22614746.3134
  13558723.05946  10557743.37543  24087947.8444                   24087949.3914
  -3030979.78147  -2339090.79344  23503816.9454                   23503816.1724
   6970019.00848   5437092.34446  21472408.7114                   21472405.7504
   4834962.94146   3789294.70744  24251393.9924                   24251394.0824
 11  8  2 16 23 30.0000000  0 10G03G06G13G20G23G19G32G07G16G10
  -9615869.06648  -7466064.55946  21047925.1094                   21047923.9264
  -4865857.60247  -3770749.32845  22076610.0314                   22076608.2974
 -11440019.62148  -8888618.87946  20914439.8364                   20914437.8444
  10791468.83647   8408019.41444  23149837.4614                   23149836.8094
  -5902316.62948  -4579966.62547  20050752.6884                   20050748.3054
  -6722092.34847  -5208436.21945  22602760.3594                   22602757.8714
  13584782.32446  10578049.21943  24092906.9144                   24092907.9964
  -3081368.28946  -2378354.54344  23494228.9454                   23494227.6484
   6985674.19948   5449291.18046  21475387.3984                   21475384.6134
   4792682.37146   3756348.81644  24243347.6484                   24243348.0824
 11  8  2 16 23 45.0000000  0 10G03G06G13G20G23G19G32G07G16G10
  -9653195.68747  -7495150.23446  21040822.1564                   21040821.0044
  -4886373.60547  -3786735.81645  22072706.4614                   22072704.9264
 -11491847.23048  -8929004.03146  20904577.4384                   20904575.0784
  10813589.62947   8425256.36744  23154046.9534                   23154046.5274
  -5928473.87148  -4600348.89147  20045775.0554                   20045770.9024
  -6785049.55147  -5257493.76645  22590780.1564                   22590777.5944
  13610824.67246  10598341.91443  24097863.2424                   24097864.2274
  -3131768.94146  -2417627.75044  23484637.4694                   23484637.0354
   7001385.43448   5461533.68446  21478377.3594                   21478374.3324
   4750506.23046   3723484.28143  24235321.9384                   24235322.4414
 11  8  2 16 24  0.0000000  0 10G03G06G13G20G23G19G32G07G16G10
  -9690404.23447  -7524143.90646  21033741.6254                   21033740.1294
  -4906777.27747  -3802634.77345  22068823.1174                   22068822.1684
 -11543613.62548  -8969341.46946  20894726.3834                   20894724.2624
  10835715.02047   8442496.90244  23158257.2974                   23158256.8094
  -5954526.76649  -4620649.84847  20040817.5234                   20040813.0044
  -6847970.57847  -5306523.12145  22578806.8594                   22578804.1174
  13636842.26646  10618615.32043  24102813.7894                   24102815.3874
  -3182189.19146  -2456916.21144  23475043.0164                   23475041.6414
   7017144.85948   5473813.74646  21481376.2814                   21481373.5704
   4708427.19546   3690695.39843  24227315.0944                   24227314.8484
 11  8  2 16 24 15.0000000  0 10G03G06G13G20G23G19G32G07G16G10
  -9727483.93448  -7553037.18446  21026685.8444                   21026684.5204
  -4927057.94147  -3818437.88745  22064963.7274                   22064962.9414
 -11595307.63348  -9009622.51246  20884889.3524                   20884886.7814
  10857855.44147   8459749.12544  23162470.5164                   23162470.0744
  -5980464.50048  -4640861.06647  20035881.4534                   20035876.9384
  -6910844.29747  -5355515.61745  22566841.9224                   22566839.4694
  13662845.53946  10638877.53543  24107762.3444                   24107763.6644
  -3232618.36746  -2496211.61744  23465446.5234                   23465446.0004
   7032962.82048   5486139.42246  21484386.2814                   21484383.5164
   4666455.98447   3657990.57044  24219327.7814                   24219327.9844
 11  8  2 16 24 30.0000000  0 10G03G06G13G20G23G19G32G07G16G10
  -9764443.19948  -7581836.60546  21019652.4534                   21019651.0944
  -4947223.95347  -3834151.65645  22061126.4144                   22061125.2194
 -11646937.64548  -9049853.68446  20875064.4384                   20875062.0314
  10880002.06347   8477006.21144  23166684.7424                   23166684.0044
  -6006295.35248  -4660989.00847  20030966.1564                   20030961.9414
  -6973678.87947  -5404477.60945  22554884.6484                   22554882.3444
  13688825.50846  10659121.61743  24112705.6804                   24112707.0394
  -3283065.14546  -2535520.76644  23455846.7664                   23455846.1564
   7048830.53948   5498503.85946  21487405.8204                   21487403.3284
   4624584.12546   3625363.13743  24211360.3204                   24211360.0044
 11  8  2 16 24 45.0000000  0 10G03G06G13G20G23G19G32G07G16G10
  -9801277.27048  -7610538.48446  21012643.3674                   21012641.8284
  -4967271.16847  -3849772.84845  22057311.4144                   22057310.7154
 -11698499.15648  -9090031.47746  20865252.6884                   20865250.2664
  10902158.66047   8494271.04744  23170900.6954                   23170899.8984
  -6032015.06649  -4681030.34047  20026071.9064                   20026067.6174
  -7036469.71547  -5453405.52045  22542936.5084                   22542933.8204
  13714786.03546  10679350.55543  24117646.6644                   24117647.3364
  -3333525.28546  -2574840.32444  23446244.6564                   23446243.8754
   7064751.79348   5510910.02346  21490435.5084                   21490433.1564
   4582815.91046   3592816.44543  24203411.9144                   24203411.8874
 11  8  2 16 25  0.0000000  0 10G03G06G13G20G23G19G32G07G16G10
  -9837989.33248  -7639145.27746  21005657.0474                   21005655.9654
  -4987202.86747  -3865304.04345  22053518.6414                   22053517.8014
 -11749995.07448  -9130158.15246  20855453.3914                   20855450.9494
  10924321.49647   8511540.77744  23175118.2194                   23175117.7034
  -6057626.93448  -4700987.64147  20021198.4694                   20021193.7544
  -7099219.75047  -5502301.63345  22530995.3364                   22530992.7194
  13740723.62946  10699561.60943  24122582.2034                   24122583.2704
  -3384002.11347  -2614172.88344  23436638.9224                   23436638.6804
   7080722.82048   5523354.96946  21493474.8834                   21493472.0314
   4541148.24246   3560348.14543  24195482.6564                   24195482.4574
 11  8  2 16 25 15.0000000  0 10G03G06G13G20G23G19G32G07G16G10
  -9874577.92648  -7667655.87146  20998694.7814                   20998693.4804
  -5007017.43447  -3880743.96945  22049747.7344                   22049747.4304
 -11801423.65248  -9170232.36346  20845666.8364                   20845664.3134
  10946491.70746   8528816.23444  23179337.0864                   23179336.5394
  -6083129.04348  -4720859.42247  20016345.2664                   20016340.9384
  -7161927.07447  -5551164.47345  22519062.4534                   22519059.8984
  13766639.32046  10719755.57043  24127513.8754                   24127514.5514
  -3434494.26646  -2653517.39844  23427030.5634                   23427030.0824
   7096744.84848   5535839.65246  21496523.6484                   21496521.1024
   4499582.71546   3527959.41443  24187572.1094                   24187572.5234
 11  8  2 16 25 30.0000000  0 10G03G06G13G20G23G19G32G07G16G10
  -9911039.99648  -7696067.87546  20991756.1334                   20991754.6644
  -5026712.10947  -3896090.46945  22046000.2424                   22045999.6334
 -11852781.87948  -9210251.75846  20835893.6884                   20835891.3634
  10968671.61346   8546099.24644  23183558.2974                   23183557.7034
  -6108518.40648  -4740643.34047  20011513.8834                   20011509.5084
  -7224588.35247  -5599991.41445  22507138.4534                   22507135.7304
  13792535.42646  10739934.30143  24132442.1954                   24132442.4924
  -3484998.98046  -2692871.69144  23417419.6724                   23417419.3364
   7112820.43848   5548366.07446  21499582.7344                   21499580.3324
   4458122.30546   3495652.60943  24179682.7344                   24179682.8834
 11  8  2 16 25 45.0000000  0 10G03G06G13G20G23G19G32G07G16G10
  -9947375.09448  -7724380.93446  20984841.6644                   20984840.7344
  -5046286.71947  -3911343.41045  22042275.3364                   22042274.4144
 -11904069.38348  -9250216.03946  20826133.7894                   20826131.7854
  10990860.99647   8563389.63344  23187780.7584                   23187779.5274
  -6133794.88348  -4760339.30147  20006703.9304                   20006699.6724
  -7287203.22747  -5648782.22345  22495223.4534                   22495220.5824
  13818411.99246  10760097.80543  24137365.6414                   24137366.4384
  -3535516.30947  -2732235.81644  23407806.7194                   23407806.6094
   7128949.27748   5560933.98446  21502652.0394                   21502649.5044
   4416767.27046   3463427.89543  24171813.5864                   24171813.4344
 11  8  2 16 26  0.0000000  0 10G03G06G13G20G23G19G32G07G16G10
  -9983583.38348  -7752595.18446  20977951.3984                   20977949.5004
  -5065741.55147  -3926503.02345  22038573.2114                   22038572.4064
 -11955285.85248  -9290124.96546  20816387.4694                   20816385.4184
  11013059.18447   8580686.90644  23192004.6804                   23192004.3754
  -6158958.85948  -4779947.60547  20001915.2814                   20001910.8484
  -7349771.66447  -5697536.82845  22483316.8984                   22483314.2934
  13844268.25846  10780245.50843  24142286.3054                   24142287.1094
  -3586046.58247  -2771610.02744  23398191.0314                   23398190.3914
   7145130.63348   5573542.82046  21505731.2424                   21505728.4184
   4375517.21146   3431285.00443  24163963.6724                   24163963.8284
 11  8  2 16 26 15.0000000  0 10G03G06G13G20G23G19G32G07G16G10
 -10019660.24248  -7780707.02046  20971085.8524                   20971085.0084
  -5085072.10247  -3941565.79745  22034894.8594                   22034893.5864
 -12006426.68048  -9329974.94946  20806656.0474                   20806653.5704
  11035270.12947   8597994.09844  23196231.1334                   23196230.7544
  -6184005.45748  -4799464.43447  19997148.9924                   19997144.8554
  -7412288.69947  -5746251.38345  22471419.9844                   22471417.8324
  13870108.37946  10800380.63343  24147203.6334                   24147204.7274
  -3636585.12547  -2810990.71144  23388574.7114                   23388573.0514
   7161368.64548   5586195.80946  21508821.2814                   21508818.5204
   4334376.66846   3399227.44943  24156135.1334                   24156135.2114
 11  8  2 16 26 30.0000000  0 10G03G06G13G20G23G19G32G07G16G10
 -10055611.50848  -7808720.99646  20964244.9614                   20964243.9534
  -5104284.37947  -3956536.39845  22031238.9614                   22031238.3914
 -12057497.63748  -9369770.49646  20796937.2894                   20796935.3364
  11057487.49246   8615306.28544  23200458.8834                   23200458.4964
  -6208940.64548  -4818894.45347  19992403.8284                   19992399.4264
  -7474760.13347  -5794930.40645  22459532.2424                   22459529.7664
  13895925.84446  10820498.06643  24152116.1174                   24152117.4574
  -3687138.07447  -2850382.59044  23378954.8594                   23378953.1294
   7177656.98048   5598888.00846  21511920.8914                   21511918.4804
   4293339.77746   3367250.65643  24148326.0394                   24148326.0354
 11  8  2 16 26 45.0000000  0 10G03G06G13G20G23G19G32G07G16G10
 -10091435.68048  -7836635.91846  20957427.5314                   20957426.4104
  -5123377.04747  -3971413.80545  22027605.4694                   22027604.6724
 -12108497.13348  -9409510.35546  20787232.3914                   20787230.0474
  11079712.14146   8632624.18044  23204688.6804                   23204687.8794
  -6233762.95748  -4838236.52047  19987680.5704                   19987676.2194
  -7537184.21547  -5843572.52045  22447653.3444                   22447650.9414
  13921721.80946  10840598.77043  24157025.5084                   24157025.9414
  -3737704.21547  -2889784.75444  23369331.9694                   23369330.9344
   7193996.55948   5611620.13346  21515029.9924                   21515027.4884
   4252407.97346   3335355.73843  24140537.5234                   24140537.2894
 11  8  2 16 27  0.0000000  0 10G03G06G13G20G23G19G32G07G16G10
 -10127129.57448  -7864449.34446  20950635.3204                   20950634.2114
  -5142347.01647  -3986195.60545  22023996.0634                   22023994.9574
 -12159421.70348  -9449191.83646  20777541.6724                   20777539.7934
  11101946.83247   8649949.87144  23208919.5554                   23208918.6094
  -6258469.16848  -4857488.12147  19982979.0164                   19982974.8134
  -7599557.48047  -5892175.05145  22435784.1564                   22435781.5434
  13947498.91846  10860684.77743  24161930.3284                   24161931.1994
  -3788280.59047  -2929194.88744  23359707.7114                   23359706.9884
   7210390.04348   5624394.25846  21518149.6884                   21518147.1024
   4211584.27046   3303545.06643  24132768.4774                   24132768.5004
 11  8  2 16 27 15.0000000  0 10G03G06G13G20G23G19G32G07G16G10
 -10162695.02348  -7892162.67246  20943867.4144                   20943865.8404
  -5161196.32447  -4000883.38345  22020408.8674                   22020407.7074
 -12210273.32848  -9488816.46546  20767865.2274                   20767862.8284
  11124189.05146   8667281.43044  23213152.6024                   23213151.6764
  -6283061.18748  -4876650.73847  19978299.2734                   19978295.0084
  -7661881.67247  -5940739.34445  22423923.9534                   22423921.6254
  13973254.65646  10880754.13343  24166831.8054                   24166832.0664
  -3838869.28947  -2968614.62144  23350080.5474                   23350080.0944
   7226835.03948   5637208.52746  21521278.9844                   21521276.3484
   4170866.74646   3271817.15643  24125019.8834                   24125020.8054
 11  8  2 16 27 30.0000000  0 10G03G06G13G20G23G19G32G07G16G10
 -10198135.35948  -7919778.51646  20937123.3984                   20937122.2814
  -5179928.59847  -4015479.96945  22016844.3134                   22016843.2274
 -12261055.31648  -9528386.83646  20758201.7734                   20758199.0514
  11146434.96546   8684615.88344  23217385.4064                   23217384.5234
  -6307542.57448  -4895727.15247  19973640.6174                   19973636.3324
  -7724159.87947  -5989267.80145  22412073.3134                   22412070.4454
  13998985.13746  10900803.80543  24171728.2114                   24171729.3634
  -3889473.98447  -3008046.81644  23340450.9614                   23340450.3794
   7243327.57048   5650059.83246  21524417.6334                   21524414.9414
   4130251.86746   3240169.19143  24117290.5164                   24117291.9534
 11  8  2 16 27 45.0000000  0 10G03G06G13G20G23G19G32G07G16G10
 -10233448.64547  -7947295.35546  20930403.7584                   20930402.0394
  -5198541.98447  -4029983.91445  22013302.2344                   22013300.8524
 -12311765.64148  -9567901.37946  20748552.1484                   20748549.6954
  11168685.68046   8701954.07844  23221619.5554                   23221618.7384
  -6331911.45748  -4914715.89847  19969003.4844                   19968999.1174
  -7786390.03147  -6037758.81245  22400230.7584                   22400228.6564
  14024691.85946  10920834.98843  24176620.3524                   24176620.5354
  -3940093.01646  -3047490.18744  23330818.5474                   23330817.6684
   7259868.98848   5662949.23446  21527565.3364                   21527562.9614
   4089741.52746   3208602.69943  24109583.2424                   24109582.7704
 11  8  2 16 28  0.0000000  0 10G03G06G13G20G23G19G32G07G16G10
 -10268629.88748  -7974709.30546  20923708.6334                   20923707.5274
  -5217031.77747  -4044391.54745  22009783.8134                   22009782.7034
 -12362399.18048  -9607356.07046  20738916.7584                   20738914.2704
  11190945.75847   8719299.55944  23225855.5634                   23225855.2734
  -6356162.71948  -4933612.99247  19964388.9224                   19964383.9964
  -7848566.82047  -6086208.23445  22388399.0084                   22388396.5824
  14050379.18446  10940851.00443  24181508.2274                   24181509.4184
  -3990721.53547  -3086940.97744  23321184.4844                   23321183.6604
   7276463.88748   5675880.30946  21530723.0784                   21530720.9384
   4049340.62946   3177121.50043  24101894.3204                   24101894.6644
 11  8  2 16 28 15.0000000  0 10G03G06G13G20G23G19G32G07G16G10
 -10303679.50048  -8002020.68746  20917039.1414                   20917037.5984
  -5235398.35547  -4058703.17645  22006289.0164                   22006287.7584
 -12412955.96548  -9646750.96546  20729295.7664                   20729293.1174
  11213214.09846   8736651.47344  23230093.0704                   23230092.8284
  -6380296.88748  -4952418.84447  19959796.4064                   19959791.6294
  -7910690.47347  -6134616.25845  22376577.3444                   22376575.0664
  14076046.19546  10960851.23043  24186392.7424                   24186393.6254
  -4041360.25447  -3126399.68444  23311547.8834                   23311546.7304
   7293111.35948   5688852.35246  21533890.9924                   21533888.3284
   4009048.69146   3145725.21143  24094227.2274                   24094227.4534
 11  8  2 16 28 30.0000000  0 10G03G06G13G20G23G19G32G07G16G10
 -10338606.83648  -8029236.78946  20910393.0634                   20910391.6954
  -5253651.32047  -4072926.27045  22002815.1954                   22002814.1374
 -12463445.50048  -9686093.45746  20719687.9064                   20719685.6994
  11235480.94146   8754002.22744  23234330.0394                   23234329.7894
  -6404323.29748  -4971140.73447  19955224.2734                   19955219.9414
  -7972770.10547  -6182989.98445  22364764.5004                   22364761.4064
  14101683.25446  10980828.09843  24191270.9694                   24191272.3524
  -4092018.60547  -3165873.69544  23301908.4454                   23301906.8984
   7309801.41848   5701857.58246  21537067.3054                   21537064.4414
   3968856.17646   3114406.39143  24086578.5864                   24086579.0744
 11  8  2 16 28 45.0000000  0 10G03G06G13G20G23G19G32G07G16G10
 -10373399.64848  -8056348.05946  20903771.6954                   20903770.2584
  -5271778.42647  -4087051.29345  21999365.9304                   21999365.2274
 -12513855.07448  -9725373.64146  20710095.4454                   20710093.0744
  11257757.99246   8771360.94544  23238569.9384                   23238569.3794
  -6428229.63348  -4989769.04747  19950674.8984                   19950670.7154
  -8034793.29347  -6231319.72745  22352961.5864                   22352958.9454
  14127302.06646  11000790.76643  24196146.1334                   24196147.6484
  -4142684.55146  -3205353.63344  23292266.3204                   23292265.3014
   7326545.92648   5714905.23846  21540253.3054                   21540251.1684
   3928775.32446   3083174.56343  24078951.0234                   24078952.4184
 11  8  2 16 29  0.0000000  0 10G03G06G13G20G23G19G32G07G16G10
 -10408062.23448  -8083357.85546  20897175.7034                   20897174.3284
  -5289784.21147  -4101081.78545  21995939.1644                   21995938.0594
 -12564188.82048  -9764594.72746  20700517.2734                   20700515.0434
  11280040.37946   8788723.80944  23242809.8284                   23242808.9144
  -6452020.28948  -5008307.23047  19946147.7114                   19946143.4884
  -8096763.94147  -6279608.51245  22341168.3524                   22341166.1564
  14152897.71546  11020735.34043  24201016.4844                   24201018.2774
  -4193362.50847  -3244842.91444  23282622.8594                   23282621.4924
   7343340.00448   5727991.52046  21543449.1484                   21543447.1684
   3888801.83646   3052026.38743  24071344.5474                   24071345.3014
 11  8  2 16 29 15.0000000  0 10G03G06G13G20G23G19G32G07G16G10
 -10442594.10548  -8110265.80146  20890604.3914                   20890603.0984
  -5307668.37947  -4115017.50445  21992536.3134                   21992535.0904
 -12614446.51648  -9803756.56646  20690953.5394                   20690951.1644
  11302328.04347   8806090.78144  23247050.6724                   23247050.5044
  -6475694.99248  -5026755.06247  19941642.3444                   19941638.0164
  -8158681.55147  -6327855.97345  22329385.9924                   22329383.8364
  14178470.18446  11040661.87143  24205882.6484                   24205884.5554
  -4244052.43447  -3284341.53144  23272976.7584                   23272975.5784
   7360183.56648   5741116.35946  21546654.5164                   21546651.8204
   3848935.84846   3020962.00443  24063758.5864                   24063758.9414
 11  8  2 16 29 30.0000000  0 10G03G06G13G20G23G19G32G07G16G10
 -10476997.68048  -8137073.77046  20884057.8984                   20884056.0084
  -5325433.67247  -4128860.59845  21989155.3914                   21989154.5394
 -12664630.42648  -9842860.91046  20681403.9924                   20681401.9534
  11324617.90246   8823459.46944  23251292.5704                   23251292.1884
  -6499256.05548  -5045114.34447  19937159.0704                   19937154.4574
  -8220548.34447  -6376063.84045  22317613.3754                   22317610.5904
  14204016.44146  11060567.99643  24210743.8754                   24210746.0864
  -4294756.89547  -3323851.49244  23263327.8984                   23263326.7894
   7377073.60548   5754277.42245  21549868.5164                   21549866.4304
   3809174.95346   2989979.52043  24056192.1254                   24056192.5984
 11  8  2 16 29 45.0000000  0 10G03G06G13G20G23G19G32G07G16G10
 -10511270.41047  -8163779.78546  20877536.0634                   20877534.8204
  -5343077.44147  -4142608.99245  21985798.1174                   21985796.9534
 -12714737.66448  -9881905.50446  20671868.4384                   20671866.6294
  11346912.07446   8840831.51244  23255535.3134                   23255535.0234
  -6522700.91048  -5063383.07047  19932697.4064                   19932693.1294
  -8282361.48447  -6424229.90645  22305850.5784                   22305847.8954
  14229538.68746  11080455.39243  24215600.8674                   24215602.6564
  -4345473.49247  -3363370.88744  23253676.8054                   23253676.4264
   7394012.25848   5767476.35545  21553091.8984                   21553089.6024
   3769521.80546   2959080.94943  24048646.5554                   24048646.7624
 11  8  2 16 30  0.0000000  0 10G03G06G13G20G23G19G32G07G16G10
 -10545411.45748  -8190383.19146  20871039.0164                   20871037.3794
  -5360599.23847  -4156262.35945  21982463.8284                   21982463.2544
 -12764767.54748  -9920889.82446  20662348.2504                   20662346.0204
  11369210.57446   8858206.92644  23259778.5474                   23259778.2734
  -6546029.19148  -5081560.96947  19928258.3204                   19928254.1844
  -8344120.12547  -6472353.49645  22294098.3524                   22294096.0434
  14255037.05546  11100324.18043  24220453.5944                   24220454.3054
  -4396201.75447  -3402899.37144  23244023.7034                   23244022.1844
   7410999.69948   5780713.31645  21556324.2424                   21556321.8244
   3729976.81646   2928266.70743  24041121.7274                   24041121.6414
 11  8  2 16 30 15.0000000  0 10G03G06G13G20G23G19G32G07G16G10
 -10579421.19948  -8216884.27046  20864566.9924                   20864565.7734
  -5377999.63347  -4169821.10545  21979152.9774                   21979151.8484
 -12814720.29748  -9959814.04346  20652842.6094                   20652840.2034
  11391512.47347   8875584.98044  23264022.4694                   23264021.9774
  -6569241.27748  -5099648.31647  19923841.3364                   19923836.8054
  -8405824.35947  -6520434.69145  22282356.2734                   22282353.9844
  14280510.73846  11120173.71943  24225300.5084                   24225302.7664
  -4446942.38347  -3442437.50044  23234368.3054                   23234366.5274
   7428035.02348   5793987.57845  21559566.3754                   21559563.6644
   3690539.51246   2897536.34043  24033617.2974                   24033617.0354
 11  8  2 16 30 30.0000000  0 10G03G06G13G20G23G19G32G07G16G10
 -10613300.83648  -8243283.97346  20858119.8674                   20858118.6644
  -5395279.99647  -4183286.33245  21975864.6564                   21975863.3554
 -12864596.96148  -9998678.96946  20643351.2664                   20643348.9734
  11413816.16847   8892964.43844  23268266.8284                   23268266.3984
  -6592338.19949  -5117645.91847  19919445.9614                   19919441.4774
  -8467475.05147  -6568474.15245  22270624.4924                   22270622.2664
  14305957.89546  11140002.63343  24230143.3834                   24230145.1294
  -4497696.63747  -3481986.23444  23224709.6484                   23224708.4804
   7445116.50048   5807297.81646  21562817.1884                   21562814.0664
   3651208.65246   2866888.93843  24026132.5394                   24026133.0314
 11  8  2 16 30 45.0000000  0 10G03G06G13G20G23G19G32G07G16G10
 -10647050.69548  -8269582.56246  20851697.5784                   20851695.9654
  -5412440.64547  -4196658.28145  21972598.8134                   21972597.6454
 -12914397.56248 -10037484.62146  20633874.7894                   20633871.9064
  11436120.70747   8910344.57044  23272511.5164                   23272510.6524
  -6615320.26248  -5135554.03547  19915072.6954                   19915068.9964
  -8529072.45347  -6616472.10945  22258903.2584                   22258900.2584
  14331377.83246  11159810.31343  24234981.2034                   24234982.2974
  -4548465.00047  -3521545.96944  23215048.8444                   23215047.6844
   7462243.39848   5820643.43445  21566075.9924                   21566073.4454
   3611983.90646   2836324.20743  24018668.0634                   24018668.6094
 11  8  2 16 31  0.0000000  0 10G03G06G13G20G23G19G32G07G16G10
 -10680674.60247  -8295783.00046  20845299.2344                   20845297.6644
  -5429485.64847  -4209940.11345  21969355.3674                   21969354.1334
 -12964125.94548 -10076234.00446  20624411.4304                   20624409.4414
  11458421.88347   8927722.07444  23276755.6334                   23276754.1644
  -6638191.43448  -5153375.73447  19910720.3054                   19910716.2464
  -8590620.06647  -6664431.26645  22247190.9694                   22247188.2814
  14356766.20746  11179593.38343  24239812.4304                   24239813.3714
  -4599251.62946  -3561119.93744  23205383.9454                   23205383.2704
   7479411.37148   5834021.06345  21569342.8674                   21569340.6564
   3572861.37946   2805839.12144  24011223.5084                   24011224.0274
 11  8  2 16 31 15.0000000  0 10G03G06G13G20G23G19G32G07G16G10
 -10714167.91447  -8321881.68046  20838925.6644                   20838924.3404
  -5446410.37147  -4223128.21545  21966134.2734                   21966133.6254
 -13013777.13348 -10114923.24246  20614963.5864                   20614960.9924
  11480723.73047   8945100.10544  23280998.7504                   23280998.5124
  -6660946.86348  -5171107.25047  19906390.2034                   19906386.1174
  -8652112.89147  -6712347.73445  22235489.0554                   22235486.3794
  14382127.35246  11199355.23043  24244637.8054                   24244639.8594
  -4650051.81246  -3600704.46544  23195717.1724                   23195715.9384
   7496624.64148   5847433.98445  21572618.4614                   21572616.0354
   3533845.72746   2775437.32043  24003798.7814                   24003799.2424
 11  8  2 16 31 30.0000000  0 10G03G06G13G20G23G19G32G07G16G10
 -10747529.50048  -8347877.71146  20832577.1024                   20832575.8164
  -5463213.86347  -4236221.85545  21962936.9844                   21962936.0594
 -13063349.98048 -10153551.43446  20605530.5234                   20605527.6174
  11503026.79347   8962479.07044  23285242.9304                   23285242.2624
  -6683585.59448  -5188747.82447  19902082.3524                   19902077.8164
  -8713549.59047  -6760220.46145  22223798.1644                   22223795.6604
  14407461.85546  11219096.34043  24249459.0164                   24249460.8324
  -4700864.69146  -3640298.87544  23186048.1644                   23186047.0274
   7513883.77348   5860882.64145  21575903.0084                   21575900.0944
   3494937.90246   2745119.54743  23996395.2424                   23996395.8364
 11  8  2 16 31 45.0000000  0 10G03G06G13G20G23G19G32G07G16G10
 -10780758.75448  -8373770.62946  20826254.0234                   20826252.4884
  -5479895.84047  -4249220.80145  21959762.4534                   21959761.6454
 -13112843.78148 -10192118.02346  20596111.6094                   20596109.1094
  11525331.13747   8979859.03944  23289487.8134                   23289487.0514
  -6706107.12548  -5206297.07847  19897796.6954                   19897792.2624
  -8774929.48047  -6808048.91445  22212118.2664                   22212115.2624
  14432769.73846  11238816.70743  24254275.7194                   24254276.7464
  -4751689.99646  -3679902.97344  23176376.5784                   23176375.5004
   7531188.88748   5874367.13745  21579195.9774                   21579193.3404
   3456138.28946   2714886.08643  23989011.5394                   23989011.9614
 11  8  2 16 32  0.0000000  0 10G03G06G13G20G23G19G32G07G16G10
 -10813852.25448  -8399557.76246  20819956.2814                   20819954.9064
  -5496453.11347  -4262122.58245  21956611.9224                   21956610.7814
 -13162254.97748 -10230620.24646  20586708.8674                   20586706.6524
  11547639.73047   8997242.32844  23293732.9224                   23293732.0514
  -6728508.05148  -5223752.35547  19893533.9694                   19893529.9224
  -8836248.89548  -6855830.25045  22200449.3284                   22200446.7384
  14458053.82046  11258518.50043  24259086.8984                   24259087.8914
  -4802524.46546  -3719514.22344  23166702.6484                   23166701.6684
   7548542.79348   5887889.64845  21582498.1174                   21582495.5474
   3417450.19146   2684739.51643  23981649.4614                   23981649.3324
 11  8  2 16 32 15.0000000  0 10G03G06G13G20G23G19G32G07G16G10
 -10846820.08248  -8425246.97346  20813683.0704                   20813681.3284
  -5512895.74247  -4274935.02745  21953483.3364                   21953481.4264
 -13211593.49248 -10269065.84446  20577320.3204                   20577317.7624
  11569941.81347   9014620.54744  23297976.8984                   23297976.1254
  -6750798.57448  -5241121.60547  19889292.0634                   19889287.7194
  -8897517.69547  -6903572.16445  22188790.0004                   22188787.4454
  14483303.70346  11278193.66843  24263891.6174                   24263893.0784
  -4853378.35546  -3759140.59444  23157025.5784                   23157024.7034
   7565934.92248   5901441.93845  21585807.8134                   21585805.2774
   3378863.58646   2654672.05144  23974306.5004                   23974307.0594
 11  8  2 16 32 30.0000000  0 10G03G06G13G20G23G19G32G07G16G10
 -10879652.54748  -8450830.71146  20807434.6644                   20807433.6644
  -5529214.18447  -4287650.70345  21950377.1884                   21950376.5984
 -13260849.32048 -10307447.00046  20567947.0784                   20567944.5474
  11592246.75447   9032000.98844  23302221.4614                   23302220.3674
  -6772968.76248  -5258397.08647  19885073.1954                   19885068.9734
  -8958725.70747  -6951266.68745  22177142.6644                   22177139.8284
  14508528.69146  11297849.41443  24268691.8134                   24268693.5704
  -4904242.07446  -3798774.62544  23147346.1954                   23147345.5314
   7583374.70348   5915031.37146  21589126.6414                   21589123.8754
   3340388.07446   2624691.14143  23966985.0704                   23966985.1684
 11  8  2 16 32 45.0000000  0 10G03G06G13G20G23G19G32G07G16G10
 -10912353.44547  -8476311.92646  20801211.9924                   20801210.6174
  -5545412.39547  -4300272.69145  21947295.3134                   21947294.5164
 -13310026.13748 -10345766.59446  20558588.8834                   20558586.4494
  11614550.00446   9049380.11344  23306465.3674                   23306464.3714
  -6795022.67648  -5275581.96147  19880876.4534                   19880872.1374
  -9019876.62547  -6998916.73045  22165506.2344                   22165503.2814
  14533724.32846  11317482.34043  24273487.0004                   24273488.0944
  -4955119.69147  -3838419.50044  23137664.3914                   23137663.8874
   7600857.57048   5928654.37145  21592453.1094                   21592450.7734
   3302019.68046   2594793.69943  23959683.9614                   23959684.1374
 11  8  2 16 33  0.0000000  0 10G03G06G13G20G23G19G32G07G16G10
 -10944923.78548  -8501691.41446  20795014.3364                   20795012.4304
  -5561491.62947  -4312801.97345  21944235.5554                   21944233.9454
 -13359125.10548 -10384025.53146  20549245.7424                   20549243.5314
  11636850.07846   9066756.76644  23310708.8674                   23310708.0984
  -6816961.33248  -5292677.02347  19876701.6024                   19876697.4264
  -9080971.38747  -7046523.02745  22153879.9144                   22153876.9304
  14558889.07146  11337091.17943  24278275.1024                   24278277.0904
  -5006012.32046  -3878076.05544  23127980.3204                   23127979.5704
   7618382.07848   5942309.82445  21595788.0634                   21595785.8324
   3263757.25046   2564978.79743  23952402.9774                   23952403.0314
 11  8  2 16 33 15.0000000  0 10G03G06G13G20G23G19G32G07G16G10
 -10977360.50048  -8526966.77346  20788841.3984                   20788840.2734
  -5577448.97747  -4325236.27745  21941199.2114                   21941197.7934
 -13408142.91848 -10422221.22346  20539918.0784                   20539915.8754
  11659149.48846   9084132.89144  23314952.6024                   23314951.2384
  -6838781.65248  -5309679.87547  19872549.8054                   19872544.9454
  -9142006.56247  -7094082.87945  22142265.7814                   22142262.6454
  14584025.74646  11356678.10243  24283059.5164                   24283060.5634
  -5056917.06646  -3917742.05944  23118293.4064                   23118292.6054
   7635950.80948   5955999.73045  21599131.3134                   21599128.4694
   3225603.85946   2535248.87943  23945142.3444                   23945142.7274
 11  8  2 16 33 30.0000000  0 10G03G06G13G20G23G19G32G07G16G10
 -11009660.73447  -8552135.78146  20782695.3984                   20782693.8364
  -5593281.71547  -4337573.48445  21938186.2974                   21938184.9064
 -13457076.68048 -10460351.43046  20530606.4844                   20530604.2704
  11681450.50846   9101510.27344  23319196.0004                   23319195.4614
  -6860480.93048  -5326588.41447  19868420.2194                   19868415.8674
  -9202979.09047  -7141593.91845  22130662.7814                   22130659.8094
  14609136.39146  11376244.78943  24287837.4454                   24287838.9264
  -5107831.51647  -3957415.64144  23108605.1644                   23108603.9104
   7653565.90648   5969725.75845  21602483.3594                   21602480.9804
   3187562.13346   2505606.00043  23937902.9224                   23937903.2034
 11  8  2 16 33 45.0000000  0 10G03G06G13G20G23G19G32G07G16G10
 -11041829.17248  -8577202.10946  20776573.4694                   20776572.1564
  -5608994.87947  -4349817.50445  21935196.1334                   21935194.8284
 -13505930.84448 -10498419.60946  20521309.5394                   20521307.4144
  11703747.89146   9118884.81644  23323439.4384                   23323438.8444
  -6882063.97748  -5343406.38347  19864313.0004                   19864308.7974
  -9263893.54747  -7189059.71145  22119071.3984                   22119068.1524
  14634215.94546  11395787.23843  24292609.5004                   24292611.0744
  -5158760.55147  -3997100.58244  23098913.6724                   23098912.5004
   7671222.43448   5983484.07445  21605843.3594                   21605840.7194
   3149627.39546   2476046.46143  23930683.7344                   23930684.0634
 11  8  2 16 34  0.0000000  0 10G03G06G13G20G23G19G32G07G16G10
 -11073869.41048  -8602168.51646  20770477.1334                   20770475.5164
  -5624592.18447  -4361971.24245  21932227.7974                   21932226.3284
 -13554708.92648 -10536428.49246  20512027.2664                   20512025.1994
  11726037.60546   9136253.39844  23327680.9384                   23327680.0514
  -6903534.39548  -5360136.57847  19860227.4224                   19860223.2934
  -9324753.34447  -7236482.91445  22107490.1024                   22107486.6294
  14659260.26246  11415302.21143  24297374.9384                   24297376.5984
  -5209707.89847  -4036799.77044  23089218.5704                   23089217.6524
   7688916.21948   5997271.43445  21609210.6564                   21609207.7034
   3111795.98446   2446567.47743  23923485.7664                   23923485.3524
 11  8  2 16 34 15.0000000  0 10G03G06G13G20G23G19G32G07G16G10
 -11105774.41448  -8627029.56246  20764405.3674                   20764404.1174
  -5640066.66447  -4374029.28545  21929283.1564                   21929282.2664
 -13603403.83648 -10574372.57446  20502761.0084                   20502758.6454
  11748326.01246   9153620.94144  23331922.2114                   23331921.8524
  -6924885.10548  -5376773.50847  19856164.5004                   19856160.4414
  -9385551.18747  -7283857.84445  22095920.3914                   22095917.1954
  14684276.13346  11434795.04743  24302136.5234                   24302137.4384
  -5260666.71147  -4076507.91444  23079521.1644                   23079520.1804
   7706653.70748   6011092.83645  21612585.7974                   21612583.5594
   3074074.70846   2417174.25643  23916307.3834                   23916307.6254
 11  8  2 16 34 30.0000000  0 10G03G06G13G20G23G19G32G07G16G10
 -11137538.25847  -8651780.60946  20758360.6024                   20758359.4064
  -5655412.49247  -4385987.07445  21926363.0704                   21926361.9774
 -13652009.24248 -10612246.91046  20493511.6174                   20493509.3834
  11770618.67646   9170991.81644  23336164.5704                   23336163.4454
  -6946110.28548  -5393312.61747  19852125.4304                   19852121.2934
  -9446280.72747  -7331179.54745  22084363.6174                   22084360.8404
  14709268.84046  11454269.80543  24306891.0084                   24306893.0824
  -5311631.14547  -4116220.43744  23069823.0314                   23069821.7274
   7724440.53548   6024952.69545  21615970.3054                   21615967.8404
   3036469.26646   2387871.32443  23909151.0784                   23909151.4064
 11  8  2 16 34 45.0000000  0 10G03G06G13G20G23G19G32G07G16G10
 -11169164.43048  -8676424.38746  20752342.7344                   20752341.0394
  -5670633.45347  -4397847.55945  21923466.5234                   21923465.4024
 -13700528.62948 -10650054.22346  20484279.0864                   20484276.7894
  11792911.46946   9188362.77744  23340406.5554                   23340406.4144
  -6967213.41848  -5409756.62547  19848109.6414                   19848105.0704
  -9506945.20347  -7378450.54345  22072820.1024                   22072817.3164
  14734234.41046  11473723.43443  24311642.2034                   24311644.0004
  -5362604.91447  -4155940.23845  23060122.6954                   23060121.8634
   7742272.87548   6038848.01645  21619364.1564                   21619361.7624
   2998976.34046   2358656.06643  23902016.6644                   23902017.1884
 11  8  2 16 35  0.0000000  0 10G03G06G13G20G23G19G32G07G16G10
 -11200653.91848  -8700961.65646  20746350.6644                   20746349.4264
  -5685730.53147  -4409611.52045  21920593.5944                   21920592.8134
 -13748962.63348 -10687795.00446  20475062.3284                   20475060.0784
  11815203.05146   9205732.80943  23344648.8754                   23344648.2734
  -6988195.29748  -5426106.14847  19844117.1564                   19844112.7894
  -9567545.33647  -7425671.41045  22061287.9224                   22061285.0004
  14759171.57046  11493154.90243  24316387.9614                   24316389.4774
  -5413588.94547  -4195668.02045  23050420.6094                   23050419.9654
   7760149.01248   6052777.45745  21622765.7034                   21622763.3524
   2961594.85246   2329527.65243  23894902.6094                   23894903.6684
 11  8  2 16 35 15.0000000  0 10G03G06G13G20G23G19G32G07G16G10
 -11232006.44547  -8725392.19946  20740384.1724                   20740382.6484
  -5700703.65247  -4421278.89545  21917744.2424                   21917743.2584
 -13797310.89848 -10725468.97346  20465862.0004                   20465859.4734
  11837493.11346   9223101.64543  23348890.6254                   23348889.6524
  -7009055.79348  -5442361.09047  19840147.4924                   19840143.2384
  -9628080.74647  -7472841.84045  22049768.5004                   22049765.6174
  14784080.09146  11512564.05343  24321127.4924                   24321129.3284
  -5464583.30947  -4235403.86345  23040716.5944                   23040716.3984
   7778068.65248   6066740.79345  21626175.7114                   21626173.0514
   2924324.87946   2300486.12543  23887810.1334                   23887810.8914
 11  8  2 16 35 30.0000000  0 10G03G06G13G20G23G19G32G07G16G10
 -11263228.15248  -8749720.80546  20734443.1174                   20734441.4964
  -5715559.04347  -4432854.52045  21914917.5164                   21914916.6724
 -13845579.45348 -10763080.83646  20456676.7894                   20456674.2034
  11859775.07046   9240464.17244  23353130.2274                   23353129.6604
  -7029800.99248  -5458526.18747  19836199.9924                   19836195.4344
  -9688557.11747  -7519966.27745  22038259.6644                   22038257.1484
  14808953.37946  11531945.78543  24325860.5234                   24325863.1254
  -5515594.23047  -4275152.61345  23031010.1954                   23031008.8874
   7796025.41848   6080733.05945  21629592.8754                   21629590.7154
   2887160.44946   2271526.82843  23880738.4144                   23880737.8444
 11  8  2 16 35 45.0000000  0 10G03G06G13G20G23G19G32G07G16G10
 -11294317.54748  -8773946.30946  20728526.8914                   20728525.5704
  -5730295.47347  -4444337.45745  21912113.1334                   21912112.1414
 -13893766.70348 -10800629.33646  20447506.8984                   20447504.3364
  11882049.80146   9257821.05543  23357368.7344                   23357368.3204
  -7050429.75848  -5474600.55547  19832274.4454                   19832270.2274
  -9748972.89847  -7567043.48845  22026763.5234                   22026760.4064
  14833792.46146  11551300.81643  24330588.1414                   24330590.0274
  -5566620.64547  -4314913.43045  23021300.0164                   23021298.8054
   7814020.12148   6094754.89545  21633017.3284                   21633014.3594
   2850102.70746   2242650.68443  23873687.0784                   23873686.2664
 11  8  2 16 36  0.0000000  0 10G03G06G13G20G23G19G32G07G16G10
 -11325277.66448  -8798071.08246  20722635.5004                   20722634.2034
  -5744916.21147  -4455730.23845  21909331.1484                   21909329.7974
 -13941875.43048 -10838116.65246  20438352.0784                   20438349.6724
  11904313.96946   9275169.72343  23361606.6334                   23361604.9774
  -7070944.94148  -5490586.42247  19828370.2274                   19828366.0784
  -9809330.80147  -7614075.60945  22015277.7274                   22015275.0664
  14858593.76646  11570626.45743  24335307.5164                   24335309.3054
  -5617665.44147  -4354688.57844  23011586.4534                   23011585.3324
   7832049.37148   6108803.65245  21636447.7894                   21636445.2504
   2813148.61746   2213855.28543  23866655.0634                   23866654.5474
 11  8  2 16 36 15.0000000  0 10G03G06G13G20G23G19G32G07G16G10
 -11356100.33648  -8822088.75046  20716770.1174                   20716768.7664
  -5759413.19947  -4467026.60245  21906572.1174                   21906571.6564
 -13989897.50448 -10875536.45346  20429213.9384                   20429211.7384
  11926574.94146   9292515.89843  23365841.9924                   23365841.3914
  -7091338.64548  -5506477.62547  19824489.7034                   19824485.3484
  -9869622.48847  -7661056.12945  22003804.3364                   22003801.7584
  14883364.98546  11589928.66943  24340020.7894                   24340023.0474
  -5668720.73047  -4394471.89844  23001871.0004                   23001869.2424
   7850120.78148   6122885.25045  21639886.7664                   21639884.1804
   2776306.07846   2185146.80543  23859643.5314                   23859643.6994
 11  8  2 16 36 30.0000000  0  9G03G06G13G20G23G19G07G16G10
 -11386783.05548  -8845997.35946  20710931.3914                   20710929.8094
  -5773783.99247  -4478224.62145  21903837.6954                   21903836.4734
 -14037830.13748 -10912886.54746  20420092.2504                   20420089.7584
  11948834.83246   9309861.23043  23370078.3054                   23370077.2774
  -7111608.11748  -5522272.02747  19820632.3134                   19820628.0514
  -9929844.96147  -7707982.71145  21992344.6254                   21992341.7114
  -5719784.06247  -4434261.49645  22992153.7194                   22992152.8874
   7868236.42248   6137001.31645  21643334.0394                   21643331.6294
   2739577.71146   2156527.32843  23852654.3984                   23852654.5234
 11  8  2 16 36 45.0000000  0  9G03G06G13G20G23G19G07G16G10
 -11417326.52748  -8869797.47346  20705118.7194                   20705117.7774
  -5788029.73447  -4489325.20345  21901126.6094                   21901125.6294
 -14085674.02348 -10950167.49646  20410987.9534                   20410985.4774
  11971092.19947   9327204.59044  23374314.0164                   23374312.7894
  -7131754.24248  -5537970.31247  19816798.7894                   19816794.4064
  -9989999.09847  -7754856.05945  21980897.6254                   21980895.0204
  -5770856.70747  -4474058.34045  22982435.4304                   22982433.7624
   7886395.02348   6151150.85945  21646789.7894                   21646787.2664
   2702962.53946   2127996.06643  23845687.2344                   23845686.8914
 11  8  2 16 37  0.0000000  0  9G03G06G13G20G23G19G07G16G10
 -11447736.34448  -8893493.42646  20699332.0084                   20699331.0474
  -5802155.96547  -4500332.66045  21898438.7974                   21898437.5044
 -14133434.43748 -10987383.39546  20401900.0784                   20401897.5784
  11993340.99247   9344541.28144  23378547.3754                   23378546.6054
  -7151782.60548  -5553576.83647  19812987.5474                   19812983.0784
 -10050090.13747  -7801680.22745  21969462.3754                   21969459.8674
  -5821944.16047  -4513866.71544  22972713.4924                   22972712.3874
   7904590.48448   6165329.12945  21650251.8834                   21650249.5084
   2666455.04746   2099548.64143  23838739.7194                   23838740.0314
 11  8  2 16 37 15.0000000  0  9G03G06G13G20G23G19G07G16G10
  -9902592.93048  -7689485.57446  20993363.3524                   20993362.1844
  -4240744.38347  -3283648.32045  22195565.5164                   22195563.8714
 -12605690.46148  -9796933.53946  20692619.7424                   20692617.5474
  13590997.22346  10589468.17244  23682571.7814                   23682571.1134
  -5596274.34448  -4341492.48447  20108990.6804                   20108986.6334
  -8534696.07047  -6620853.66845  22257832.6174                   22257829.7544
  -4297625.47747  -3326085.89545  23262781.8444                   23262780.6914
   9498238.89548   7407133.07045  21953513.4224                   21953511.1094
   4205475.15646   3298785.10943  24131605.4454                   24131605.0664
 11  8  2 16 37 30.0000000  0  9G03G06G13G20G23G19G07G16G10
  -9932732.35248  -7712970.84046  20987627.7274                   20987626.6914
  -4254629.04347  -3294467.54345  22192923.3284                   22192921.9184
 -12653280.40648  -9834016.61746  20683563.6414                   20683561.0784
  13613231.02047  10606793.16844  23686802.0864                   23686801.9104
  -5616064.18448  -4356913.14147  20105224.8914                   20105220.5744
  -8594656.70347  -6667576.22745  22246422.4224                   22246419.5824
  -4348739.73047  -3365915.16845  23253055.2114                   23253053.6214
   9516510.20748   7421370.44145  21956990.1724                   21956987.2664
   4169185.77746   3270507.72743  24124700.2664                   24124699.3834
 11  8  2 16 37 45.0000000  0  9G03G06G13G20G23G19G07G16G10
  -9962734.83248  -7736349.39846  20981918.5314                   20981917.4734
  -4268391.34447  -3305191.41445  22190304.3444                   22190303.1564
 -12700783.09448  -9871031.68746  20674524.2114                   20674521.6454
  13635458.15647  10624112.96544  23691031.7894                   23691031.4964
  -5635733.17648  -4372239.63747  20101482.0164                   20101477.6174
  -8654550.12547  -6714246.41445  22235024.9064                   22235022.1914
  -4399865.95747  -3405753.75844  23243325.1884                   23243324.8954
   9534820.36748   7435638.09045  21960474.4924                   21960471.4304
   4133007.08646   3242316.51643  24117815.5554                   24117814.6174
 11  8  2 16 38  0.0000000  0  9G03G06G13G20G23G19G07G16G10
  -9992598.12948  -7759619.50446  20976236.0784                   20976234.8914
  -4282029.32847  -3315818.43045  22187708.8834                   22187707.8094
 -12748196.17248  -9907976.93446  20665501.8444                   20665499.1524
  13657680.39147  10641428.94544  23695260.7114                   23695260.3014
  -5655279.00448  -4387470.15247  20097762.3914                   20097758.4654
  -8714373.80147  -6760862.24245  22223641.1484                   22223637.8484
  -4451001.98047  -3445599.97745  23233594.8594                   23233593.9264
   9553171.21948   7449937.44545  21963966.5704                   21963963.8794
   4096941.16846   3214213.23443  24110952.3984                   24110952.1684
 11  8  2 16 38 15.0000000  0  9G03G06G13G20G23G19G07G16G10
 -10022321.02748  -7782780.19946  20970579.7194                   20970578.3954
  -4295541.77747  -3326347.60945  22185137.8284                   22185136.7194
 -12795518.20348  -9944851.23446  20656496.6024                   20656494.5664
  13679898.41447  10658741.66044  23699489.0004                   23699488.4734
  -5674700.48048  -4402603.77347  20094066.8134                   20094062.7274
  -8774126.10547  -6807422.46545  22212270.9924                   22212267.6914
  -4502146.95347  -3485453.19145  23223862.5004                   23223861.3134
   9571563.44548   7464269.03945  21967466.5634                   21967463.6914
   4060989.16046   3186198.68843  24104110.7034                   24104110.4534
 11  8  2 16 38 30.0000000  0  9G03G06G13G20G23G19G07G16G10
 -10051907.32848  -7805834.45746  20964949.7974                   20964948.5864
  -4308932.89147  -3336782.26245  22182589.3594                   22182588.6414
 -12842752.86748  -9981657.46946  20647508.3364                   20647505.6524
  13702107.97347  10676047.75844  23703715.3984                   23703714.5864
  -5694001.34048  -4417643.41447  20090393.9614                   20090389.9774
  -8833810.74647  -6853929.96145  22200913.0944                   22200909.8444
  -4553304.56647  -3525316.25045  23214126.9304                   23214126.5084
   9589992.85248   7478629.59845  21970973.1254                   21970970.9184
   4025147.23046   3158269.89843  24097290.3364                   24097289.4804
 11  8  2 16 38 45.0000000  0  9G03G06G13G20G23G19G07G16G10
 -10081358.24248  -7828783.21946  20959345.2584                   20959343.7624
  -4322203.80947  -3347123.25045  22180064.2344                   22180063.0864
 -12889901.11348 -10018396.35546  20638536.1484                   20638533.8094
  13724307.28947  10693345.87144  23707939.5474                   23707939.4734
  -5713183.00848  -4432590.17247  20086743.8204                   20086739.8554
  -8893428.63747  -6900385.45345  22189567.9384                   22189565.1254
  -4604476.31247  -3565190.30945  23204389.4924                   23204388.1764
   9608457.66848   7493017.76245  21974487.1334                   21974484.5984
   3989414.03546   3130425.87943  24090490.2114                   24090490.4884
 11  8  2 16 39  0.0000000  0  9G03G06G13G20G23G19G07G16G10
 -10110671.13348  -7851624.43446  20953767.2034                   20953765.9574
  -4335352.33247  -3357368.87545  22177562.5474                   22177561.1454
 -12936960.43048 -10055065.94546  20629581.3134                   20629578.2544
  13746498.60947  10710637.77744  23712162.3834                   23712162.1994
  -5732242.87148  -4447442.01647  20083116.7894                   20083112.7854
  -8952976.82447  -6946786.62145  22178236.5004                   22178233.5864
  -4655659.66047  -3605073.40244  23194649.6024                   23194648.0634
   9626960.21548   7507435.31345  21978008.1174                   21978005.7704
   3953792.07446   3102668.51643  24083711.2114                   24083712.0594
 11  8  2 16 39 15.0000000  0  9G03G06G13G20G23G19G07G16G10
 -10139847.88748  -7874359.56646  20948214.9384                   20948213.5124
  -4348380.32447  -3367520.56245  22175082.9384                   22175081.6524
 -12983932.42648 -10091667.49246  20620642.6024                   20620640.0004
  13768679.48847  10727921.53144  23716383.5004                   23716383.2974
  -5751182.89148  -4462200.47747  20079512.7194                   20079508.3674
  -9012456.91047  -6993134.71945  22166917.7424                   22166914.8204
  -4706856.61347  -3644967.11745  23184907.6644                   23184905.9734
   9645498.16447   7521880.46145  21981535.6414                   21981533.6374
   3918279.47346   3074996.35243  24076954.1024                   24076954.3754
 11  8  2 16 39 30.0000000  0  9G03G06G13G20G23G19G07G16G10
 -10168887.46148  -7896987.79746  20942689.4144                   20942687.7774
  -4361286.85247  -3377577.60945  22172627.0474                   22172626.2424
 -13030815.92248 -10128200.09046  20611720.7894                   20611718.3754
  13790850.57847  10745197.65644  23720602.2344                   23720602.3404
  -5770001.94948  -4476864.67647  20075931.3914                   20075927.4694
  -9071867.72347  -7039428.85545  22155612.0864                   22155609.1374
  -4758066.25047  -3684870.71145  23175162.0084                   23175161.1414
   9664072.02748   7536353.59445  21985070.4224                   21985067.6214
   3882877.07446   3047410.10243  24070216.8754                   24070217.1844
 11  8  2 16 39 45.0000000  0  9G03G06G13G20G23G19G07G16G10
 -10197789.88348  -7919509.17246  20937188.9614                   20937187.7464
  -4374072.17247  -3387540.21545  22170193.7504                   22170193.0514
 -13077610.63748 -10164663.49646  20602816.3284                   20602813.6884
  13813011.25047  10762465.67244  23724819.8054                   23724819.2194
  -5788700.15648  -4491434.71147  20072373.4694                   20072369.1454
  -9131208.98047  -7085668.78145  22144319.5784                   22144317.0904
  -4809288.84847  -3724784.40245  23165414.5554                   23165414.1484
   9682681.31648   7550854.31645  21988611.4534                   21988608.4924
   3847584.71146   3019909.55543  24063501.3284                   24063501.0864
 11  8  2 16 40  0.0000000  0  9G03G06G13G20G23G19G07G16G10
 -10226556.73448  -7941924.89146  20931714.8674                   20931713.9884
  -4386738.07847  -3397409.77045  22167783.7194                   22167782.5904
 -13124317.85948 -10201058.73846  20593927.9924                   20593925.7034
  13835159.54747  10779724.02344  23729034.3364                   23729034.0984
  -5807279.02348  -4505911.75047  20068838.0704                   20068833.7814
  -9190481.99647  -7131855.52745  22133040.1094                   22133037.5474
  -4860525.99247  -3764709.44545  23155664.7664                   23155663.6914
   9701324.00448   7565381.07845  21992159.2194                   21992156.3444
   3812400.80546   2992493.53143  24056806.0164                   24056805.9224
 11  8  2 16 40 15.0000000  0  9G03G06G13G20G23G19G07G16G10
 -10255183.40648  -7964231.38346  20926267.3834                   20926266.1724
  -4399279.87547  -3407182.61345  22165397.1024                   22165396.1024
 -13170932.91448 -10237382.15246  20585057.7194                   20585054.8914
  13857299.59846  10796975.97344  23733247.5234                   23733247.2504
  -5825733.92648  -4520292.19947  20065326.1254                   20065321.9804
  -9249681.71547  -7177985.16045  22121774.8754                   22121772.3054
  -4911773.10247  -3804642.21545  23145912.8284                   23145911.6644
   9720004.46548   7579937.26245  21995713.9774                   21995711.1884
   3777330.14546   2965165.74244  24050132.2504                   24050132.3094
 11  8  2 16 40 30.0000000  0  9G03G06G13G20G23G19G07G16G10
 -10283669.54348  -7986428.36746  20920846.7504                   20920845.2344
  -4411697.61347  -3416858.77345  22163034.1254                   22163033.3554
 -13217455.25848 -10273633.32846  20576204.7274                   20576201.8834
  13879431.41047  10814221.47344  23737458.4454                   23737458.5004
  -5844064.62548  -4534575.85947  20061837.7584                   20061833.8594
  -9308807.62547  -7224057.28945  22110524.1804                   22110520.7624
  -4963030.08247  -3844582.71145  23136159.0474                   23136157.9884
   9738722.39148   7594522.65245  21999275.6804                   21999273.2034
   3742372.68846   2937926.16443  24043479.3834                   24043479.9884
 11  8  2 16 40 45.0000000  0  9G03G06G13G20G23G19G07G16G10
 -10312019.23048  -8008519.02346  20915451.9614                   20915450.5824
  -4423995.28547  -3426441.38345  22160694.0234                   22160692.9804
 -13263888.60548 -10309815.15246  20567368.6724                   20567366.0864
  13901550.25047  10831456.88744  23741667.8594                   23741667.6764
  -5862275.17248  -4548765.90247  20058372.6804                   20058368.2704
  -9367863.48047  -7270074.83645  22099286.1884                   22099282.9184
  -5014301.05547  -3884534.09845  23126402.5944                   23126401.0904
   9757473.38748   7609133.80945  22002844.1564                   22002841.7814
   3707524.42646   2910771.65643  24036848.8204                   24036849.0124
 11  8  2 16 41  0.0000000  0  9G03G06G13G20G23G19G07G16G10
 -10340232.57048  -8030503.43746  20910083.1414                   20910081.7274
  -4436173.36347  -3435930.80145  22158376.6884                   22158375.5164
 -13310233.05948 -10345927.71146  20558549.5704                   20558547.5864
  13923655.66846  10848681.84044  23745874.8054                   23745874.5004
  -5880365.66048  -4562862.37947  20054930.2194                   20054925.8134
  -9426849.12147  -7316037.66445  22088061.1174                   22088058.5274
  -5065586.34447  -3924496.66445  23116643.1254                   23116642.1094
   9776256.99648   7623770.36745  22006418.2894                   22006416.0704
   3672785.14146   2883702.11343  24030237.9924                   24030238.4104
 11  8  2 16 41 15.0000000  0  9G03G06G13G20G23G19G07G16G10
 -10368312.09848  -8052383.59046  20904739.6644                   20904738.1994
  -4448234.38347  -3445329.00045  22156081.7034                   22156080.2544
 -13356491.02348 -10381972.87946  20549746.7974                   20549744.7664
  13945744.60246  10865893.94544  23750077.8674                   23750078.3134
  -5898338.77348  -4576867.41047  20051509.4844                   20051505.7704
  -9485766.95347  -7361947.65645  22076849.2814                   22076846.8094
  -5116888.50847  -3964472.34045  23106880.8364                   23106879.3834
   9795070.16848   7638429.97345  22009998.4774                   22009996.2154
   3638152.23846   2856715.41843  24023647.2734                   24023648.1374
 11  8  2 16 41 30.0000000  0  9G03G06G13G20G23G19G07G16G10
 -10396255.42248  -8074157.59846  20899422.6954                   20899421.2624
  -4460176.25447  -3454634.35945  22153808.6724                   22153807.6844
 -13402659.88348 -10417948.60246  20540961.4614                   20540958.8554
  13967818.98446  10883094.69144  23754278.6254                   23754278.4734
  -5916192.04348  -4590779.05547  20048112.5394                   20048108.2544
  -9544614.18047  -7407802.62945  22065651.2814                   22065648.4414
  -5168205.32847  -4004459.42645  23097115.9774                   23097113.9414
   9813914.91047   7653114.17645  22013584.7424                   22013581.9534
   3603627.98047   2829813.42244  24017078.0234                   24017078.4064
 11  8  2 16 41 45.0000000  0  9G03G06G13G20G23G19G07G16G10
 -10424059.12548  -8095822.80546  20894130.8674                   20894129.9414
  -4471995.78947  -3463844.38345  22151559.4614                   22151558.6214
 -13448735.95748 -10453852.03946  20532193.3914                   20532191.0004
  13989881.56346  10900286.26244  23758476.9924                   23758476.5744
  -5933922.25048  -4604594.79347  20044738.7894                   20044734.3094
  -9603387.20747  -7453599.78145  22054467.1724                   22054464.2974
  -5219533.62547  -4044455.47745  23087347.9224                   23087346.5434
   9832793.88347   7667825.04745  22017176.8134                   22017174.3874
   3569215.66046   2802998.60543  24010529.2894                   24010529.6994
 11  8  2 16 42  0.0000000  0  9G03G06G13G20G23G19G07G16G10
 -10451720.85948  -8117377.39146  20888867.5474                   20888866.5044
  -4483690.51247  -3472957.15245  22149334.6094                   22149333.4614
 -13494716.84448 -10489681.29746  20523443.8594                   20523441.1294
  14011934.57046  10917470.35943  23762673.6484                   23762673.5784
  -5951526.90648  -4618312.71147  20041388.5234                   20041384.6644
  -9662083.25448  -7499336.94945  22043298.0784                   22043294.7274
  -5270870.83647  -4084458.46145  23077579.1024                   23077577.1484
   9851709.37547   7682564.38745  22020776.5634                   22020774.2034
   3534917.55946   2776272.82044  24004002.5864                   24004003.2464
 11  8  2 16 42 15.0000000  0  9G03G06G13G20G23G19G07G16G10
 -10479237.58648  -8138818.98846  20883631.4384                   20883630.1484
  -4495257.83647  -3481970.64145  22147133.2664                   22147132.2624
 -13540599.41448 -10525433.94946  20514712.5084                   20514710.1254
  14033980.29746  10934648.79743  23766869.2894                   23766868.3714
  -5969003.11748  -4631930.53547  20038062.6884                   20038058.5474
  -9720699.18747  -7545011.69945  22032143.6564                   22032140.5124
  -5322214.35947  -4124466.39145  23067808.5234                   23067806.7734
   9870663.73048   7697333.99645  22024383.5864                   22024381.0354
   3500736.58647   2749638.28943  23997498.2814                   23997498.5004
 11  8  2 16 42 30.0000000  0  9G03G06G13G20G23G19G07G16G10
 -10506617.24648  -8160153.77746  20878421.2584                   20878419.8984
  -4506705.80947  -3490891.12545  22144954.5394                   22144953.2854
 -13586391.27748 -10561115.91446  20505998.7344                   20505996.0514
  14056010.46946  10951815.12143  23771061.0554                   23771060.4964
  -5986358.85948  -4645454.49247  20034760.4304                   20034756.1844
  -9779242.71547  -7590630.02745  22021002.8754                   22021000.0984
  -5373572.12947  -4164485.39845  23058035.7114                   23058033.9384
   9889648.79347   7712127.53145  22027996.2344                   22027994.0434
   3466664.77346   2723088.83644  23991014.4064                   23991015.3674
 11  8  2 16 42 45.0000000  0  9G03G06G13G20G23G19G07G16G10
 -10533851.78548  -8181375.48446  20873238.8594                   20873237.3524
  -4518026.19947  -3499712.19945  22142800.4614                   22142799.3014
 -13632084.10248 -10596720.71146  20497303.3204                   20497300.8164
  14078032.85946  10968975.37143  23775252.1484                   23775250.8244
  -6003585.96148  -4658878.21147  20031482.0864                   20031477.6254
  -9837705.30547  -7636185.28545  22009878.0784                   22009875.1294
  -5424936.16047  -4204509.32045  23048261.2114                   23048259.5864
   9908672.13747   7726950.89145  22031616.6564                   22031613.7194
   3432710.07447   2696630.63344  23984553.1484                   23984553.5514
 11  8  2 16 43  0.0000000  0  9G03G06G13G20G23G19G07G16G10
 -10560947.48848  -8202489.01246  20868082.7664                   20868081.2274
  -4529225.85947  -3508439.19145  22140669.4384                   22140668.2274
 -13677684.30948 -10632253.33246  20488625.9694                   20488623.3834
  14100040.25846  10986123.96143  23779439.6024                   23779439.0864
  -6020690.98048  -4672206.79747  20028227.1954                   20028222.8874
  -9896092.98447  -7681682.16845  21998767.2734                   21998763.8164
  -5476313.07847  -4244543.26645  23038484.4614                   23038482.6484
   9927726.87147   7741798.71545  22035242.1414                   22035240.0314
   3398866.09047   2670258.68444  23978113.1724                   23978113.5554
 11  8  2 16 43 15.0000000  0  9G03G06G13G20G23G19G07G16G10
 -10587903.60248  -8223493.76246  20862952.9144                   20862951.4264
  -4540303.96947  -3517071.47345  22138561.4064                   22138560.1844
 -13723190.65248 -10667712.80946  20479966.2114                   20479963.8324
  14122033.34046  11003261.37143  23783624.6414                   23783624.4064
  -6037672.91048  -4685439.47347  20024995.3524                   20024991.4574
  -9954404.66047  -7727119.82845  21987670.5784                   21987667.5744
  -5527701.91447  -4284586.50445  23028705.6334                   23028703.4414
   9946813.66447   7756671.52345  22038874.3594                   22038871.9304
   3365133.68447   2643973.68844  23971694.0084                   23971694.5354
 11  8  2 16 43 30.0000000  0  9G03G06G13G20G23G19G07G16G10
 -10614719.15248  -8244388.98446  20857850.0554                   20857848.4494
  -4551259.80947  -3525608.46945  22136476.1644                   22136475.2234
 -13768601.92648 -10703098.21946  20471324.7664                   20471322.1134
  14144012.59846  11020388.02744  23787807.7344                   23787807.4654
  -6054530.88748  -4698575.56647  20021787.6254                   20021783.4574
 -10012639.12948  -7772497.33645  21976589.3444                   21976586.1844
  -5579101.85247  -4324638.38345  23018924.4924                   23018922.5664
   9965932.93848   7771569.64145  22042512.6484                   22042510.4304
   3331513.58647   2617776.22344  23965296.1724                   23965296.6214
 11  8  2 16 43 45.0000000  0  9G03G06G13G20G23G19G07G16G10
 -10641390.41448  -8265171.78146  20852774.6094                   20852773.1914
  -4562089.75047  -3534047.37945  22134415.7344                   22134414.0984
 -13813914.28548 -10738406.55546  20462702.3364                   20462699.8524
  14165981.32046  11037506.44944  23791987.5394                   23791987.9024
  -6071261.18048  -4711612.16047  20018603.9454                   20018599.8714
 -10070792.27047  -7817811.46145  21965522.8204                   21965520.1374
  -5630509.26247  -4364696.07445  23009141.4384                   23009140.0704
   9985088.07047   7786495.69145  22046157.8054                   22046155.0824
   3298009.46946   2591669.11344  23958920.5944                   23958920.8204
 11  8  2 16 44  0.0000000  0  9G03G06G13G20G23G19G07G16G10
 -10667923.73048  -8285847.07846  20847725.8754                   20847724.1954
  -4572800.19947  -3542393.16845  22132377.3444                   22132376.1024
 -13859133.93048 -10773642.63346  20454097.2504                   20454094.6844
  14187932.74646  11054611.40243  23796165.6884                   23796165.1724
  -6087870.14548  -4724554.21147  20015443.2274                   20015439.1054
 -10128870.21947  -7863066.99645  21954470.6804                   21954467.9534
  -5681930.59447  -4404764.62545  22999356.6804                   22999354.9924
  10004272.38747   7801444.49245  22049808.2344                   22049806.1914
   3264614.84447   2565647.33243  23952566.2034                   23952566.2504
